<?xml version="1.0" encoding="UTF-8" standalone="no" ?>
<gpx xmlns="http://www.topografix.com/GPX/1/1" xmlns:xsi="http://www.w3.org/2001/XMLSchema-instance" xsi:schemaLocation="http://www.topografix.com/GPX/1/1 http://www.topografix.com/GPX/1/1/gpx.xsd" version="1.1" creator="VisuGPX - https://www.visugpx.com">
  <metadata>
    <name>R 039 St Emilienne</name>
  </metadata>
  <trk>
    <name><![CDATA[R 039 St Emilienne_1]]></name>
    <trkseg>
      <trkpt lat="46.57611" lon="-1.82334">
        <ele>63</ele>
        <time>2018-05-04T12:42:58Z</time>
      </trkpt>
      <trkpt lat="46.57621" lon="-1.82347">
        <ele>55</ele>
        <time>2018-05-04T12:44:36Z</time>
      </trkpt>
      <trkpt lat="46.57623" lon="-1.82355">
        <ele>54</ele>
        <time>2018-05-04T12:44:46Z</time>
      </trkpt>
      <trkpt lat="46.57624" lon="-1.82359">
        <ele>53</ele>
        <time>2018-05-04T12:44:49Z</time>
      </trkpt>
      <trkpt lat="46.57627" lon="-1.82365">
        <ele>52</ele>
        <time>2018-05-04T12:44:54Z</time>
      </trkpt>
      <trkpt lat="46.57631" lon="-1.8237">
        <ele>51</ele>
        <time>2018-05-04T12:44:59Z</time>
      </trkpt>
      <trkpt lat="46.57634" lon="-1.82378">
        <ele>50</ele>
        <time>2018-05-04T12:45:06Z</time>
      </trkpt>
      <trkpt lat="46.57635" lon="-1.82385">
        <ele>50</ele>
        <time>2018-05-04T12:45:10Z</time>
      </trkpt>
      <trkpt lat="46.57635" lon="-1.82391">
        <ele>50</ele>
        <time>2018-05-04T12:45:13Z</time>
      </trkpt>
      <trkpt lat="46.57635" lon="-1.82394">
        <ele>50</ele>
        <time>2018-05-04T12:45:15Z</time>
      </trkpt>
      <trkpt lat="46.57635" lon="-1.82402">
        <ele>49</ele>
        <time>2018-05-04T12:45:21Z</time>
      </trkpt>
      <trkpt lat="46.57638" lon="-1.82409">
        <ele>49</ele>
        <time>2018-05-04T12:45:27Z</time>
      </trkpt>
      <trkpt lat="46.57639" lon="-1.82413">
        <ele>49</ele>
        <time>2018-05-04T12:45:30Z</time>
      </trkpt>
      <trkpt lat="46.57639" lon="-1.82421">
        <ele>49</ele>
        <time>2018-05-04T12:45:34Z</time>
      </trkpt>
      <trkpt lat="46.57639" lon="-1.82426">
        <ele>50</ele>
        <time>2018-05-04T12:45:36Z</time>
      </trkpt>
      <trkpt lat="46.57639" lon="-1.8243">
        <ele>51</ele>
        <time>2018-05-04T12:45:38Z</time>
      </trkpt>
      <trkpt lat="46.5764" lon="-1.82436">
        <ele>51</ele>
        <time>2018-05-04T12:45:42Z</time>
      </trkpt>
      <trkpt lat="46.5764" lon="-1.82443">
        <ele>54</ele>
        <time>2018-05-04T12:45:46Z</time>
      </trkpt>
      <trkpt lat="46.57643" lon="-1.82449">
        <ele>53</ele>
        <time>2018-05-04T12:45:51Z</time>
      </trkpt>
      <trkpt lat="46.57641" lon="-1.82456">
        <ele>52</ele>
        <time>2018-05-04T12:45:57Z</time>
      </trkpt>
      <trkpt lat="46.57644" lon="-1.82461">
        <ele>50</ele>
        <time>2018-05-04T12:46:03Z</time>
      </trkpt>
      <trkpt lat="46.57647" lon="-1.82469">
        <ele>49</ele>
        <time>2018-05-04T12:46:07Z</time>
      </trkpt>
      <trkpt lat="46.57648" lon="-1.82476">
        <ele>47</ele>
        <time>2018-05-04T12:46:11Z</time>
      </trkpt>
      <trkpt lat="46.57651" lon="-1.82483">
        <ele>46</ele>
        <time>2018-05-04T12:46:18Z</time>
      </trkpt>
      <trkpt lat="46.57651" lon="-1.82483">
        <ele>46</ele>
        <time>2018-05-04T12:46:25Z</time>
      </trkpt>
      <trkpt lat="46.57655" lon="-1.82485">
        <ele>46</ele>
        <time>2018-05-04T12:46:26Z</time>
      </trkpt>
      <trkpt lat="46.57661" lon="-1.82491">
        <ele>46</ele>
        <time>2018-05-04T12:46:34Z</time>
      </trkpt>
      <trkpt lat="46.57665" lon="-1.82494">
        <ele>46</ele>
        <time>2018-05-04T12:46:38Z</time>
      </trkpt>
      <trkpt lat="46.57667" lon="-1.82496">
        <ele>46</ele>
        <time>2018-05-04T12:46:40Z</time>
      </trkpt>
      <trkpt lat="46.57672" lon="-1.82498">
        <ele>45</ele>
        <time>2018-05-04T12:46:44Z</time>
      </trkpt>
      <trkpt lat="46.57678" lon="-1.82504">
        <ele>44</ele>
        <time>2018-05-04T12:46:49Z</time>
      </trkpt>
      <trkpt lat="46.57683" lon="-1.82506">
        <ele>45</ele>
        <time>2018-05-04T12:46:52Z</time>
      </trkpt>
      <trkpt lat="46.57685" lon="-1.82507">
        <ele>46</ele>
        <time>2018-05-04T12:46:54Z</time>
      </trkpt>
      <trkpt lat="46.57687" lon="-1.82508">
        <ele>45</ele>
        <time>2018-05-04T12:46:56Z</time>
      </trkpt>
      <trkpt lat="46.57694" lon="-1.82508">
        <ele>46</ele>
        <time>2018-05-04T12:47:01Z</time>
      </trkpt>
      <trkpt lat="46.577" lon="-1.8251">
        <ele>44</ele>
        <time>2018-05-04T12:47:08Z</time>
      </trkpt>
      <trkpt lat="46.57704" lon="-1.82511">
        <ele>46</ele>
        <time>2018-05-04T12:47:14Z</time>
      </trkpt>
      <trkpt lat="46.57707" lon="-1.82512">
        <ele>45</ele>
        <time>2018-05-04T12:47:16Z</time>
      </trkpt>
      <trkpt lat="46.57711" lon="-1.82513">
        <ele>46</ele>
        <time>2018-05-04T12:47:19Z</time>
      </trkpt>
      <trkpt lat="46.57715" lon="-1.82515">
        <ele>47</ele>
        <time>2018-05-04T12:47:22Z</time>
      </trkpt>
      <trkpt lat="46.5772" lon="-1.82516">
        <ele>49</ele>
        <time>2018-05-04T12:47:26Z</time>
      </trkpt>
      <trkpt lat="46.57723" lon="-1.82517">
        <ele>50</ele>
        <time>2018-05-04T12:47:29Z</time>
      </trkpt>
      <trkpt lat="46.57728" lon="-1.82519">
        <ele>49</ele>
        <time>2018-05-04T12:47:33Z</time>
      </trkpt>
      <trkpt lat="46.57731" lon="-1.8252">
        <ele>50</ele>
        <time>2018-05-04T12:47:36Z</time>
      </trkpt>
      <trkpt lat="46.57736" lon="-1.82523">
        <ele>49</ele>
        <time>2018-05-04T12:47:44Z</time>
      </trkpt>
      <trkpt lat="46.5774" lon="-1.82526">
        <ele>49</ele>
        <time>2018-05-04T12:47:47Z</time>
      </trkpt>
      <trkpt lat="46.57742" lon="-1.82527">
        <ele>49</ele>
        <time>2018-05-04T12:47:49Z</time>
      </trkpt>
      <trkpt lat="46.57747" lon="-1.82531">
        <ele>49</ele>
        <time>2018-05-04T12:47:53Z</time>
      </trkpt>
      <trkpt lat="46.5775" lon="-1.82537">
        <ele>47</ele>
        <time>2018-05-04T12:47:58Z</time>
      </trkpt>
      <trkpt lat="46.57754" lon="-1.82541">
        <ele>48</ele>
        <time>2018-05-04T12:48:02Z</time>
      </trkpt>
      <trkpt lat="46.57759" lon="-1.82546">
        <ele>47</ele>
        <time>2018-05-04T12:48:07Z</time>
      </trkpt>
      <trkpt lat="46.57761" lon="-1.82551">
        <ele>47</ele>
        <time>2018-05-04T12:48:11Z</time>
      </trkpt>
      <trkpt lat="46.57763" lon="-1.82555">
        <ele>46</ele>
        <time>2018-05-04T12:48:14Z</time>
      </trkpt>
      <trkpt lat="46.57766" lon="-1.82563">
        <ele>47</ele>
        <time>2018-05-04T12:48:19Z</time>
      </trkpt>
      <trkpt lat="46.57766" lon="-1.82571">
        <ele>45</ele>
        <time>2018-05-04T12:48:23Z</time>
      </trkpt>
      <trkpt lat="46.57768" lon="-1.82579">
        <ele>44</ele>
        <time>2018-05-04T12:48:28Z</time>
      </trkpt>
      <trkpt lat="46.57769" lon="-1.82586">
        <ele>42</ele>
        <time>2018-05-04T12:48:34Z</time>
      </trkpt>
      <trkpt lat="46.57771" lon="-1.82594">
        <ele>42</ele>
        <time>2018-05-04T12:48:39Z</time>
      </trkpt>
      <trkpt lat="46.57772" lon="-1.826">
        <ele>42</ele>
        <time>2018-05-04T12:48:42Z</time>
      </trkpt>
      <trkpt lat="46.57773" lon="-1.82604">
        <ele>42</ele>
        <time>2018-05-04T12:48:45Z</time>
      </trkpt>
      <trkpt lat="46.57774" lon="-1.82609">
        <ele>40</ele>
        <time>2018-05-04T12:48:50Z</time>
      </trkpt>
      <trkpt lat="46.57777" lon="-1.82615">
        <ele>38</ele>
        <time>2018-05-04T12:48:54Z</time>
      </trkpt>
      <trkpt lat="46.57778" lon="-1.82623">
        <ele>37</ele>
        <time>2018-05-04T12:49:00Z</time>
      </trkpt>
      <trkpt lat="46.57782" lon="-1.8263">
        <ele>36</ele>
        <time>2018-05-04T12:49:05Z</time>
      </trkpt>
      <trkpt lat="46.57784" lon="-1.82639">
        <ele>35</ele>
        <time>2018-05-04T12:49:12Z</time>
      </trkpt>
      <trkpt lat="46.57786" lon="-1.82643">
        <ele>34</ele>
        <time>2018-05-04T12:49:15Z</time>
      </trkpt>
      <trkpt lat="46.57786" lon="-1.8265">
        <ele>32</ele>
        <time>2018-05-04T12:49:19Z</time>
      </trkpt>
      <trkpt lat="46.57789" lon="-1.82657">
        <ele>31</ele>
        <time>2018-05-04T12:49:26Z</time>
      </trkpt>
      <trkpt lat="46.5779" lon="-1.82661">
        <ele>30</ele>
        <time>2018-05-04T12:49:29Z</time>
      </trkpt>
      <trkpt lat="46.57792" lon="-1.82668">
        <ele>28</ele>
        <time>2018-05-04T12:49:36Z</time>
      </trkpt>
      <trkpt lat="46.57793" lon="-1.82671">
        <ele>27</ele>
        <time>2018-05-04T12:49:38Z</time>
      </trkpt>
      <trkpt lat="46.57793" lon="-1.82679">
        <ele>24</ele>
        <time>2018-05-04T12:49:44Z</time>
      </trkpt>
      <trkpt lat="46.57797" lon="-1.82688">
        <ele>21</ele>
        <time>2018-05-04T12:49:51Z</time>
      </trkpt>
      <trkpt lat="46.57799" lon="-1.82693">
        <ele>18</ele>
        <time>2018-05-04T12:49:57Z</time>
      </trkpt>
      <trkpt lat="46.57803" lon="-1.82701">
        <ele>16</ele>
        <time>2018-05-04T12:50:02Z</time>
      </trkpt>
      <trkpt lat="46.57804" lon="-1.82704">
        <ele>15</ele>
        <time>2018-05-04T12:50:05Z</time>
      </trkpt>
      <trkpt lat="46.57805" lon="-1.82707">
        <ele>14</ele>
        <time>2018-05-04T12:50:07Z</time>
      </trkpt>
      <trkpt lat="46.57806" lon="-1.82715">
        <ele>11</ele>
        <time>2018-05-04T12:50:11Z</time>
      </trkpt>
      <trkpt lat="46.57807" lon="-1.82724">
        <ele>7</ele>
        <time>2018-05-04T12:50:18Z</time>
      </trkpt>
      <trkpt lat="46.57807" lon="-1.82732">
        <ele>4</ele>
        <time>2018-05-04T12:50:24Z</time>
      </trkpt>
      <trkpt lat="46.57808" lon="-1.82738">
        <ele>2</ele>
        <time>2018-05-04T12:50:29Z</time>
      </trkpt>
      <trkpt lat="46.5781" lon="-1.82745">
        <ele>1</ele>
        <time>2018-05-04T12:50:34Z</time>
      </trkpt>
      <trkpt lat="46.57814" lon="-1.82749">
        <ele>14.7</ele>
        <time>2018-05-04T12:50:38Z</time>
      </trkpt>
      <trkpt lat="46.57816" lon="-1.82751">
        <ele>14.7</ele>
        <time>2018-05-04T12:50:40Z</time>
      </trkpt>
      <trkpt lat="46.57818" lon="-1.82757">
        <ele>-3</ele>
        <time>2018-05-04T12:50:47Z</time>
      </trkpt>
      <trkpt lat="46.57821" lon="-1.82763">
        <ele>-5</ele>
        <time>2018-05-04T12:50:52Z</time>
      </trkpt>
      <trkpt lat="46.57822" lon="-1.8277">
        <ele>-7</ele>
        <time>2018-05-04T12:50:57Z</time>
      </trkpt>
      <trkpt lat="46.57822" lon="-1.82778">
        <ele>-9</ele>
        <time>2018-05-04T12:51:03Z</time>
      </trkpt>
      <trkpt lat="46.57823" lon="-1.82786">
        <ele>-11</ele>
        <time>2018-05-04T12:51:09Z</time>
      </trkpt>
      <trkpt lat="46.57823" lon="-1.82793">
        <ele>-13</ele>
        <time>2018-05-04T12:51:13Z</time>
      </trkpt>
      <trkpt lat="46.57823" lon="-1.82798">
        <ele>-14</ele>
        <time>2018-05-04T12:51:17Z</time>
      </trkpt>
      <trkpt lat="46.57822" lon="-1.82804">
        <ele>-15</ele>
        <time>2018-05-04T12:51:21Z</time>
      </trkpt>
      <trkpt lat="46.57821" lon="-1.8281">
        <ele>-16</ele>
        <time>2018-05-04T12:51:25Z</time>
      </trkpt>
      <trkpt lat="46.57822" lon="-1.82817">
        <ele>-16</ele>
        <time>2018-05-04T12:51:30Z</time>
      </trkpt>
      <trkpt lat="46.57822" lon="-1.8282">
        <ele>-17</ele>
        <time>2018-05-04T12:51:33Z</time>
      </trkpt>
      <trkpt lat="46.57823" lon="-1.82827">
        <ele>-18</ele>
        <time>2018-05-04T12:51:39Z</time>
      </trkpt>
      <trkpt lat="46.57825" lon="-1.82834">
        <ele>-21</ele>
        <time>2018-05-04T12:51:46Z</time>
      </trkpt>
      <trkpt lat="46.57827" lon="-1.8284">
        <ele>-22</ele>
        <time>2018-05-04T12:51:51Z</time>
      </trkpt>
      <trkpt lat="46.57828" lon="-1.82843">
        <ele>-22</ele>
        <time>2018-05-04T12:51:53Z</time>
      </trkpt>
      <trkpt lat="46.5783" lon="-1.82851">
        <ele>-24</ele>
        <time>2018-05-04T12:51:57Z</time>
      </trkpt>
      <trkpt lat="46.57831" lon="-1.82854">
        <ele>-25</ele>
        <time>2018-05-04T12:51:59Z</time>
      </trkpt>
      <trkpt lat="46.57834" lon="-1.82859">
        <ele>-26</ele>
        <time>2018-05-04T12:52:05Z</time>
      </trkpt>
      <trkpt lat="46.57835" lon="-1.82866">
        <ele>-28</ele>
        <time>2018-05-04T12:52:09Z</time>
      </trkpt>
      <trkpt lat="46.57839" lon="-1.82876">
        <ele>-31</ele>
        <time>2018-05-04T12:52:17Z</time>
      </trkpt>
      <trkpt lat="46.5784" lon="-1.8288">
        <ele>-32</ele>
        <time>2018-05-04T12:52:20Z</time>
      </trkpt>
      <trkpt lat="46.57841" lon="-1.82887">
        <ele>-36</ele>
        <time>2018-05-04T12:52:26Z</time>
      </trkpt>
      <trkpt lat="46.57841" lon="-1.82893">
        <ele>-38</ele>
        <time>2018-05-04T12:52:31Z</time>
      </trkpt>
      <trkpt lat="46.57842" lon="-1.82897">
        <ele>-40</ele>
        <time>2018-05-04T12:52:35Z</time>
      </trkpt>
      <trkpt lat="46.57842" lon="-1.82904">
        <ele>-42</ele>
        <time>2018-05-04T12:52:40Z</time>
      </trkpt>
      <trkpt lat="46.57845" lon="-1.8291">
        <ele>-45</ele>
        <time>2018-05-04T12:52:45Z</time>
      </trkpt>
      <trkpt lat="46.57848" lon="-1.82918">
        <ele>-47</ele>
        <time>2018-05-04T12:52:51Z</time>
      </trkpt>
      <trkpt lat="46.57849" lon="-1.82927">
        <ele>-49</ele>
        <time>2018-05-04T12:52:57Z</time>
      </trkpt>
      <trkpt lat="46.57849" lon="-1.82935">
        <ele>-51</ele>
        <time>2018-05-04T12:53:02Z</time>
      </trkpt>
      <trkpt lat="46.57849" lon="-1.82938">
        <ele>-52</ele>
        <time>2018-05-04T12:53:04Z</time>
      </trkpt>
      <trkpt lat="46.57848" lon="-1.82944">
        <ele>-53</ele>
        <time>2018-05-04T12:53:07Z</time>
      </trkpt>
      <trkpt lat="46.57848" lon="-1.82948">
        <ele>-53</ele>
        <time>2018-05-04T12:53:09Z</time>
      </trkpt>
      <trkpt lat="46.57848" lon="-1.82954">
        <ele>-54</ele>
        <time>2018-05-04T12:53:12Z</time>
      </trkpt>
      <trkpt lat="46.57848" lon="-1.82958">
        <ele>-55</ele>
        <time>2018-05-04T12:53:14Z</time>
      </trkpt>
      <trkpt lat="46.57847" lon="-1.82962">
        <ele>-55</ele>
        <time>2018-05-04T12:53:16Z</time>
      </trkpt>
      <trkpt lat="46.57847" lon="-1.82966">
        <ele>-56</ele>
        <time>2018-05-04T12:53:18Z</time>
      </trkpt>
      <trkpt lat="46.57847" lon="-1.8297">
        <ele>-57</ele>
        <time>2018-05-04T12:53:21Z</time>
      </trkpt>
      <trkpt lat="46.57846" lon="-1.82973">
        <ele>-57</ele>
        <time>2018-05-04T12:53:23Z</time>
      </trkpt>
      <trkpt lat="46.57846" lon="-1.82978">
        <ele>-57</ele>
        <time>2018-05-04T12:53:26Z</time>
      </trkpt>
      <trkpt lat="46.57846" lon="-1.82982">
        <ele>-58</ele>
        <time>2018-05-04T12:53:29Z</time>
      </trkpt>
      <trkpt lat="46.57845" lon="-1.82987">
        <ele>-59</ele>
        <time>2018-05-04T12:53:32Z</time>
      </trkpt>
      <trkpt lat="46.57844" lon="-1.82993">
        <ele>-59</ele>
        <time>2018-05-04T12:53:36Z</time>
      </trkpt>
      <trkpt lat="46.57843" lon="-1.83001">
        <ele>-58</ele>
        <time>2018-05-04T12:53:41Z</time>
      </trkpt>
      <trkpt lat="46.57842" lon="-1.83006">
        <ele>-59</ele>
        <time>2018-05-04T12:53:44Z</time>
      </trkpt>
      <trkpt lat="46.57841" lon="-1.83011">
        <ele>-59</ele>
        <time>2018-05-04T12:53:48Z</time>
      </trkpt>
      <trkpt lat="46.5784" lon="-1.8302">
        <ele>-60</ele>
        <time>2018-05-04T12:53:53Z</time>
      </trkpt>
      <trkpt lat="46.5784" lon="-1.83024">
        <ele>-60</ele>
        <time>2018-05-04T12:53:55Z</time>
      </trkpt>
      <trkpt lat="46.57838" lon="-1.8303">
        <ele>-61</ele>
        <time>2018-05-04T12:53:59Z</time>
      </trkpt>
      <trkpt lat="46.57835" lon="-1.83036">
        <ele>-61</ele>
        <time>2018-05-04T12:54:04Z</time>
      </trkpt>
      <trkpt lat="46.57833" lon="-1.8304">
        <ele>-62</ele>
        <time>2018-05-04T12:54:07Z</time>
      </trkpt>
      <trkpt lat="46.57831" lon="-1.83046">
        <ele>-62</ele>
        <time>2018-05-04T12:54:11Z</time>
      </trkpt>
      <trkpt lat="46.57827" lon="-1.8305">
        <ele>-62</ele>
        <time>2018-05-04T12:54:17Z</time>
      </trkpt>
      <trkpt lat="46.57825" lon="-1.83052">
        <ele>-62</ele>
        <time>2018-05-04T12:54:19Z</time>
      </trkpt>
      <trkpt lat="46.57822" lon="-1.83057">
        <ele>-63</ele>
        <time>2018-05-04T12:54:23Z</time>
      </trkpt>
      <trkpt lat="46.57821" lon="-1.8306">
        <ele>-64</ele>
        <time>2018-05-04T12:54:25Z</time>
      </trkpt>
      <trkpt lat="46.57817" lon="-1.83064">
        <ele>-62</ele>
        <time>2018-05-04T12:54:30Z</time>
      </trkpt>
      <trkpt lat="46.57813" lon="-1.83071">
        <ele>-63</ele>
        <time>2018-05-04T12:54:36Z</time>
      </trkpt>
      <trkpt lat="46.57809" lon="-1.83076">
        <ele>-62</ele>
        <time>2018-05-04T12:54:42Z</time>
      </trkpt>
      <trkpt lat="46.57809" lon="-1.83076">
        <ele>-62</ele>
        <time>2018-05-04T12:54:49Z</time>
      </trkpt>
      <trkpt lat="46.57809" lon="-1.83076">
        <ele>-62</ele>
        <time>2018-05-04T12:54:50Z</time>
      </trkpt>
      <trkpt lat="46.57805" lon="-1.8308">
        <ele>-61</ele>
        <time>2018-05-04T12:54:56Z</time>
      </trkpt>
      <trkpt lat="46.57802" lon="-1.83084">
        <ele>-61</ele>
        <time>2018-05-04T12:55:00Z</time>
      </trkpt>
      <trkpt lat="46.578" lon="-1.83087">
        <ele>-62</ele>
        <time>2018-05-04T12:55:04Z</time>
      </trkpt>
      <trkpt lat="46.57796" lon="-1.83093">
        <ele>-63</ele>
        <time>2018-05-04T12:55:10Z</time>
      </trkpt>
      <trkpt lat="46.57794" lon="-1.83099">
        <ele>-62</ele>
        <time>2018-05-04T12:55:14Z</time>
      </trkpt>
      <trkpt lat="46.57791" lon="-1.83104">
        <ele>-63</ele>
        <time>2018-05-04T12:55:18Z</time>
      </trkpt>
      <trkpt lat="46.5779" lon="-1.83107">
        <ele>-63</ele>
        <time>2018-05-04T12:55:20Z</time>
      </trkpt>
      <trkpt lat="46.57788" lon="-1.83113">
        <ele>-63</ele>
        <time>2018-05-04T12:55:24Z</time>
      </trkpt>
      <trkpt lat="46.57787" lon="-1.83117">
        <ele>-62</ele>
        <time>2018-05-04T12:55:27Z</time>
      </trkpt>
      <trkpt lat="46.57781" lon="-1.83123">
        <ele>-64</ele>
        <time>2018-05-04T12:55:34Z</time>
      </trkpt>
      <trkpt lat="46.57778" lon="-1.83126">
        <ele>-64</ele>
        <time>2018-05-04T12:55:37Z</time>
      </trkpt>
      <trkpt lat="46.57776" lon="-1.83129">
        <ele>-64</ele>
        <time>2018-05-04T12:55:40Z</time>
      </trkpt>
      <trkpt lat="46.57773" lon="-1.83134">
        <ele>-65</ele>
        <time>2018-05-04T12:55:45Z</time>
      </trkpt>
      <trkpt lat="46.57769" lon="-1.83141">
        <ele>-66</ele>
        <time>2018-05-04T12:55:50Z</time>
      </trkpt>
      <trkpt lat="46.57767" lon="-1.83149">
        <ele>-67</ele>
        <time>2018-05-04T12:55:54Z</time>
      </trkpt>
      <trkpt lat="46.57764" lon="-1.83157">
        <ele>-68</ele>
        <time>2018-05-04T12:56:01Z</time>
      </trkpt>
      <trkpt lat="46.57762" lon="-1.83164">
        <ele>-69</ele>
        <time>2018-05-04T12:56:08Z</time>
      </trkpt>
      <trkpt lat="46.57759" lon="-1.83172">
        <ele>-71</ele>
        <time>2018-05-04T12:56:13Z</time>
      </trkpt>
      <trkpt lat="46.57757" lon="-1.83178">
        <ele>-71</ele>
        <time>2018-05-04T12:56:17Z</time>
      </trkpt>
      <trkpt lat="46.57756" lon="-1.83186">
        <ele>-72</ele>
        <time>2018-05-04T12:56:21Z</time>
      </trkpt>
      <trkpt lat="46.57755" lon="-1.8319">
        <ele>-73</ele>
        <time>2018-05-04T12:56:24Z</time>
      </trkpt>
      <trkpt lat="46.57752" lon="-1.83198">
        <ele>-73</ele>
        <time>2018-05-04T12:56:31Z</time>
      </trkpt>
      <trkpt lat="46.57751" lon="-1.83205">
        <ele>-74</ele>
        <time>2018-05-04T12:56:35Z</time>
      </trkpt>
      <trkpt lat="46.57748" lon="-1.83213">
        <ele>-75</ele>
        <time>2018-05-04T12:56:39Z</time>
      </trkpt>
      <trkpt lat="46.57745" lon="-1.83219">
        <ele>-76</ele>
        <time>2018-05-04T12:56:43Z</time>
      </trkpt>
      <trkpt lat="46.57743" lon="-1.83225">
        <ele>-77</ele>
        <time>2018-05-04T12:56:46Z</time>
      </trkpt>
      <trkpt lat="46.57741" lon="-1.83229">
        <ele>-78</ele>
        <time>2018-05-04T12:56:48Z</time>
      </trkpt>
      <trkpt lat="46.5774" lon="-1.83236">
        <ele>-78</ele>
        <time>2018-05-04T12:56:52Z</time>
      </trkpt>
      <trkpt lat="46.57738" lon="-1.83243">
        <ele>-79</ele>
        <time>2018-05-04T12:56:56Z</time>
      </trkpt>
      <trkpt lat="46.57734" lon="-1.83249">
        <ele>-80</ele>
        <time>2018-05-04T12:57:00Z</time>
      </trkpt>
      <trkpt lat="46.57733" lon="-1.83256">
        <ele>-80</ele>
        <time>2018-05-04T12:57:05Z</time>
      </trkpt>
      <trkpt lat="46.57731" lon="-1.83262">
        <ele>-80</ele>
        <time>2018-05-04T12:57:09Z</time>
      </trkpt>
      <trkpt lat="46.57731" lon="-1.83269">
        <ele>-80</ele>
        <time>2018-05-04T12:57:13Z</time>
      </trkpt>
      <trkpt lat="46.57729" lon="-1.83276">
        <ele>-80</ele>
        <time>2018-05-04T12:57:19Z</time>
      </trkpt>
      <trkpt lat="46.5773" lon="-1.83283">
        <ele>-81</ele>
        <time>2018-05-04T12:57:25Z</time>
      </trkpt>
      <trkpt lat="46.57729" lon="-1.8329">
        <ele>-83</ele>
        <time>2018-05-04T12:57:33Z</time>
      </trkpt>
      <trkpt lat="46.57729" lon="-1.833">
        <ele>-84</ele>
        <time>2018-05-04T12:57:38Z</time>
      </trkpt>
      <trkpt lat="46.57729" lon="-1.83305">
        <ele>-84</ele>
        <time>2018-05-04T12:57:42Z</time>
      </trkpt>
      <trkpt lat="46.5773" lon="-1.83312">
        <ele>-85</ele>
        <time>2018-05-04T12:57:46Z</time>
      </trkpt>
      <trkpt lat="46.57732" lon="-1.83319">
        <ele>-86</ele>
        <time>2018-05-04T12:57:49Z</time>
      </trkpt>
      <trkpt lat="46.57731" lon="-1.83326">
        <ele>-87</ele>
        <time>2018-05-04T12:57:53Z</time>
      </trkpt>
      <trkpt lat="46.5773" lon="-1.83336">
        <ele>-89</ele>
        <time>2018-05-04T12:58:00Z</time>
      </trkpt>
      <trkpt lat="46.5773" lon="-1.83342">
        <ele>-90</ele>
        <time>2018-05-04T12:58:03Z</time>
      </trkpt>
      <trkpt lat="46.5773" lon="-1.83351">
        <ele>-91</ele>
        <time>2018-05-04T12:58:08Z</time>
      </trkpt>
      <trkpt lat="46.57728" lon="-1.83358">
        <ele>-93</ele>
        <time>2018-05-04T12:58:13Z</time>
      </trkpt>
      <trkpt lat="46.5773" lon="-1.83365">
        <ele>-93</ele>
        <time>2018-05-04T12:58:17Z</time>
      </trkpt>
      <trkpt lat="46.57728" lon="-1.83371">
        <ele>-94</ele>
        <time>2018-05-04T12:58:21Z</time>
      </trkpt>
      <trkpt lat="46.57727" lon="-1.83375">
        <ele>-94</ele>
        <time>2018-05-04T12:58:24Z</time>
      </trkpt>
      <trkpt lat="46.57727" lon="-1.83383">
        <ele>-95</ele>
        <time>2018-05-04T12:58:29Z</time>
      </trkpt>
      <trkpt lat="46.57727" lon="-1.83388">
        <ele>-96</ele>
        <time>2018-05-04T12:58:32Z</time>
      </trkpt>
      <trkpt lat="46.57728" lon="-1.83396">
        <ele>-96</ele>
        <time>2018-05-04T12:58:40Z</time>
      </trkpt>
      <trkpt lat="46.57727" lon="-1.83404">
        <ele>-97</ele>
        <time>2018-05-04T12:58:45Z</time>
      </trkpt>
      <trkpt lat="46.57725" lon="-1.83411">
        <ele>-98</ele>
        <time>2018-05-04T12:58:49Z</time>
      </trkpt>
      <trkpt lat="46.57723" lon="-1.83417">
        <ele>-100</ele>
        <time>2018-05-04T12:58:54Z</time>
      </trkpt>
      <trkpt lat="46.57719" lon="-1.83421">
        <ele>-100</ele>
        <time>2018-05-04T12:58:58Z</time>
      </trkpt>
      <trkpt lat="46.57716" lon="-1.83427">
        <ele>-101</ele>
        <time>2018-05-04T12:59:03Z</time>
      </trkpt>
      <trkpt lat="46.57715" lon="-1.83436">
        <ele>-101</ele>
        <time>2018-05-04T12:59:11Z</time>
      </trkpt>
      <trkpt lat="46.57717" lon="-1.83443">
        <ele>-100</ele>
        <time>2018-05-04T12:59:15Z</time>
      </trkpt>
      <trkpt lat="46.57718" lon="-1.8345">
        <ele>-100</ele>
        <time>2018-05-04T12:59:21Z</time>
      </trkpt>
      <trkpt lat="46.57718" lon="-1.83456">
        <ele>-98</ele>
        <time>2018-05-04T12:59:27Z</time>
      </trkpt>
      <trkpt lat="46.57718" lon="-1.83466">
        <ele>-98</ele>
        <time>2018-05-04T12:59:32Z</time>
      </trkpt>
      <trkpt lat="46.57718" lon="-1.83469">
        <ele>-98</ele>
        <time>2018-05-04T12:59:34Z</time>
      </trkpt>
      <trkpt lat="46.57718" lon="-1.83473">
        <ele>-98</ele>
        <time>2018-05-04T12:59:37Z</time>
      </trkpt>
      <trkpt lat="46.57718" lon="-1.8348">
        <ele>-97</ele>
        <time>2018-05-04T12:59:42Z</time>
      </trkpt>
      <trkpt lat="46.57718" lon="-1.83487">
        <ele>-97</ele>
        <time>2018-05-04T12:59:49Z</time>
      </trkpt>
      <trkpt lat="46.57717" lon="-1.8349">
        <ele>-97</ele>
        <time>2018-05-04T12:59:52Z</time>
      </trkpt>
      <trkpt lat="46.57717" lon="-1.83495">
        <ele>-98</ele>
        <time>2018-05-04T12:59:55Z</time>
      </trkpt>
      <trkpt lat="46.57716" lon="-1.83502">
        <ele>-97</ele>
        <time>2018-05-04T12:59:59Z</time>
      </trkpt>
      <trkpt lat="46.57714" lon="-1.83511">
        <ele>-97</ele>
        <time>2018-05-04T13:00:04Z</time>
      </trkpt>
      <trkpt lat="46.57713" lon="-1.83519">
        <ele>-96</ele>
        <time>2018-05-04T13:00:10Z</time>
      </trkpt>
      <trkpt lat="46.57713" lon="-1.83524">
        <ele>-96</ele>
        <time>2018-05-04T13:00:13Z</time>
      </trkpt>
      <trkpt lat="46.57711" lon="-1.8353">
        <ele>-96</ele>
        <time>2018-05-04T13:00:17Z</time>
      </trkpt>
      <trkpt lat="46.57709" lon="-1.83538">
        <ele>-96</ele>
        <time>2018-05-04T13:00:22Z</time>
      </trkpt>
      <trkpt lat="46.57708" lon="-1.83543">
        <ele>-96</ele>
        <time>2018-05-04T13:00:25Z</time>
      </trkpt>
      <trkpt lat="46.57708" lon="-1.83548">
        <ele>-96</ele>
        <time>2018-05-04T13:00:28Z</time>
      </trkpt>
      <trkpt lat="46.57706" lon="-1.83555">
        <ele>-96</ele>
        <time>2018-05-04T13:00:32Z</time>
      </trkpt>
      <trkpt lat="46.57705" lon="-1.83558">
        <ele>-96</ele>
        <time>2018-05-04T13:00:34Z</time>
      </trkpt>
      <trkpt lat="46.57704" lon="-1.83562">
        <ele>-97</ele>
        <time>2018-05-04T13:00:36Z</time>
      </trkpt>
      <trkpt lat="46.57701" lon="-1.83567">
        <ele>-95</ele>
        <time>2018-05-04T13:00:41Z</time>
      </trkpt>
      <trkpt lat="46.57699" lon="-1.83574">
        <ele>-94</ele>
        <time>2018-05-04T13:00:45Z</time>
      </trkpt>
      <trkpt lat="46.57698" lon="-1.83577">
        <ele>-95</ele>
        <time>2018-05-04T13:00:47Z</time>
      </trkpt>
      <trkpt lat="46.57697" lon="-1.8358">
        <ele>-95</ele>
        <time>2018-05-04T13:00:49Z</time>
      </trkpt>
      <trkpt lat="46.57696" lon="-1.83583">
        <ele>-95</ele>
        <time>2018-05-04T13:00:51Z</time>
      </trkpt>
      <trkpt lat="46.57694" lon="-1.83589">
        <ele>-95</ele>
        <time>2018-05-04T13:00:57Z</time>
      </trkpt>
      <trkpt lat="46.57694" lon="-1.83596">
        <ele>-94</ele>
        <time>2018-05-04T13:01:02Z</time>
      </trkpt>
      <trkpt lat="46.57695" lon="-1.83602">
        <ele>-93</ele>
        <time>2018-05-04T13:01:07Z</time>
      </trkpt>
      <trkpt lat="46.57696" lon="-1.83611">
        <ele>-92</ele>
        <time>2018-05-04T13:01:13Z</time>
      </trkpt>
      <trkpt lat="46.57697" lon="-1.83614">
        <ele>-92</ele>
        <time>2018-05-04T13:01:16Z</time>
      </trkpt>
      <trkpt lat="46.57697" lon="-1.83618">
        <ele>-93</ele>
        <time>2018-05-04T13:01:20Z</time>
      </trkpt>
      <trkpt lat="46.57696" lon="-1.83629">
        <ele>-94</ele>
        <time>2018-05-04T13:01:27Z</time>
      </trkpt>
      <trkpt lat="46.57695" lon="-1.83633">
        <ele>-94</ele>
        <time>2018-05-04T13:01:30Z</time>
      </trkpt>
      <trkpt lat="46.57695" lon="-1.83637">
        <ele>-94</ele>
        <time>2018-05-04T13:01:33Z</time>
      </trkpt>
      <trkpt lat="46.57695" lon="-1.8364">
        <ele>-93</ele>
        <time>2018-05-04T13:01:36Z</time>
      </trkpt>
      <trkpt lat="46.57694" lon="-1.83646">
        <ele>-93</ele>
        <time>2018-05-04T13:01:40Z</time>
      </trkpt>
      <trkpt lat="46.57692" lon="-1.83655">
        <ele>-93</ele>
        <time>2018-05-04T13:01:47Z</time>
      </trkpt>
      <trkpt lat="46.5769" lon="-1.83662">
        <ele>-92</ele>
        <time>2018-05-04T13:01:52Z</time>
      </trkpt>
      <trkpt lat="46.57686" lon="-1.83666">
        <ele>-93</ele>
        <time>2018-05-04T13:01:56Z</time>
      </trkpt>
      <trkpt lat="46.57682" lon="-1.83672">
        <ele>-93</ele>
        <time>2018-05-04T13:02:02Z</time>
      </trkpt>
      <trkpt lat="46.57681" lon="-1.8368">
        <ele>-93</ele>
        <time>2018-05-04T13:02:06Z</time>
      </trkpt>
      <trkpt lat="46.5768" lon="-1.83684">
        <ele>-93</ele>
        <time>2018-05-04T13:02:08Z</time>
      </trkpt>
      <trkpt lat="46.57679" lon="-1.83687">
        <ele>-93</ele>
        <time>2018-05-04T13:02:10Z</time>
      </trkpt>
      <trkpt lat="46.57678" lon="-1.83691">
        <ele>-94</ele>
        <time>2018-05-04T13:02:13Z</time>
      </trkpt>
      <trkpt lat="46.57677" lon="-1.83699">
        <ele>-95</ele>
        <time>2018-05-04T13:02:17Z</time>
      </trkpt>
      <trkpt lat="46.57679" lon="-1.83707">
        <ele>-96</ele>
        <time>2018-05-04T13:02:22Z</time>
      </trkpt>
      <trkpt lat="46.57675" lon="-1.83716">
        <ele>-96</ele>
        <time>2018-05-04T13:02:27Z</time>
      </trkpt>
      <trkpt lat="46.57673" lon="-1.83725">
        <ele>-98</ele>
        <time>2018-05-04T13:02:32Z</time>
      </trkpt>
      <trkpt lat="46.57672" lon="-1.83729">
        <ele>-99</ele>
        <time>2018-05-04T13:02:34Z</time>
      </trkpt>
      <trkpt lat="46.57669" lon="-1.83735">
        <ele>-99</ele>
        <time>2018-05-04T13:02:38Z</time>
      </trkpt>
      <trkpt lat="46.57668" lon="-1.83741">
        <ele>-98</ele>
        <time>2018-05-04T13:02:42Z</time>
      </trkpt>
      <trkpt lat="46.57668" lon="-1.83749">
        <ele>-97</ele>
        <time>2018-05-04T13:02:46Z</time>
      </trkpt>
      <trkpt lat="46.57668" lon="-1.83753">
        <ele>-98</ele>
        <time>2018-05-04T13:02:48Z</time>
      </trkpt>
      <trkpt lat="46.57668" lon="-1.83758">
        <ele>-98</ele>
        <time>2018-05-04T13:02:51Z</time>
      </trkpt>
      <trkpt lat="46.57669" lon="-1.83765">
        <ele>-98</ele>
        <time>2018-05-04T13:02:56Z</time>
      </trkpt>
      <trkpt lat="46.57672" lon="-1.83771">
        <ele>-97</ele>
        <time>2018-05-04T13:03:02Z</time>
      </trkpt>
      <trkpt lat="46.57672" lon="-1.83778">
        <ele>-96</ele>
        <time>2018-05-04T13:03:08Z</time>
      </trkpt>
      <trkpt lat="46.57668" lon="-1.83786">
        <ele>-96</ele>
        <time>2018-05-04T13:03:14Z</time>
      </trkpt>
      <trkpt lat="46.57664" lon="-1.83789">
        <ele>-95</ele>
        <time>2018-05-04T13:03:18Z</time>
      </trkpt>
      <trkpt lat="46.5766" lon="-1.83784">
        <ele>-94</ele>
        <time>2018-05-04T13:03:25Z</time>
      </trkpt>
      <trkpt lat="46.57654" lon="-1.83781">
        <ele>-93</ele>
        <time>2018-05-04T13:03:32Z</time>
      </trkpt>
      <trkpt lat="46.57649" lon="-1.83781">
        <ele>-95</ele>
        <time>2018-05-04T13:03:38Z</time>
      </trkpt>
      <trkpt lat="46.57644" lon="-1.8378">
        <ele>-98</ele>
        <time>2018-05-04T13:03:45Z</time>
      </trkpt>
      <trkpt lat="46.57639" lon="-1.83781">
        <ele>-97</ele>
        <time>2018-05-04T13:03:48Z</time>
      </trkpt>
      <trkpt lat="46.57639" lon="-1.83781">
        <ele>-97</ele>
        <time>2018-05-04T13:03:53Z</time>
      </trkpt>
      <trkpt lat="46.57639" lon="-1.83781">
        <ele>-97</ele>
        <time>2018-05-04T13:03:54Z</time>
      </trkpt>
      <trkpt lat="46.57631" lon="-1.83783">
        <ele>-95</ele>
        <time>2018-05-04T13:03:58Z</time>
      </trkpt>
      <trkpt lat="46.57626" lon="-1.83785">
        <ele>-95</ele>
        <time>2018-05-04T13:04:02Z</time>
      </trkpt>
      <trkpt lat="46.57622" lon="-1.83791">
        <ele>-94</ele>
        <time>2018-05-04T13:04:05Z</time>
      </trkpt>
      <trkpt lat="46.57621" lon="-1.83794">
        <ele>-92</ele>
        <time>2018-05-04T13:04:07Z</time>
      </trkpt>
      <trkpt lat="46.57618" lon="-1.838">
        <ele>-88</ele>
        <time>2018-05-04T13:04:11Z</time>
      </trkpt>
      <trkpt lat="46.57614" lon="-1.83806">
        <ele>-86</ele>
        <time>2018-05-04T13:04:15Z</time>
      </trkpt>
      <trkpt lat="46.57612" lon="-1.83814">
        <ele>-85</ele>
        <time>2018-05-04T13:04:20Z</time>
      </trkpt>
      <trkpt lat="46.57608" lon="-1.8382">
        <ele>-83</ele>
        <time>2018-05-04T13:04:27Z</time>
      </trkpt>
      <trkpt lat="46.57606" lon="-1.83826">
        <ele>-82</ele>
        <time>2018-05-04T13:04:31Z</time>
      </trkpt>
      <trkpt lat="46.57605" lon="-1.83832">
        <ele>-81</ele>
        <time>2018-05-04T13:04:37Z</time>
      </trkpt>
      <trkpt lat="46.57601" lon="-1.83839">
        <ele>-79</ele>
        <time>2018-05-04T13:04:44Z</time>
      </trkpt>
      <trkpt lat="46.57598" lon="-1.83843">
        <ele>-78</ele>
        <time>2018-05-04T13:04:48Z</time>
      </trkpt>
      <trkpt lat="46.57597" lon="-1.83846">
        <ele>-78</ele>
        <time>2018-05-04T13:04:51Z</time>
      </trkpt>
      <trkpt lat="46.57594" lon="-1.83852">
        <ele>-77</ele>
        <time>2018-05-04T13:04:57Z</time>
      </trkpt>
      <trkpt lat="46.57589" lon="-1.83859">
        <ele>-76</ele>
        <time>2018-05-04T13:05:03Z</time>
      </trkpt>
      <trkpt lat="46.57587" lon="-1.83862">
        <ele>-75</ele>
        <time>2018-05-04T13:05:05Z</time>
      </trkpt>
      <trkpt lat="46.57585" lon="-1.83869">
        <ele>-74</ele>
        <time>2018-05-04T13:05:09Z</time>
      </trkpt>
      <trkpt lat="46.57581" lon="-1.83874">
        <ele>-72</ele>
        <time>2018-05-04T13:05:13Z</time>
      </trkpt>
      <trkpt lat="46.57578" lon="-1.83878">
        <ele>-72</ele>
        <time>2018-05-04T13:05:16Z</time>
      </trkpt>
      <trkpt lat="46.57575" lon="-1.83884">
        <ele>-70</ele>
        <time>2018-05-04T13:05:20Z</time>
      </trkpt>
      <trkpt lat="46.57572" lon="-1.83891">
        <ele>-70</ele>
        <time>2018-05-04T13:05:24Z</time>
      </trkpt>
      <trkpt lat="46.57569" lon="-1.83898">
        <ele>-69</ele>
        <time>2018-05-04T13:05:28Z</time>
      </trkpt>
      <trkpt lat="46.57566" lon="-1.83904">
        <ele>-68</ele>
        <time>2018-05-04T13:05:32Z</time>
      </trkpt>
      <trkpt lat="46.57563" lon="-1.83913">
        <ele>-67</ele>
        <time>2018-05-04T13:05:37Z</time>
      </trkpt>
      <trkpt lat="46.57562" lon="-1.83916">
        <ele>-67</ele>
        <time>2018-05-04T13:05:39Z</time>
      </trkpt>
      <trkpt lat="46.5756" lon="-1.83921">
        <ele>-66</ele>
        <time>2018-05-04T13:05:42Z</time>
      </trkpt>
      <trkpt lat="46.57558" lon="-1.83929">
        <ele>-66</ele>
        <time>2018-05-04T13:05:46Z</time>
      </trkpt>
      <trkpt lat="46.57557" lon="-1.83935">
        <ele>-65</ele>
        <time>2018-05-04T13:05:50Z</time>
      </trkpt>
      <trkpt lat="46.57557" lon="-1.83939">
        <ele>-65</ele>
        <time>2018-05-04T13:05:52Z</time>
      </trkpt>
      <trkpt lat="46.57555" lon="-1.83945">
        <ele>-64</ele>
        <time>2018-05-04T13:05:56Z</time>
      </trkpt>
      <trkpt lat="46.57555" lon="-1.83953">
        <ele>-63</ele>
        <time>2018-05-04T13:06:01Z</time>
      </trkpt>
      <trkpt lat="46.57556" lon="-1.83957">
        <ele>-63</ele>
        <time>2018-05-04T13:06:03Z</time>
      </trkpt>
      <trkpt lat="46.57556" lon="-1.83966">
        <ele>-62</ele>
        <time>2018-05-04T13:06:10Z</time>
      </trkpt>
      <trkpt lat="46.57556" lon="-1.8397">
        <ele>-62</ele>
        <time>2018-05-04T13:06:12Z</time>
      </trkpt>
      <trkpt lat="46.57556" lon="-1.83977">
        <ele>-61</ele>
        <time>2018-05-04T13:06:19Z</time>
      </trkpt>
      <trkpt lat="46.57556" lon="-1.83985">
        <ele>-59</ele>
        <time>2018-05-04T13:06:27Z</time>
      </trkpt>
      <trkpt lat="46.57556" lon="-1.83994">
        <ele>-57</ele>
        <time>2018-05-04T13:06:33Z</time>
      </trkpt>
      <trkpt lat="46.57556" lon="-1.83998">
        <ele>-56</ele>
        <time>2018-05-04T13:06:35Z</time>
      </trkpt>
      <trkpt lat="46.57556" lon="-1.84003">
        <ele>-55</ele>
        <time>2018-05-04T13:06:38Z</time>
      </trkpt>
      <trkpt lat="46.57554" lon="-1.84009">
        <ele>-54</ele>
        <time>2018-05-04T13:06:43Z</time>
      </trkpt>
      <trkpt lat="46.57555" lon="-1.84016">
        <ele>-52</ele>
        <time>2018-05-04T13:06:49Z</time>
      </trkpt>
      <trkpt lat="46.57555" lon="-1.84023">
        <ele>-50</ele>
        <time>2018-05-04T13:06:54Z</time>
      </trkpt>
      <trkpt lat="46.57555" lon="-1.84027">
        <ele>-48</ele>
        <time>2018-05-04T13:06:57Z</time>
      </trkpt>
      <trkpt lat="46.57555" lon="-1.84033">
        <ele>-47</ele>
        <time>2018-05-04T13:07:02Z</time>
      </trkpt>
      <trkpt lat="46.57554" lon="-1.84037">
        <ele>-47</ele>
        <time>2018-05-04T13:07:04Z</time>
      </trkpt>
      <trkpt lat="46.57554" lon="-1.84043">
        <ele>-47</ele>
        <time>2018-05-04T13:07:08Z</time>
      </trkpt>
      <trkpt lat="46.57554" lon="-1.84049">
        <ele>-45</ele>
        <time>2018-05-04T13:07:12Z</time>
      </trkpt>
      <trkpt lat="46.57554" lon="-1.84052">
        <ele>-44</ele>
        <time>2018-05-04T13:07:15Z</time>
      </trkpt>
      <trkpt lat="46.57553" lon="-1.84054">
        <ele>-43</ele>
        <time>2018-05-04T13:07:24Z</time>
      </trkpt>
      <trkpt lat="46.57552" lon="-1.84061">
        <ele>-41</ele>
        <time>2018-05-04T13:07:34Z</time>
      </trkpt>
      <trkpt lat="46.5755" lon="-1.8407">
        <ele>-39</ele>
        <time>2018-05-04T13:07:40Z</time>
      </trkpt>
      <trkpt lat="46.57549" lon="-1.84073">
        <ele>-38</ele>
        <time>2018-05-04T13:07:42Z</time>
      </trkpt>
      <trkpt lat="46.57548" lon="-1.84078">
        <ele>-37</ele>
        <time>2018-05-04T13:07:45Z</time>
      </trkpt>
      <trkpt lat="46.57546" lon="-1.84087">
        <ele>-36</ele>
        <time>2018-05-04T13:07:52Z</time>
      </trkpt>
      <trkpt lat="46.57545" lon="-1.84092">
        <ele>-36</ele>
        <time>2018-05-04T13:07:56Z</time>
      </trkpt>
      <trkpt lat="46.57544" lon="-1.84096">
        <ele>-36</ele>
        <time>2018-05-04T13:07:58Z</time>
      </trkpt>
      <trkpt lat="46.57542" lon="-1.84102">
        <ele>-35</ele>
        <time>2018-05-04T13:08:02Z</time>
      </trkpt>
      <trkpt lat="46.57539" lon="-1.84108">
        <ele>-34</ele>
        <time>2018-05-04T13:08:06Z</time>
      </trkpt>
      <trkpt lat="46.57537" lon="-1.84111">
        <ele>-33</ele>
        <time>2018-05-04T13:08:08Z</time>
      </trkpt>
      <trkpt lat="46.57535" lon="-1.84114">
        <ele>-32</ele>
        <time>2018-05-04T13:08:10Z</time>
      </trkpt>
      <trkpt lat="46.57532" lon="-1.84118">
        <ele>-32</ele>
        <time>2018-05-04T13:08:13Z</time>
      </trkpt>
      <trkpt lat="46.57531" lon="-1.84121">
        <ele>-31</ele>
        <time>2018-05-04T13:08:15Z</time>
      </trkpt>
      <trkpt lat="46.57529" lon="-1.84124">
        <ele>-31</ele>
        <time>2018-05-04T13:08:17Z</time>
      </trkpt>
      <trkpt lat="46.57527" lon="-1.84126">
        <ele>-31</ele>
        <time>2018-05-04T13:08:19Z</time>
      </trkpt>
      <trkpt lat="46.57525" lon="-1.8413">
        <ele>-30</ele>
        <time>2018-05-04T13:08:22Z</time>
      </trkpt>
      <trkpt lat="46.57521" lon="-1.84134">
        <ele>-27</ele>
        <time>2018-05-04T13:08:27Z</time>
      </trkpt>
      <trkpt lat="46.57517" lon="-1.8414">
        <ele>-25</ele>
        <time>2018-05-04T13:08:34Z</time>
      </trkpt>
      <trkpt lat="46.57513" lon="-1.84143">
        <ele>-23</ele>
        <time>2018-05-04T13:08:39Z</time>
      </trkpt>
      <trkpt lat="46.5751" lon="-1.84146">
        <ele>-21</ele>
        <time>2018-05-04T13:08:43Z</time>
      </trkpt>
      <trkpt lat="46.57505" lon="-1.84149">
        <ele>-20</ele>
        <time>2018-05-04T13:08:48Z</time>
      </trkpt>
      <trkpt lat="46.57503" lon="-1.84151">
        <ele>-19</ele>
        <time>2018-05-04T13:08:51Z</time>
      </trkpt>
      <trkpt lat="46.57497" lon="-1.84155">
        <ele>-17</ele>
        <time>2018-05-04T13:08:57Z</time>
      </trkpt>
      <trkpt lat="46.57494" lon="-1.84157">
        <ele>-17</ele>
        <time>2018-05-04T13:09:00Z</time>
      </trkpt>
      <trkpt lat="46.57492" lon="-1.84158">
        <ele>-16</ele>
        <time>2018-05-04T13:09:02Z</time>
      </trkpt>
      <trkpt lat="46.5749" lon="-1.8416">
        <ele>-16</ele>
        <time>2018-05-04T13:09:04Z</time>
      </trkpt>
      <trkpt lat="46.57485" lon="-1.84163">
        <ele>-15</ele>
        <time>2018-05-04T13:09:08Z</time>
      </trkpt>
      <trkpt lat="46.57481" lon="-1.84168">
        <ele>-14</ele>
        <time>2018-05-04T13:09:13Z</time>
      </trkpt>
      <trkpt lat="46.57477" lon="-1.8417">
        <ele>-11</ele>
        <time>2018-05-04T13:09:20Z</time>
      </trkpt>
      <trkpt lat="46.57473" lon="-1.84176">
        <ele>-8</ele>
        <time>2018-05-04T13:09:27Z</time>
      </trkpt>
      <trkpt lat="46.57468" lon="-1.84177">
        <ele>-5</ele>
        <time>2018-05-04T13:09:36Z</time>
      </trkpt>
      <trkpt lat="46.57464" lon="-1.8418">
        <ele>5.3</ele>
        <time>2018-05-04T13:10:03Z</time>
      </trkpt>
      <trkpt lat="46.5746" lon="-1.84186">
        <ele>3</ele>
        <time>2018-05-04T13:10:12Z</time>
      </trkpt>
      <trkpt lat="46.57457" lon="-1.84192">
        <ele>4</ele>
        <time>2018-05-04T13:10:17Z</time>
      </trkpt>
      <trkpt lat="46.57455" lon="-1.84199">
        <ele>5</ele>
        <time>2018-05-04T13:10:22Z</time>
      </trkpt>
      <trkpt lat="46.57454" lon="-1.84204">
        <ele>6</ele>
        <time>2018-05-04T13:10:25Z</time>
      </trkpt>
      <trkpt lat="46.57453" lon="-1.84209">
        <ele>8</ele>
        <time>2018-05-04T13:10:30Z</time>
      </trkpt>
      <trkpt lat="46.57455" lon="-1.84216">
        <ele>9</ele>
        <time>2018-05-04T13:10:37Z</time>
      </trkpt>
      <trkpt lat="46.57455" lon="-1.84223">
        <ele>12</ele>
        <time>2018-05-04T13:10:43Z</time>
      </trkpt>
      <trkpt lat="46.57454" lon="-1.84229">
        <ele>13</ele>
        <time>2018-05-04T13:10:49Z</time>
      </trkpt>
      <trkpt lat="46.57453" lon="-1.84233">
        <ele>14</ele>
        <time>2018-05-04T13:10:52Z</time>
      </trkpt>
      <trkpt lat="46.57452" lon="-1.84239">
        <ele>15</ele>
        <time>2018-05-04T13:10:56Z</time>
      </trkpt>
      <trkpt lat="46.57449" lon="-1.84245">
        <ele>17</ele>
        <time>2018-05-04T13:11:02Z</time>
      </trkpt>
      <trkpt lat="46.57447" lon="-1.84248">
        <ele>18</ele>
        <time>2018-05-04T13:11:04Z</time>
      </trkpt>
      <trkpt lat="46.57445" lon="-1.84254">
        <ele>19</ele>
        <time>2018-05-04T13:11:08Z</time>
      </trkpt>
      <trkpt lat="46.57444" lon="-1.84257">
        <ele>19</ele>
        <time>2018-05-04T13:11:10Z</time>
      </trkpt>
      <trkpt lat="46.5744" lon="-1.84262">
        <ele>20</ele>
        <time>2018-05-04T13:11:14Z</time>
      </trkpt>
      <trkpt lat="46.57439" lon="-1.84265">
        <ele>20</ele>
        <time>2018-05-04T13:11:16Z</time>
      </trkpt>
      <trkpt lat="46.57436" lon="-1.84271">
        <ele>22</ele>
        <time>2018-05-04T13:11:20Z</time>
      </trkpt>
      <trkpt lat="46.57432" lon="-1.84277">
        <ele>24</ele>
        <time>2018-05-04T13:11:26Z</time>
      </trkpt>
      <trkpt lat="46.5743" lon="-1.8428">
        <ele>25</ele>
        <time>2018-05-04T13:11:27Z</time>
      </trkpt>
      <trkpt lat="46.57428" lon="-1.84286">
        <ele>27</ele>
        <time>2018-05-04T13:11:31Z</time>
      </trkpt>
      <trkpt lat="46.57426" lon="-1.84292">
        <ele>33</ele>
        <time>2018-05-04T13:11:41Z</time>
      </trkpt>
      <trkpt lat="46.57423" lon="-1.84297">
        <ele>37</ele>
        <time>2018-05-04T13:11:50Z</time>
      </trkpt>
      <trkpt lat="46.57419" lon="-1.843">
        <ele>39</ele>
        <time>2018-05-04T13:11:56Z</time>
      </trkpt>
      <trkpt lat="46.57414" lon="-1.84301">
        <ele>40</ele>
        <time>2018-05-04T13:12:01Z</time>
      </trkpt>
      <trkpt lat="46.57409" lon="-1.843">
        <ele>40</ele>
        <time>2018-05-04T13:12:06Z</time>
      </trkpt>
      <trkpt lat="46.57406" lon="-1.843">
        <ele>41</ele>
        <time>2018-05-04T13:12:09Z</time>
      </trkpt>
      <trkpt lat="46.57402" lon="-1.84298">
        <ele>41</ele>
        <time>2018-05-04T13:12:15Z</time>
      </trkpt>
      <trkpt lat="46.57397" lon="-1.84295">
        <ele>42</ele>
        <time>2018-05-04T13:12:19Z</time>
      </trkpt>
      <trkpt lat="46.57393" lon="-1.84293">
        <ele>42</ele>
        <time>2018-05-04T13:12:24Z</time>
      </trkpt>
      <trkpt lat="46.57391" lon="-1.84292">
        <ele>42</ele>
        <time>2018-05-04T13:12:27Z</time>
      </trkpt>
      <trkpt lat="46.57388" lon="-1.8429">
        <ele>42</ele>
        <time>2018-05-04T13:12:29Z</time>
      </trkpt>
      <trkpt lat="46.57386" lon="-1.84289">
        <ele>43</ele>
        <time>2018-05-04T13:12:31Z</time>
      </trkpt>
      <trkpt lat="46.57381" lon="-1.84288">
        <ele>42</ele>
        <time>2018-05-04T13:12:36Z</time>
      </trkpt>
      <trkpt lat="46.57377" lon="-1.84284">
        <ele>42</ele>
        <time>2018-05-04T13:12:41Z</time>
      </trkpt>
      <trkpt lat="46.57374" lon="-1.84282">
        <ele>42</ele>
        <time>2018-05-04T13:12:44Z</time>
      </trkpt>
      <trkpt lat="46.5737" lon="-1.8428">
        <ele>42</ele>
        <time>2018-05-04T13:12:48Z</time>
      </trkpt>
      <trkpt lat="46.57368" lon="-1.84278">
        <ele>42</ele>
        <time>2018-05-04T13:12:50Z</time>
      </trkpt>
      <trkpt lat="46.57363" lon="-1.84276">
        <ele>42</ele>
        <time>2018-05-04T13:12:54Z</time>
      </trkpt>
      <trkpt lat="46.5736" lon="-1.84275">
        <ele>42</ele>
        <time>2018-05-04T13:12:57Z</time>
      </trkpt>
      <trkpt lat="46.57358" lon="-1.84274">
        <ele>42</ele>
        <time>2018-05-04T13:13:00Z</time>
      </trkpt>
      <trkpt lat="46.57355" lon="-1.84272">
        <ele>42</ele>
        <time>2018-05-04T13:13:03Z</time>
      </trkpt>
      <trkpt lat="46.57353" lon="-1.84271">
        <ele>43</ele>
        <time>2018-05-04T13:13:06Z</time>
      </trkpt>
      <trkpt lat="46.5735" lon="-1.84269">
        <ele>43</ele>
        <time>2018-05-04T13:13:09Z</time>
      </trkpt>
      <trkpt lat="46.57348" lon="-1.84268">
        <ele>42</ele>
        <time>2018-05-04T13:13:12Z</time>
      </trkpt>
      <trkpt lat="46.57345" lon="-1.84266">
        <ele>42</ele>
        <time>2018-05-04T13:13:15Z</time>
      </trkpt>
      <trkpt lat="46.57341" lon="-1.84264">
        <ele>43</ele>
        <time>2018-05-04T13:13:19Z</time>
      </trkpt>
      <trkpt lat="46.57338" lon="-1.84262">
        <ele>43</ele>
        <time>2018-05-04T13:13:22Z</time>
      </trkpt>
      <trkpt lat="46.57336" lon="-1.8426">
        <ele>43</ele>
        <time>2018-05-04T13:13:25Z</time>
      </trkpt>
      <trkpt lat="46.57333" lon="-1.84258">
        <ele>43</ele>
        <time>2018-05-04T13:13:28Z</time>
      </trkpt>
      <trkpt lat="46.5733" lon="-1.84257">
        <ele>44</ele>
        <time>2018-05-04T13:13:31Z</time>
      </trkpt>
      <trkpt lat="46.57328" lon="-1.84256">
        <ele>44</ele>
        <time>2018-05-04T13:13:33Z</time>
      </trkpt>
      <trkpt lat="46.57323" lon="-1.84252">
        <ele>44</ele>
        <time>2018-05-04T13:13:38Z</time>
      </trkpt>
      <trkpt lat="46.57321" lon="-1.8425">
        <ele>44</ele>
        <time>2018-05-04T13:13:40Z</time>
      </trkpt>
      <trkpt lat="46.57318" lon="-1.84248">
        <ele>44</ele>
        <time>2018-05-04T13:13:43Z</time>
      </trkpt>
      <trkpt lat="46.57315" lon="-1.84246">
        <ele>45</ele>
        <time>2018-05-04T13:13:46Z</time>
      </trkpt>
      <trkpt lat="46.57312" lon="-1.84245">
        <ele>45</ele>
        <time>2018-05-04T13:13:48Z</time>
      </trkpt>
      <trkpt lat="46.5731" lon="-1.84243">
        <ele>46</ele>
        <time>2018-05-04T13:13:51Z</time>
      </trkpt>
      <trkpt lat="46.57307" lon="-1.84241">
        <ele>45</ele>
        <time>2018-05-04T13:13:54Z</time>
      </trkpt>
      <trkpt lat="46.57305" lon="-1.84239">
        <ele>46</ele>
        <time>2018-05-04T13:13:56Z</time>
      </trkpt>
      <trkpt lat="46.57303" lon="-1.84237">
        <ele>45</ele>
        <time>2018-05-04T13:13:59Z</time>
      </trkpt>
      <trkpt lat="46.573" lon="-1.84235">
        <ele>45</ele>
        <time>2018-05-04T13:14:02Z</time>
      </trkpt>
      <trkpt lat="46.57298" lon="-1.84234">
        <ele>45</ele>
        <time>2018-05-04T13:14:04Z</time>
      </trkpt>
      <trkpt lat="46.57293" lon="-1.8423">
        <ele>45</ele>
        <time>2018-05-04T13:14:10Z</time>
      </trkpt>
      <trkpt lat="46.57291" lon="-1.84228">
        <ele>45</ele>
        <time>2018-05-04T13:14:12Z</time>
      </trkpt>
      <trkpt lat="46.57289" lon="-1.84227">
        <ele>44</ele>
        <time>2018-05-04T13:14:14Z</time>
      </trkpt>
      <trkpt lat="46.57287" lon="-1.84225">
        <ele>44</ele>
        <time>2018-05-04T13:14:16Z</time>
      </trkpt>
      <trkpt lat="46.57283" lon="-1.84222">
        <ele>45</ele>
        <time>2018-05-04T13:14:20Z</time>
      </trkpt>
      <trkpt lat="46.57279" lon="-1.8422">
        <ele>44</ele>
        <time>2018-05-04T13:14:24Z</time>
      </trkpt>
      <trkpt lat="46.57274" lon="-1.84217">
        <ele>46</ele>
        <time>2018-05-04T13:14:28Z</time>
      </trkpt>
      <trkpt lat="46.57272" lon="-1.84216">
        <ele>46</ele>
        <time>2018-05-04T13:14:30Z</time>
      </trkpt>
      <trkpt lat="46.5727" lon="-1.84215">
        <ele>46</ele>
        <time>2018-05-04T13:14:32Z</time>
      </trkpt>
      <trkpt lat="46.57266" lon="-1.84213">
        <ele>46</ele>
        <time>2018-05-04T13:14:37Z</time>
      </trkpt>
      <trkpt lat="46.57261" lon="-1.8421">
        <ele>46</ele>
        <time>2018-05-04T13:14:45Z</time>
      </trkpt>
      <trkpt lat="46.57258" lon="-1.84208">
        <ele>46</ele>
        <time>2018-05-04T13:14:48Z</time>
      </trkpt>
      <trkpt lat="46.57253" lon="-1.84204">
        <ele>46</ele>
        <time>2018-05-04T13:14:53Z</time>
      </trkpt>
      <trkpt lat="46.57249" lon="-1.84202">
        <ele>46</ele>
        <time>2018-05-04T13:14:58Z</time>
      </trkpt>
      <trkpt lat="46.57245" lon="-1.84198">
        <ele>47</ele>
        <time>2018-05-04T13:15:03Z</time>
      </trkpt>
      <trkpt lat="46.57242" lon="-1.84194">
        <ele>48</ele>
        <time>2018-05-04T13:15:07Z</time>
      </trkpt>
      <trkpt lat="46.57237" lon="-1.8419">
        <ele>47</ele>
        <time>2018-05-04T13:15:13Z</time>
      </trkpt>
      <trkpt lat="46.57235" lon="-1.84188">
        <ele>47</ele>
        <time>2018-05-04T13:15:15Z</time>
      </trkpt>
      <trkpt lat="46.57233" lon="-1.84187">
        <ele>47</ele>
        <time>2018-05-04T13:15:18Z</time>
      </trkpt>
      <trkpt lat="46.57228" lon="-1.84184">
        <ele>47</ele>
        <time>2018-05-04T13:15:23Z</time>
      </trkpt>
      <trkpt lat="46.57226" lon="-1.84183">
        <ele>47</ele>
        <time>2018-05-04T13:15:26Z</time>
      </trkpt>
      <trkpt lat="46.57223" lon="-1.84182">
        <ele>47</ele>
        <time>2018-05-04T13:15:28Z</time>
      </trkpt>
      <trkpt lat="46.57221" lon="-1.84181">
        <ele>47</ele>
        <time>2018-05-04T13:15:30Z</time>
      </trkpt>
      <trkpt lat="46.57218" lon="-1.84179">
        <ele>46</ele>
        <time>2018-05-04T13:15:32Z</time>
      </trkpt>
      <trkpt lat="46.57215" lon="-1.84178">
        <ele>46</ele>
        <time>2018-05-04T13:15:35Z</time>
      </trkpt>
      <trkpt lat="46.57212" lon="-1.84176">
        <ele>46</ele>
        <time>2018-05-04T13:15:37Z</time>
      </trkpt>
      <trkpt lat="46.57209" lon="-1.84174">
        <ele>46</ele>
        <time>2018-05-04T13:15:40Z</time>
      </trkpt>
      <trkpt lat="46.57204" lon="-1.84173">
        <ele>46</ele>
        <time>2018-05-04T13:15:45Z</time>
      </trkpt>
      <trkpt lat="46.572" lon="-1.84171">
        <ele>46</ele>
        <time>2018-05-04T13:15:49Z</time>
      </trkpt>
      <trkpt lat="46.57197" lon="-1.84169">
        <ele>47</ele>
        <time>2018-05-04T13:15:52Z</time>
      </trkpt>
      <trkpt lat="46.57194" lon="-1.84168">
        <ele>47</ele>
        <time>2018-05-04T13:15:55Z</time>
      </trkpt>
      <trkpt lat="46.57191" lon="-1.84166">
        <ele>47</ele>
        <time>2018-05-04T13:15:58Z</time>
      </trkpt>
      <trkpt lat="46.57188" lon="-1.84165">
        <ele>47</ele>
        <time>2018-05-04T13:16:01Z</time>
      </trkpt>
      <trkpt lat="46.57186" lon="-1.84164">
        <ele>48</ele>
        <time>2018-05-04T13:16:03Z</time>
      </trkpt>
      <trkpt lat="46.57183" lon="-1.84161">
        <ele>48</ele>
        <time>2018-05-04T13:16:07Z</time>
      </trkpt>
      <trkpt lat="46.57179" lon="-1.8416">
        <ele>47</ele>
        <time>2018-05-04T13:16:11Z</time>
      </trkpt>
      <trkpt lat="46.57176" lon="-1.84159">
        <ele>47</ele>
        <time>2018-05-04T13:16:14Z</time>
      </trkpt>
      <trkpt lat="46.57171" lon="-1.84158">
        <ele>47</ele>
        <time>2018-05-04T13:16:21Z</time>
      </trkpt>
      <trkpt lat="46.57169" lon="-1.84158">
        <ele>47</ele>
        <time>2018-05-04T13:16:23Z</time>
      </trkpt>
      <trkpt lat="46.57165" lon="-1.84157">
        <ele>48</ele>
        <time>2018-05-04T13:16:27Z</time>
      </trkpt>
      <trkpt lat="46.57161" lon="-1.84155">
        <ele>48</ele>
        <time>2018-05-04T13:16:31Z</time>
      </trkpt>
      <trkpt lat="46.57158" lon="-1.84153">
        <ele>47</ele>
        <time>2018-05-04T13:16:35Z</time>
      </trkpt>
      <trkpt lat="46.57152" lon="-1.8415">
        <ele>47</ele>
        <time>2018-05-04T13:16:40Z</time>
      </trkpt>
      <trkpt lat="46.5715" lon="-1.84149">
        <ele>47</ele>
        <time>2018-05-04T13:16:43Z</time>
      </trkpt>
      <trkpt lat="46.57147" lon="-1.84147">
        <ele>47</ele>
        <time>2018-05-04T13:16:46Z</time>
      </trkpt>
      <trkpt lat="46.57142" lon="-1.84144">
        <ele>46</ele>
        <time>2018-05-04T13:16:51Z</time>
      </trkpt>
      <trkpt lat="46.57137" lon="-1.84143">
        <ele>45</ele>
        <time>2018-05-04T13:16:55Z</time>
      </trkpt>
      <trkpt lat="46.57133" lon="-1.84139">
        <ele>46</ele>
        <time>2018-05-04T13:17:00Z</time>
      </trkpt>
      <trkpt lat="46.57128" lon="-1.84136">
        <ele>47</ele>
        <time>2018-05-04T13:17:04Z</time>
      </trkpt>
      <trkpt lat="46.57123" lon="-1.84131">
        <ele>47</ele>
        <time>2018-05-04T13:17:10Z</time>
      </trkpt>
      <trkpt lat="46.5712" lon="-1.84126">
        <ele>47</ele>
        <time>2018-05-04T13:17:15Z</time>
      </trkpt>
      <trkpt lat="46.57115" lon="-1.84123">
        <ele>47</ele>
        <time>2018-05-04T13:17:21Z</time>
      </trkpt>
      <trkpt lat="46.57113" lon="-1.84121">
        <ele>47</ele>
        <time>2018-05-04T13:17:24Z</time>
      </trkpt>
      <trkpt lat="46.5711" lon="-1.84119">
        <ele>47</ele>
        <time>2018-05-04T13:17:27Z</time>
      </trkpt>
      <trkpt lat="46.57108" lon="-1.84118">
        <ele>46</ele>
        <time>2018-05-04T13:17:29Z</time>
      </trkpt>
      <trkpt lat="46.57104" lon="-1.84116">
        <ele>46</ele>
        <time>2018-05-04T13:17:32Z</time>
      </trkpt>
      <trkpt lat="46.57102" lon="-1.84115">
        <ele>46</ele>
        <time>2018-05-04T13:17:35Z</time>
      </trkpt>
      <trkpt lat="46.57099" lon="-1.84113">
        <ele>46</ele>
        <time>2018-05-04T13:17:38Z</time>
      </trkpt>
      <trkpt lat="46.57094" lon="-1.84111">
        <ele>47</ele>
        <time>2018-05-04T13:17:44Z</time>
      </trkpt>
      <trkpt lat="46.57091" lon="-1.8411">
        <ele>47</ele>
        <time>2018-05-04T13:17:46Z</time>
      </trkpt>
      <trkpt lat="46.57088" lon="-1.84109">
        <ele>47</ele>
        <time>2018-05-04T13:17:49Z</time>
      </trkpt>
      <trkpt lat="46.57084" lon="-1.84107">
        <ele>46</ele>
        <time>2018-05-04T13:17:54Z</time>
      </trkpt>
      <trkpt lat="46.57081" lon="-1.84105">
        <ele>47</ele>
        <time>2018-05-04T13:17:59Z</time>
      </trkpt>
      <trkpt lat="46.57077" lon="-1.84103">
        <ele>47</ele>
        <time>2018-05-04T13:18:03Z</time>
      </trkpt>
      <trkpt lat="46.57072" lon="-1.84101">
        <ele>46</ele>
        <time>2018-05-04T13:18:08Z</time>
      </trkpt>
      <trkpt lat="46.57067" lon="-1.841">
        <ele>45</ele>
        <time>2018-05-04T13:18:12Z</time>
      </trkpt>
      <trkpt lat="46.57063" lon="-1.84097">
        <ele>46</ele>
        <time>2018-05-04T13:18:16Z</time>
      </trkpt>
      <trkpt lat="46.5706" lon="-1.84096">
        <ele>46</ele>
        <time>2018-05-04T13:18:19Z</time>
      </trkpt>
      <trkpt lat="46.57055" lon="-1.84095">
        <ele>46</ele>
        <time>2018-05-04T13:18:24Z</time>
      </trkpt>
      <trkpt lat="46.57052" lon="-1.84094">
        <ele>46</ele>
        <time>2018-05-04T13:18:26Z</time>
      </trkpt>
      <trkpt lat="46.57049" lon="-1.84093">
        <ele>46</ele>
        <time>2018-05-04T13:18:29Z</time>
      </trkpt>
      <trkpt lat="46.57046" lon="-1.84093">
        <ele>46</ele>
        <time>2018-05-04T13:18:32Z</time>
      </trkpt>
      <trkpt lat="46.57041" lon="-1.84091">
        <ele>46</ele>
        <time>2018-05-04T13:18:37Z</time>
      </trkpt>
      <trkpt lat="46.57038" lon="-1.84089">
        <ele>45</ele>
        <time>2018-05-04T13:18:40Z</time>
      </trkpt>
      <trkpt lat="46.57035" lon="-1.84088">
        <ele>45</ele>
        <time>2018-05-04T13:18:43Z</time>
      </trkpt>
      <trkpt lat="46.57033" lon="-1.84087">
        <ele>45</ele>
        <time>2018-05-04T13:18:45Z</time>
      </trkpt>
      <trkpt lat="46.57029" lon="-1.84086">
        <ele>45</ele>
        <time>2018-05-04T13:18:48Z</time>
      </trkpt>
      <trkpt lat="46.57027" lon="-1.84086">
        <ele>45</ele>
        <time>2018-05-04T13:18:50Z</time>
      </trkpt>
      <trkpt lat="46.57023" lon="-1.84085">
        <ele>46</ele>
        <time>2018-05-04T13:18:53Z</time>
      </trkpt>
      <trkpt lat="46.57021" lon="-1.84084">
        <ele>46</ele>
        <time>2018-05-04T13:18:55Z</time>
      </trkpt>
      <trkpt lat="46.57017" lon="-1.84083">
        <ele>46</ele>
        <time>2018-05-04T13:19:00Z</time>
      </trkpt>
      <trkpt lat="46.57015" lon="-1.84082">
        <ele>47</ele>
        <time>2018-05-04T13:19:03Z</time>
      </trkpt>
      <trkpt lat="46.5701" lon="-1.84081">
        <ele>46</ele>
        <time>2018-05-04T13:19:08Z</time>
      </trkpt>
      <trkpt lat="46.57007" lon="-1.8408">
        <ele>47</ele>
        <time>2018-05-04T13:19:11Z</time>
      </trkpt>
      <trkpt lat="46.57004" lon="-1.84079">
        <ele>47</ele>
        <time>2018-05-04T13:19:15Z</time>
      </trkpt>
      <trkpt lat="46.57001" lon="-1.84078">
        <ele>46</ele>
        <time>2018-05-04T13:19:18Z</time>
      </trkpt>
      <trkpt lat="46.56996" lon="-1.84075">
        <ele>46</ele>
        <time>2018-05-04T13:19:24Z</time>
      </trkpt>
      <trkpt lat="46.56994" lon="-1.84074">
        <ele>46</ele>
        <time>2018-05-04T13:19:26Z</time>
      </trkpt>
      <trkpt lat="46.56991" lon="-1.84073">
        <ele>46</ele>
        <time>2018-05-04T13:19:29Z</time>
      </trkpt>
      <trkpt lat="46.56988" lon="-1.84072">
        <ele>45</ele>
        <time>2018-05-04T13:19:33Z</time>
      </trkpt>
      <trkpt lat="46.56988" lon="-1.84072">
        <ele>45</ele>
        <time>2018-05-04T13:19:42Z</time>
      </trkpt>
      <trkpt lat="46.56985" lon="-1.8407">
        <ele>45</ele>
        <time>2018-05-04T13:19:47Z</time>
      </trkpt>
      <trkpt lat="46.56981" lon="-1.84068">
        <ele>44</ele>
        <time>2018-05-04T13:19:51Z</time>
      </trkpt>
      <trkpt lat="46.56978" lon="-1.84067">
        <ele>44</ele>
        <time>2018-05-04T13:19:53Z</time>
      </trkpt>
      <trkpt lat="46.56972" lon="-1.84062">
        <ele>45</ele>
        <time>2018-05-04T13:19:58Z</time>
      </trkpt>
      <trkpt lat="46.56968" lon="-1.8406">
        <ele>44</ele>
        <time>2018-05-04T13:20:01Z</time>
      </trkpt>
      <trkpt lat="46.56965" lon="-1.84059">
        <ele>44</ele>
        <time>2018-05-04T13:20:03Z</time>
      </trkpt>
      <trkpt lat="46.56961" lon="-1.84056">
        <ele>45</ele>
        <time>2018-05-04T13:20:06Z</time>
      </trkpt>
      <trkpt lat="46.56959" lon="-1.84055">
        <ele>45</ele>
        <time>2018-05-04T13:20:08Z</time>
      </trkpt>
      <trkpt lat="46.56955" lon="-1.84054">
        <ele>44</ele>
        <time>2018-05-04T13:20:11Z</time>
      </trkpt>
      <trkpt lat="46.5695" lon="-1.84053">
        <ele>44</ele>
        <time>2018-05-04T13:20:15Z</time>
      </trkpt>
      <trkpt lat="46.56946" lon="-1.84051">
        <ele>45</ele>
        <time>2018-05-04T13:20:19Z</time>
      </trkpt>
      <trkpt lat="46.56943" lon="-1.84049">
        <ele>45</ele>
        <time>2018-05-04T13:20:21Z</time>
      </trkpt>
      <trkpt lat="46.5694" lon="-1.84048">
        <ele>44</ele>
        <time>2018-05-04T13:20:24Z</time>
      </trkpt>
      <trkpt lat="46.56937" lon="-1.84047">
        <ele>44</ele>
        <time>2018-05-04T13:20:28Z</time>
      </trkpt>
      <trkpt lat="46.56933" lon="-1.84046">
        <ele>44</ele>
        <time>2018-05-04T13:20:31Z</time>
      </trkpt>
      <trkpt lat="46.56927" lon="-1.84043">
        <ele>43</ele>
        <time>2018-05-04T13:20:37Z</time>
      </trkpt>
      <trkpt lat="46.56925" lon="-1.84042">
        <ele>43</ele>
        <time>2018-05-04T13:20:39Z</time>
      </trkpt>
      <trkpt lat="46.56922" lon="-1.84041">
        <ele>42</ele>
        <time>2018-05-04T13:20:42Z</time>
      </trkpt>
      <trkpt lat="46.56917" lon="-1.8404">
        <ele>42</ele>
        <time>2018-05-04T13:20:46Z</time>
      </trkpt>
      <trkpt lat="46.56912" lon="-1.84037">
        <ele>42</ele>
        <time>2018-05-04T13:20:50Z</time>
      </trkpt>
      <trkpt lat="46.56907" lon="-1.84035">
        <ele>43</ele>
        <time>2018-05-04T13:20:54Z</time>
      </trkpt>
      <trkpt lat="46.56905" lon="-1.84034">
        <ele>44</ele>
        <time>2018-05-04T13:20:55Z</time>
      </trkpt>
      <trkpt lat="46.56902" lon="-1.84032">
        <ele>43</ele>
        <time>2018-05-04T13:20:59Z</time>
      </trkpt>
      <trkpt lat="46.56899" lon="-1.84032">
        <ele>43</ele>
        <time>2018-05-04T13:21:01Z</time>
      </trkpt>
      <trkpt lat="46.56896" lon="-1.8403">
        <ele>44</ele>
        <time>2018-05-04T13:21:03Z</time>
      </trkpt>
      <trkpt lat="46.56893" lon="-1.84029">
        <ele>44</ele>
        <time>2018-05-04T13:21:05Z</time>
      </trkpt>
      <trkpt lat="46.56888" lon="-1.84027">
        <ele>44</ele>
        <time>2018-05-04T13:21:09Z</time>
      </trkpt>
      <trkpt lat="46.56883" lon="-1.84026">
        <ele>45</ele>
        <time>2018-05-04T13:21:13Z</time>
      </trkpt>
      <trkpt lat="46.5688" lon="-1.84025">
        <ele>46</ele>
        <time>2018-05-04T13:21:15Z</time>
      </trkpt>
      <trkpt lat="46.56873" lon="-1.84021">
        <ele>46</ele>
        <time>2018-05-04T13:21:20Z</time>
      </trkpt>
      <trkpt lat="46.56868" lon="-1.8402">
        <ele>47</ele>
        <time>2018-05-04T13:21:24Z</time>
      </trkpt>
      <trkpt lat="46.56866" lon="-1.8402">
        <ele>47</ele>
        <time>2018-05-04T13:21:26Z</time>
      </trkpt>
      <trkpt lat="46.56861" lon="-1.84019">
        <ele>46</ele>
        <time>2018-05-04T13:21:29Z</time>
      </trkpt>
      <trkpt lat="46.56857" lon="-1.84017">
        <ele>46</ele>
        <time>2018-05-04T13:21:33Z</time>
      </trkpt>
      <trkpt lat="46.56853" lon="-1.84015">
        <ele>46</ele>
        <time>2018-05-04T13:21:36Z</time>
      </trkpt>
      <trkpt lat="46.56848" lon="-1.84013">
        <ele>46</ele>
        <time>2018-05-04T13:21:40Z</time>
      </trkpt>
      <trkpt lat="46.56846" lon="-1.84012">
        <ele>46</ele>
        <time>2018-05-04T13:21:42Z</time>
      </trkpt>
      <trkpt lat="46.56841" lon="-1.84011">
        <ele>47</ele>
        <time>2018-05-04T13:21:46Z</time>
      </trkpt>
      <trkpt lat="46.56836" lon="-1.8401">
        <ele>47</ele>
        <time>2018-05-04T13:21:52Z</time>
      </trkpt>
      <trkpt lat="46.56832" lon="-1.84008">
        <ele>47</ele>
        <time>2018-05-04T13:21:56Z</time>
      </trkpt>
      <trkpt lat="46.5683" lon="-1.84007">
        <ele>47</ele>
        <time>2018-05-04T13:21:58Z</time>
      </trkpt>
      <trkpt lat="46.56827" lon="-1.84006">
        <ele>48</ele>
        <time>2018-05-04T13:22:00Z</time>
      </trkpt>
      <trkpt lat="46.56825" lon="-1.84005">
        <ele>48</ele>
        <time>2018-05-04T13:22:02Z</time>
      </trkpt>
      <trkpt lat="46.56822" lon="-1.84004">
        <ele>48</ele>
        <time>2018-05-04T13:22:05Z</time>
      </trkpt>
      <trkpt lat="46.56818" lon="-1.84002">
        <ele>48</ele>
        <time>2018-05-04T13:22:08Z</time>
      </trkpt>
      <trkpt lat="46.56816" lon="-1.84001">
        <ele>48</ele>
        <time>2018-05-04T13:22:10Z</time>
      </trkpt>
      <trkpt lat="46.5681" lon="-1.84">
        <ele>48</ele>
        <time>2018-05-04T13:22:15Z</time>
      </trkpt>
      <trkpt lat="46.56807" lon="-1.83999">
        <ele>48</ele>
        <time>2018-05-04T13:22:18Z</time>
      </trkpt>
      <trkpt lat="46.56802" lon="-1.83998">
        <ele>48</ele>
        <time>2018-05-04T13:22:22Z</time>
      </trkpt>
      <trkpt lat="46.56798" lon="-1.83997">
        <ele>49</ele>
        <time>2018-05-04T13:22:26Z</time>
      </trkpt>
      <trkpt lat="46.56793" lon="-1.83996">
        <ele>49</ele>
        <time>2018-05-04T13:22:30Z</time>
      </trkpt>
      <trkpt lat="46.56788" lon="-1.83994">
        <ele>49</ele>
        <time>2018-05-04T13:22:35Z</time>
      </trkpt>
      <trkpt lat="46.56785" lon="-1.83993">
        <ele>48</ele>
        <time>2018-05-04T13:22:38Z</time>
      </trkpt>
      <trkpt lat="46.56782" lon="-1.83992">
        <ele>49</ele>
        <time>2018-05-04T13:22:40Z</time>
      </trkpt>
      <trkpt lat="46.56778" lon="-1.8399">
        <ele>48</ele>
        <time>2018-05-04T13:22:44Z</time>
      </trkpt>
      <trkpt lat="46.56773" lon="-1.83988">
        <ele>49</ele>
        <time>2018-05-04T13:22:48Z</time>
      </trkpt>
      <trkpt lat="46.5677" lon="-1.83987">
        <ele>49</ele>
        <time>2018-05-04T13:22:51Z</time>
      </trkpt>
      <trkpt lat="46.56767" lon="-1.83985">
        <ele>49</ele>
        <time>2018-05-04T13:22:54Z</time>
      </trkpt>
      <trkpt lat="46.56763" lon="-1.83983">
        <ele>48</ele>
        <time>2018-05-04T13:23:01Z</time>
      </trkpt>
      <trkpt lat="46.56761" lon="-1.83981">
        <ele>48</ele>
        <time>2018-05-04T13:23:04Z</time>
      </trkpt>
      <trkpt lat="46.56758" lon="-1.8398">
        <ele>48</ele>
        <time>2018-05-04T13:23:07Z</time>
      </trkpt>
      <trkpt lat="46.56753" lon="-1.83977">
        <ele>46</ele>
        <time>2018-05-04T13:23:13Z</time>
      </trkpt>
      <trkpt lat="46.56748" lon="-1.83976">
        <ele>47</ele>
        <time>2018-05-04T13:23:19Z</time>
      </trkpt>
      <trkpt lat="46.56745" lon="-1.83976">
        <ele>46</ele>
        <time>2018-05-04T13:23:22Z</time>
      </trkpt>
      <trkpt lat="46.5674" lon="-1.83974">
        <ele>46</ele>
        <time>2018-05-04T13:23:28Z</time>
      </trkpt>
      <trkpt lat="46.56736" lon="-1.83972">
        <ele>45</ele>
        <time>2018-05-04T13:23:33Z</time>
      </trkpt>
      <trkpt lat="46.56732" lon="-1.83971">
        <ele>45</ele>
        <time>2018-05-04T13:23:37Z</time>
      </trkpt>
      <trkpt lat="46.56727" lon="-1.8397">
        <ele>44</ele>
        <time>2018-05-04T13:23:41Z</time>
      </trkpt>
      <trkpt lat="46.56725" lon="-1.83969">
        <ele>44</ele>
        <time>2018-05-04T13:23:43Z</time>
      </trkpt>
      <trkpt lat="46.56721" lon="-1.83968">
        <ele>44</ele>
        <time>2018-05-04T13:23:46Z</time>
      </trkpt>
      <trkpt lat="46.56717" lon="-1.83967">
        <ele>44</ele>
        <time>2018-05-04T13:23:49Z</time>
      </trkpt>
      <trkpt lat="46.56714" lon="-1.83966">
        <ele>44</ele>
        <time>2018-05-04T13:23:53Z</time>
      </trkpt>
      <trkpt lat="46.56711" lon="-1.83965">
        <ele>43</ele>
        <time>2018-05-04T13:23:56Z</time>
      </trkpt>
      <trkpt lat="46.56705" lon="-1.83965">
        <ele>44</ele>
        <time>2018-05-04T13:24:02Z</time>
      </trkpt>
      <trkpt lat="46.56701" lon="-1.83963">
        <ele>44</ele>
        <time>2018-05-04T13:24:06Z</time>
      </trkpt>
      <trkpt lat="46.56698" lon="-1.83962">
        <ele>43</ele>
        <time>2018-05-04T13:24:08Z</time>
      </trkpt>
      <trkpt lat="46.56694" lon="-1.8396">
        <ele>44</ele>
        <time>2018-05-04T13:24:12Z</time>
      </trkpt>
      <trkpt lat="46.56691" lon="-1.83959">
        <ele>44</ele>
        <time>2018-05-04T13:24:15Z</time>
      </trkpt>
      <trkpt lat="46.56686" lon="-1.83957">
        <ele>45</ele>
        <time>2018-05-04T13:24:19Z</time>
      </trkpt>
      <trkpt lat="46.56684" lon="-1.83955">
        <ele>45</ele>
        <time>2018-05-04T13:24:21Z</time>
      </trkpt>
      <trkpt lat="46.56681" lon="-1.83953">
        <ele>45</ele>
        <time>2018-05-04T13:24:24Z</time>
      </trkpt>
      <trkpt lat="46.56679" lon="-1.83952">
        <ele>45</ele>
        <time>2018-05-04T13:24:27Z</time>
      </trkpt>
      <trkpt lat="46.56673" lon="-1.83949">
        <ele>45</ele>
        <time>2018-05-04T13:24:33Z</time>
      </trkpt>
      <trkpt lat="46.5667" lon="-1.83947">
        <ele>46</ele>
        <time>2018-05-04T13:24:36Z</time>
      </trkpt>
      <trkpt lat="46.56666" lon="-1.83943">
        <ele>47</ele>
        <time>2018-05-04T13:24:41Z</time>
      </trkpt>
      <trkpt lat="46.56662" lon="-1.8394">
        <ele>47</ele>
        <time>2018-05-04T13:24:45Z</time>
      </trkpt>
      <trkpt lat="46.56659" lon="-1.83939">
        <ele>46</ele>
        <time>2018-05-04T13:24:48Z</time>
      </trkpt>
      <trkpt lat="46.56655" lon="-1.83935">
        <ele>45</ele>
        <time>2018-05-04T13:24:54Z</time>
      </trkpt>
      <trkpt lat="46.56652" lon="-1.83933">
        <ele>46</ele>
        <time>2018-05-04T13:24:57Z</time>
      </trkpt>
      <trkpt lat="46.56648" lon="-1.83929">
        <ele>46</ele>
        <time>2018-05-04T13:25:03Z</time>
      </trkpt>
      <trkpt lat="46.56646" lon="-1.83927">
        <ele>46</ele>
        <time>2018-05-04T13:25:06Z</time>
      </trkpt>
      <trkpt lat="46.56641" lon="-1.83925">
        <ele>45</ele>
        <time>2018-05-04T13:25:11Z</time>
      </trkpt>
      <trkpt lat="46.56641" lon="-1.83925">
        <ele>45</ele>
        <time>2018-05-04T13:25:19Z</time>
      </trkpt>
      <trkpt lat="46.56641" lon="-1.83925">
        <ele>45</ele>
        <time>2018-05-04T13:25:20Z</time>
      </trkpt>
      <trkpt lat="46.56635" lon="-1.83922">
        <ele>47</ele>
        <time>2018-05-04T13:25:38Z</time>
      </trkpt>
      <trkpt lat="46.56633" lon="-1.83921">
        <ele>47</ele>
        <time>2018-05-04T13:25:44Z</time>
      </trkpt>
      <trkpt lat="46.56628" lon="-1.83917">
        <ele>46</ele>
        <time>2018-05-04T13:25:52Z</time>
      </trkpt>
      <trkpt lat="46.56625" lon="-1.83913">
        <ele>47</ele>
        <time>2018-05-04T13:25:59Z</time>
      </trkpt>
      <trkpt lat="46.56622" lon="-1.83911">
        <ele>48</ele>
        <time>2018-05-04T13:26:13Z</time>
      </trkpt>
      <trkpt lat="46.56619" lon="-1.83907">
        <ele>48</ele>
        <time>2018-05-04T13:26:18Z</time>
      </trkpt>
      <trkpt lat="46.56616" lon="-1.83904">
        <ele>49</ele>
        <time>2018-05-04T13:26:21Z</time>
      </trkpt>
      <trkpt lat="46.56613" lon="-1.83899">
        <ele>49</ele>
        <time>2018-05-04T13:26:26Z</time>
      </trkpt>
      <trkpt lat="46.56609" lon="-1.83895">
        <ele>50</ele>
        <time>2018-05-04T13:26:36Z</time>
      </trkpt>
      <trkpt lat="46.56607" lon="-1.83893">
        <ele>49</ele>
        <time>2018-05-04T13:26:38Z</time>
      </trkpt>
      <trkpt lat="46.56603" lon="-1.83889">
        <ele>50</ele>
        <time>2018-05-04T13:26:43Z</time>
      </trkpt>
      <trkpt lat="46.56598" lon="-1.83886">
        <ele>51</ele>
        <time>2018-05-04T13:26:51Z</time>
      </trkpt>
      <trkpt lat="46.56596" lon="-1.83884">
        <ele>51</ele>
        <time>2018-05-04T13:26:56Z</time>
      </trkpt>
      <trkpt lat="46.56591" lon="-1.8388">
        <ele>53</ele>
        <time>2018-05-04T13:27:02Z</time>
      </trkpt>
      <trkpt lat="46.56587" lon="-1.83876">
        <ele>55</ele>
        <time>2018-05-04T13:27:10Z</time>
      </trkpt>
      <trkpt lat="46.56585" lon="-1.83874">
        <ele>56</ele>
        <time>2018-05-04T13:27:13Z</time>
      </trkpt>
      <trkpt lat="46.5658" lon="-1.83869">
        <ele>57</ele>
        <time>2018-05-04T13:27:20Z</time>
      </trkpt>
      <trkpt lat="46.56576" lon="-1.83864">
        <ele>58</ele>
        <time>2018-05-04T13:27:29Z</time>
      </trkpt>
      <trkpt lat="46.56572" lon="-1.8386">
        <ele>58</ele>
        <time>2018-05-04T13:27:36Z</time>
      </trkpt>
      <trkpt lat="46.56572" lon="-1.83853">
        <ele>60</ele>
        <time>2018-05-04T13:28:09Z</time>
      </trkpt>
      <trkpt lat="46.56576" lon="-1.83846">
        <ele>60</ele>
        <time>2018-05-04T13:28:19Z</time>
      </trkpt>
      <trkpt lat="46.56578" lon="-1.83843">
        <ele>60</ele>
        <time>2018-05-04T13:28:23Z</time>
      </trkpt>
      <trkpt lat="46.56583" lon="-1.83839">
        <ele>58</ele>
        <time>2018-05-04T13:28:30Z</time>
      </trkpt>
      <trkpt lat="46.56586" lon="-1.83834">
        <ele>57</ele>
        <time>2018-05-04T13:28:40Z</time>
      </trkpt>
      <trkpt lat="46.56588" lon="-1.83831">
        <ele>56</ele>
        <time>2018-05-04T13:28:46Z</time>
      </trkpt>
      <trkpt lat="46.56588" lon="-1.83831">
        <ele>56</ele>
        <time>2018-05-04T13:31:28Z</time>
      </trkpt>
      <trkpt lat="46.56596" lon="-1.83819">
        <ele>56</ele>
        <time>2018-05-04T13:31:32Z</time>
      </trkpt>
      <trkpt lat="46.56596" lon="-1.8381">
        <ele>55</ele>
        <time>2018-05-04T13:31:42Z</time>
      </trkpt>
      <trkpt lat="46.56596" lon="-1.83806">
        <ele>55</ele>
        <time>2018-05-04T13:31:44Z</time>
      </trkpt>
      <trkpt lat="46.56595" lon="-1.83799">
        <ele>56</ele>
        <time>2018-05-04T13:31:49Z</time>
      </trkpt>
      <trkpt lat="46.56596" lon="-1.83789">
        <ele>56</ele>
        <time>2018-05-04T13:31:55Z</time>
      </trkpt>
      <trkpt lat="46.56597" lon="-1.83782">
        <ele>56</ele>
        <time>2018-05-04T13:32:00Z</time>
      </trkpt>
      <trkpt lat="46.56599" lon="-1.83775">
        <ele>56</ele>
        <time>2018-05-04T13:32:06Z</time>
      </trkpt>
      <trkpt lat="46.566" lon="-1.83768">
        <ele>56</ele>
        <time>2018-05-04T13:32:11Z</time>
      </trkpt>
      <trkpt lat="46.56602" lon="-1.83761">
        <ele>56</ele>
        <time>2018-05-04T13:32:15Z</time>
      </trkpt>
      <trkpt lat="46.56603" lon="-1.83757">
        <ele>56</ele>
        <time>2018-05-04T13:32:18Z</time>
      </trkpt>
      <trkpt lat="46.56604" lon="-1.83751">
        <ele>57</ele>
        <time>2018-05-04T13:32:23Z</time>
      </trkpt>
      <trkpt lat="46.56608" lon="-1.83745">
        <ele>57</ele>
        <time>2018-05-04T13:32:31Z</time>
      </trkpt>
      <trkpt lat="46.56609" lon="-1.83738">
        <ele>56</ele>
        <time>2018-05-04T13:32:37Z</time>
      </trkpt>
      <trkpt lat="46.56609" lon="-1.83733">
        <ele>57</ele>
        <time>2018-05-04T13:32:41Z</time>
      </trkpt>
      <trkpt lat="46.5661" lon="-1.83729">
        <ele>56</ele>
        <time>2018-05-04T13:32:45Z</time>
      </trkpt>
      <trkpt lat="46.56612" lon="-1.83722">
        <ele>55</ele>
        <time>2018-05-04T13:32:51Z</time>
      </trkpt>
      <trkpt lat="46.56613" lon="-1.83717">
        <ele>54</ele>
        <time>2018-05-04T13:32:55Z</time>
      </trkpt>
      <trkpt lat="46.56614" lon="-1.83713">
        <ele>54</ele>
        <time>2018-05-04T13:32:58Z</time>
      </trkpt>
      <trkpt lat="46.56615" lon="-1.83709">
        <ele>54</ele>
        <time>2018-05-04T13:33:01Z</time>
      </trkpt>
      <trkpt lat="46.56617" lon="-1.83704">
        <ele>54</ele>
        <time>2018-05-04T13:33:04Z</time>
      </trkpt>
      <trkpt lat="46.56618" lon="-1.83697">
        <ele>54</ele>
        <time>2018-05-04T13:33:09Z</time>
      </trkpt>
      <trkpt lat="46.56619" lon="-1.83692">
        <ele>54</ele>
        <time>2018-05-04T13:33:12Z</time>
      </trkpt>
      <trkpt lat="46.5662" lon="-1.83688">
        <ele>54</ele>
        <time>2018-05-04T13:33:15Z</time>
      </trkpt>
      <trkpt lat="46.56621" lon="-1.83684">
        <ele>54</ele>
        <time>2018-05-04T13:33:17Z</time>
      </trkpt>
      <trkpt lat="46.56623" lon="-1.83677">
        <ele>54</ele>
        <time>2018-05-04T13:33:22Z</time>
      </trkpt>
      <trkpt lat="46.56625" lon="-1.8367">
        <ele>53</ele>
        <time>2018-05-04T13:33:27Z</time>
      </trkpt>
      <trkpt lat="46.56626" lon="-1.83663">
        <ele>54</ele>
        <time>2018-05-04T13:33:32Z</time>
      </trkpt>
      <trkpt lat="46.56628" lon="-1.83657">
        <ele>53</ele>
        <time>2018-05-04T13:33:36Z</time>
      </trkpt>
      <trkpt lat="46.56629" lon="-1.83653">
        <ele>53</ele>
        <time>2018-05-04T13:33:39Z</time>
      </trkpt>
      <trkpt lat="46.5663" lon="-1.8365">
        <ele>53</ele>
        <time>2018-05-04T13:33:41Z</time>
      </trkpt>
      <trkpt lat="46.56632" lon="-1.83645">
        <ele>53</ele>
        <time>2018-05-04T13:33:44Z</time>
      </trkpt>
      <trkpt lat="46.56634" lon="-1.83638">
        <ele>53</ele>
        <time>2018-05-04T13:33:49Z</time>
      </trkpt>
      <trkpt lat="46.56638" lon="-1.83631">
        <ele>52</ele>
        <time>2018-05-04T13:33:55Z</time>
      </trkpt>
      <trkpt lat="46.5664" lon="-1.83618">
        <ele>51</ele>
        <time>2018-05-04T13:34:02Z</time>
      </trkpt>
      <trkpt lat="46.56643" lon="-1.83612">
        <ele>51</ele>
        <time>2018-05-04T13:34:07Z</time>
      </trkpt>
      <trkpt lat="46.56645" lon="-1.83605">
        <ele>51</ele>
        <time>2018-05-04T13:34:11Z</time>
      </trkpt>
      <trkpt lat="46.56646" lon="-1.83597">
        <ele>52</ele>
        <time>2018-05-04T13:34:16Z</time>
      </trkpt>
      <trkpt lat="46.56645" lon="-1.8359">
        <ele>52</ele>
        <time>2018-05-04T13:34:20Z</time>
      </trkpt>
      <trkpt lat="46.56644" lon="-1.83584">
        <ele>52</ele>
        <time>2018-05-04T13:34:24Z</time>
      </trkpt>
      <trkpt lat="46.56645" lon="-1.83577">
        <ele>51</ele>
        <time>2018-05-04T13:34:29Z</time>
      </trkpt>
      <trkpt lat="46.56644" lon="-1.83569">
        <ele>51</ele>
        <time>2018-05-04T13:34:33Z</time>
      </trkpt>
      <trkpt lat="46.56644" lon="-1.83562">
        <ele>52</ele>
        <time>2018-05-04T13:34:37Z</time>
      </trkpt>
      <trkpt lat="46.56644" lon="-1.83556">
        <ele>52</ele>
        <time>2018-05-04T13:34:42Z</time>
      </trkpt>
      <trkpt lat="46.56643" lon="-1.83546">
        <ele>53</ele>
        <time>2018-05-04T13:34:48Z</time>
      </trkpt>
      <trkpt lat="46.56641" lon="-1.83539">
        <ele>54</ele>
        <time>2018-05-04T13:34:54Z</time>
      </trkpt>
      <trkpt lat="46.5664" lon="-1.83535">
        <ele>54</ele>
        <time>2018-05-04T13:34:57Z</time>
      </trkpt>
      <trkpt lat="46.56639" lon="-1.83532">
        <ele>54</ele>
        <time>2018-05-04T13:34:59Z</time>
      </trkpt>
      <trkpt lat="46.56639" lon="-1.83524">
        <ele>54</ele>
        <time>2018-05-04T13:35:08Z</time>
      </trkpt>
      <trkpt lat="46.56639" lon="-1.83516">
        <ele>53</ele>
        <time>2018-05-04T13:35:12Z</time>
      </trkpt>
      <trkpt lat="46.56638" lon="-1.83511">
        <ele>52</ele>
        <time>2018-05-04T13:35:15Z</time>
      </trkpt>
      <trkpt lat="46.56637" lon="-1.83501">
        <ele>54</ele>
        <time>2018-05-04T13:35:24Z</time>
      </trkpt>
      <trkpt lat="46.56636" lon="-1.83495">
        <ele>54</ele>
        <time>2018-05-04T13:35:27Z</time>
      </trkpt>
      <trkpt lat="46.56631" lon="-1.83488">
        <ele>54</ele>
        <time>2018-05-04T13:35:33Z</time>
      </trkpt>
      <trkpt lat="46.56629" lon="-1.83481">
        <ele>53</ele>
        <time>2018-05-04T13:35:39Z</time>
      </trkpt>
      <trkpt lat="46.56629" lon="-1.83472">
        <ele>53</ele>
        <time>2018-05-04T13:35:44Z</time>
      </trkpt>
      <trkpt lat="46.56626" lon="-1.83463">
        <ele>54</ele>
        <time>2018-05-04T13:35:49Z</time>
      </trkpt>
      <trkpt lat="46.56625" lon="-1.83458">
        <ele>54</ele>
        <time>2018-05-04T13:35:52Z</time>
      </trkpt>
      <trkpt lat="46.56624" lon="-1.83454">
        <ele>54</ele>
        <time>2018-05-04T13:35:54Z</time>
      </trkpt>
      <trkpt lat="46.56622" lon="-1.83449">
        <ele>54</ele>
        <time>2018-05-04T13:35:57Z</time>
      </trkpt>
      <trkpt lat="46.56619" lon="-1.83444">
        <ele>55</ele>
        <time>2018-05-04T13:36:01Z</time>
      </trkpt>
      <trkpt lat="46.56617" lon="-1.83437">
        <ele>56</ele>
        <time>2018-05-04T13:36:08Z</time>
      </trkpt>
      <trkpt lat="46.56616" lon="-1.83433">
        <ele>56</ele>
        <time>2018-05-04T13:36:11Z</time>
      </trkpt>
      <trkpt lat="46.56613" lon="-1.83427">
        <ele>55</ele>
        <time>2018-05-04T13:36:15Z</time>
      </trkpt>
      <trkpt lat="46.56611" lon="-1.8342">
        <ele>55</ele>
        <time>2018-05-04T13:36:20Z</time>
      </trkpt>
      <trkpt lat="46.56607" lon="-1.83414">
        <ele>55</ele>
        <time>2018-05-04T13:36:26Z</time>
      </trkpt>
      <trkpt lat="46.56606" lon="-1.83408">
        <ele>53</ele>
        <time>2018-05-04T13:36:30Z</time>
      </trkpt>
      <trkpt lat="46.56606" lon="-1.83395">
        <ele>53</ele>
        <time>2018-05-04T13:36:39Z</time>
      </trkpt>
      <trkpt lat="46.56605" lon="-1.83387">
        <ele>54</ele>
        <time>2018-05-04T13:36:44Z</time>
      </trkpt>
      <trkpt lat="46.56604" lon="-1.83381">
        <ele>54</ele>
        <time>2018-05-04T13:36:48Z</time>
      </trkpt>
      <trkpt lat="46.56603" lon="-1.83377">
        <ele>54</ele>
        <time>2018-05-04T13:36:50Z</time>
      </trkpt>
      <trkpt lat="46.56603" lon="-1.8337">
        <ele>54</ele>
        <time>2018-05-04T13:36:53Z</time>
      </trkpt>
      <trkpt lat="46.56603" lon="-1.83363">
        <ele>55</ele>
        <time>2018-05-04T13:36:57Z</time>
      </trkpt>
      <trkpt lat="46.56601" lon="-1.83357">
        <ele>56</ele>
        <time>2018-05-04T13:37:00Z</time>
      </trkpt>
      <trkpt lat="46.566" lon="-1.83353">
        <ele>57</ele>
        <time>2018-05-04T13:37:02Z</time>
      </trkpt>
      <trkpt lat="46.56599" lon="-1.83346">
        <ele>57</ele>
        <time>2018-05-04T13:37:07Z</time>
      </trkpt>
      <trkpt lat="46.56599" lon="-1.83339">
        <ele>57</ele>
        <time>2018-05-04T13:37:12Z</time>
      </trkpt>
      <trkpt lat="46.56598" lon="-1.83333">
        <ele>57</ele>
        <time>2018-05-04T13:37:16Z</time>
      </trkpt>
      <trkpt lat="46.56599" lon="-1.83326">
        <ele>57</ele>
        <time>2018-05-04T13:37:20Z</time>
      </trkpt>
      <trkpt lat="46.56599" lon="-1.83319">
        <ele>56</ele>
        <time>2018-05-04T13:37:26Z</time>
      </trkpt>
      <trkpt lat="46.56599" lon="-1.83314">
        <ele>57</ele>
        <time>2018-05-04T13:37:30Z</time>
      </trkpt>
      <trkpt lat="46.56602" lon="-1.83305">
        <ele>56</ele>
        <time>2018-05-04T13:37:37Z</time>
      </trkpt>
      <trkpt lat="46.56603" lon="-1.83301">
        <ele>56</ele>
        <time>2018-05-04T13:37:39Z</time>
      </trkpt>
      <trkpt lat="46.56604" lon="-1.83294">
        <ele>56</ele>
        <time>2018-05-04T13:37:43Z</time>
      </trkpt>
      <trkpt lat="46.56605" lon="-1.83287">
        <ele>56</ele>
        <time>2018-05-04T13:37:48Z</time>
      </trkpt>
      <trkpt lat="46.56606" lon="-1.83281">
        <ele>56</ele>
        <time>2018-05-04T13:37:52Z</time>
      </trkpt>
      <trkpt lat="46.56608" lon="-1.83274">
        <ele>56</ele>
        <time>2018-05-04T13:37:57Z</time>
      </trkpt>
      <trkpt lat="46.56608" lon="-1.83265">
        <ele>56</ele>
        <time>2018-05-04T13:38:02Z</time>
      </trkpt>
      <trkpt lat="46.5661" lon="-1.83259">
        <ele>56</ele>
        <time>2018-05-04T13:38:07Z</time>
      </trkpt>
      <trkpt lat="46.5661" lon="-1.83252">
        <ele>56</ele>
        <time>2018-05-04T13:38:12Z</time>
      </trkpt>
      <trkpt lat="46.56612" lon="-1.83244">
        <ele>58</ele>
        <time>2018-05-04T13:38:16Z</time>
      </trkpt>
      <trkpt lat="46.56614" lon="-1.8324">
        <ele>58</ele>
        <time>2018-05-04T13:38:19Z</time>
      </trkpt>
      <trkpt lat="46.56616" lon="-1.83236">
        <ele>59</ele>
        <time>2018-05-04T13:38:22Z</time>
      </trkpt>
      <trkpt lat="46.56619" lon="-1.8323">
        <ele>59</ele>
        <time>2018-05-04T13:38:27Z</time>
      </trkpt>
      <trkpt lat="46.56621" lon="-1.83221">
        <ele>59</ele>
        <time>2018-05-04T13:38:33Z</time>
      </trkpt>
      <trkpt lat="46.56625" lon="-1.83218">
        <ele>59</ele>
        <time>2018-05-04T13:38:37Z</time>
      </trkpt>
      <trkpt lat="46.56628" lon="-1.83215">
        <ele>60</ele>
        <time>2018-05-04T13:38:40Z</time>
      </trkpt>
      <trkpt lat="46.56631" lon="-1.83208">
        <ele>59</ele>
        <time>2018-05-04T13:38:45Z</time>
      </trkpt>
      <trkpt lat="46.56632" lon="-1.83201">
        <ele>59</ele>
        <time>2018-05-04T13:38:49Z</time>
      </trkpt>
      <trkpt lat="46.56633" lon="-1.83197">
        <ele>59</ele>
        <time>2018-05-04T13:38:52Z</time>
      </trkpt>
      <trkpt lat="46.56633" lon="-1.83191">
        <ele>57</ele>
        <time>2018-05-04T13:39:00Z</time>
      </trkpt>
      <trkpt lat="46.56635" lon="-1.83183">
        <ele>57</ele>
        <time>2018-05-04T13:39:40Z</time>
      </trkpt>
      <trkpt lat="46.56637" lon="-1.83179">
        <ele>57</ele>
        <time>2018-05-04T13:39:44Z</time>
      </trkpt>
      <trkpt lat="46.56638" lon="-1.8317">
        <ele>57</ele>
        <time>2018-05-04T13:39:49Z</time>
      </trkpt>
      <trkpt lat="46.56639" lon="-1.83166">
        <ele>57</ele>
        <time>2018-05-04T13:39:51Z</time>
      </trkpt>
      <trkpt lat="46.56639" lon="-1.83157">
        <ele>56</ele>
        <time>2018-05-04T13:39:57Z</time>
      </trkpt>
      <trkpt lat="46.56639" lon="-1.83154">
        <ele>57</ele>
        <time>2018-05-04T13:39:59Z</time>
      </trkpt>
      <trkpt lat="46.56639" lon="-1.8315">
        <ele>57</ele>
        <time>2018-05-04T13:40:02Z</time>
      </trkpt>
      <trkpt lat="46.56639" lon="-1.83145">
        <ele>56</ele>
        <time>2018-05-04T13:40:05Z</time>
      </trkpt>
      <trkpt lat="46.56639" lon="-1.8314">
        <ele>56</ele>
        <time>2018-05-04T13:40:08Z</time>
      </trkpt>
      <trkpt lat="46.5664" lon="-1.83134">
        <ele>55</ele>
        <time>2018-05-04T13:40:12Z</time>
      </trkpt>
      <trkpt lat="46.5664" lon="-1.83127">
        <ele>55</ele>
        <time>2018-05-04T13:40:16Z</time>
      </trkpt>
      <trkpt lat="46.56641" lon="-1.83119">
        <ele>54</ele>
        <time>2018-05-04T13:40:21Z</time>
      </trkpt>
      <trkpt lat="46.56641" lon="-1.83112">
        <ele>54</ele>
        <time>2018-05-04T13:40:25Z</time>
      </trkpt>
      <trkpt lat="46.56641" lon="-1.83105">
        <ele>54</ele>
        <time>2018-05-04T13:40:29Z</time>
      </trkpt>
      <trkpt lat="46.56638" lon="-1.83098">
        <ele>54</ele>
        <time>2018-05-04T13:40:33Z</time>
      </trkpt>
      <trkpt lat="46.56638" lon="-1.8309">
        <ele>53</ele>
        <time>2018-05-04T13:40:37Z</time>
      </trkpt>
      <trkpt lat="46.56638" lon="-1.83087">
        <ele>53</ele>
        <time>2018-05-04T13:40:39Z</time>
      </trkpt>
      <trkpt lat="46.5664" lon="-1.83079">
        <ele>53</ele>
        <time>2018-05-04T13:40:44Z</time>
      </trkpt>
      <trkpt lat="46.56639" lon="-1.8307">
        <ele>53</ele>
        <time>2018-05-04T13:40:50Z</time>
      </trkpt>
      <trkpt lat="46.56639" lon="-1.83067">
        <ele>54</ele>
        <time>2018-05-04T13:40:52Z</time>
      </trkpt>
      <trkpt lat="46.56639" lon="-1.8306">
        <ele>54</ele>
        <time>2018-05-04T13:40:56Z</time>
      </trkpt>
      <trkpt lat="46.56639" lon="-1.83056">
        <ele>54</ele>
        <time>2018-05-04T13:40:58Z</time>
      </trkpt>
      <trkpt lat="46.5664" lon="-1.83048">
        <ele>55</ele>
        <time>2018-05-04T13:41:02Z</time>
      </trkpt>
      <trkpt lat="46.56641" lon="-1.83044">
        <ele>55</ele>
        <time>2018-05-04T13:41:05Z</time>
      </trkpt>
      <trkpt lat="46.56642" lon="-1.83037">
        <ele>55</ele>
        <time>2018-05-04T13:41:09Z</time>
      </trkpt>
      <trkpt lat="46.56642" lon="-1.83031">
        <ele>55</ele>
        <time>2018-05-04T13:41:13Z</time>
      </trkpt>
      <trkpt lat="46.56642" lon="-1.83027">
        <ele>55</ele>
        <time>2018-05-04T13:41:15Z</time>
      </trkpt>
      <trkpt lat="46.56642" lon="-1.83022">
        <ele>55</ele>
        <time>2018-05-04T13:41:18Z</time>
      </trkpt>
      <trkpt lat="46.56644" lon="-1.83013">
        <ele>54</ele>
        <time>2018-05-04T13:41:25Z</time>
      </trkpt>
      <trkpt lat="46.56645" lon="-1.83006">
        <ele>54</ele>
        <time>2018-05-04T13:41:29Z</time>
      </trkpt>
      <trkpt lat="46.56645" lon="-1.83003">
        <ele>54</ele>
        <time>2018-05-04T13:41:31Z</time>
      </trkpt>
      <trkpt lat="46.56645" lon="-1.82999">
        <ele>54</ele>
        <time>2018-05-04T13:41:33Z</time>
      </trkpt>
      <trkpt lat="46.56646" lon="-1.82992">
        <ele>54</ele>
        <time>2018-05-04T13:41:37Z</time>
      </trkpt>
      <trkpt lat="46.56646" lon="-1.82987">
        <ele>53</ele>
        <time>2018-05-04T13:41:40Z</time>
      </trkpt>
      <trkpt lat="46.56645" lon="-1.82979">
        <ele>53</ele>
        <time>2018-05-04T13:41:44Z</time>
      </trkpt>
      <trkpt lat="46.56646" lon="-1.82972">
        <ele>53</ele>
        <time>2018-05-04T13:41:48Z</time>
      </trkpt>
      <trkpt lat="46.56648" lon="-1.82965">
        <ele>53</ele>
        <time>2018-05-04T13:41:53Z</time>
      </trkpt>
      <trkpt lat="46.56649" lon="-1.8296">
        <ele>54</ele>
        <time>2018-05-04T13:41:57Z</time>
      </trkpt>
      <trkpt lat="46.5665" lon="-1.82957">
        <ele>55</ele>
        <time>2018-05-04T13:42:00Z</time>
      </trkpt>
      <trkpt lat="46.56652" lon="-1.82951">
        <ele>54</ele>
        <time>2018-05-04T13:42:05Z</time>
      </trkpt>
      <trkpt lat="46.56653" lon="-1.82944">
        <ele>54</ele>
        <time>2018-05-04T13:42:10Z</time>
      </trkpt>
      <trkpt lat="46.56653" lon="-1.82938">
        <ele>54</ele>
        <time>2018-05-04T13:42:13Z</time>
      </trkpt>
      <trkpt lat="46.56655" lon="-1.82932">
        <ele>54</ele>
        <time>2018-05-04T13:42:17Z</time>
      </trkpt>
      <trkpt lat="46.56656" lon="-1.82928">
        <ele>54</ele>
        <time>2018-05-04T13:42:19Z</time>
      </trkpt>
      <trkpt lat="46.56658" lon="-1.82923">
        <ele>53</ele>
        <time>2018-05-04T13:42:22Z</time>
      </trkpt>
      <trkpt lat="46.56658" lon="-1.82915">
        <ele>52</ele>
        <time>2018-05-04T13:42:27Z</time>
      </trkpt>
      <trkpt lat="46.56659" lon="-1.82908">
        <ele>51</ele>
        <time>2018-05-04T13:42:32Z</time>
      </trkpt>
      <trkpt lat="46.5666" lon="-1.82901">
        <ele>49</ele>
        <time>2018-05-04T13:42:36Z</time>
      </trkpt>
      <trkpt lat="46.56661" lon="-1.82896">
        <ele>50</ele>
        <time>2018-05-04T13:42:39Z</time>
      </trkpt>
      <trkpt lat="46.56661" lon="-1.82889">
        <ele>49</ele>
        <time>2018-05-04T13:42:44Z</time>
      </trkpt>
      <trkpt lat="46.56663" lon="-1.8288">
        <ele>50</ele>
        <time>2018-05-04T13:42:50Z</time>
      </trkpt>
      <trkpt lat="46.56667" lon="-1.82873">
        <ele>50</ele>
        <time>2018-05-04T13:42:55Z</time>
      </trkpt>
      <trkpt lat="46.5667" lon="-1.82865">
        <ele>50</ele>
        <time>2018-05-04T13:43:00Z</time>
      </trkpt>
      <trkpt lat="46.56669" lon="-1.82857">
        <ele>50</ele>
        <time>2018-05-04T13:43:04Z</time>
      </trkpt>
      <trkpt lat="46.5667" lon="-1.8285">
        <ele>49</ele>
        <time>2018-05-04T13:43:08Z</time>
      </trkpt>
      <trkpt lat="46.56669" lon="-1.82842">
        <ele>50</ele>
        <time>2018-05-04T13:43:12Z</time>
      </trkpt>
      <trkpt lat="46.56668" lon="-1.82836">
        <ele>50</ele>
        <time>2018-05-04T13:43:16Z</time>
      </trkpt>
      <trkpt lat="46.56667" lon="-1.82832">
        <ele>50</ele>
        <time>2018-05-04T13:43:18Z</time>
      </trkpt>
      <trkpt lat="46.56668" lon="-1.82824">
        <ele>50</ele>
        <time>2018-05-04T13:43:22Z</time>
      </trkpt>
      <trkpt lat="46.56668" lon="-1.82816">
        <ele>50</ele>
        <time>2018-05-04T13:43:27Z</time>
      </trkpt>
      <trkpt lat="46.56669" lon="-1.8281">
        <ele>50</ele>
        <time>2018-05-04T13:43:32Z</time>
      </trkpt>
      <trkpt lat="46.56668" lon="-1.82803">
        <ele>50</ele>
        <time>2018-05-04T13:43:37Z</time>
      </trkpt>
      <trkpt lat="46.56667" lon="-1.82798">
        <ele>51</ele>
        <time>2018-05-04T13:43:40Z</time>
      </trkpt>
      <trkpt lat="46.56667" lon="-1.8279">
        <ele>51</ele>
        <time>2018-05-04T13:43:45Z</time>
      </trkpt>
      <trkpt lat="46.56666" lon="-1.82784">
        <ele>52</ele>
        <time>2018-05-04T13:43:49Z</time>
      </trkpt>
      <trkpt lat="46.56665" lon="-1.82777">
        <ele>52</ele>
        <time>2018-05-04T13:43:53Z</time>
      </trkpt>
      <trkpt lat="46.56666" lon="-1.8277">
        <ele>52</ele>
        <time>2018-05-04T13:43:57Z</time>
      </trkpt>
      <trkpt lat="46.56667" lon="-1.82763">
        <ele>51</ele>
        <time>2018-05-04T13:44:01Z</time>
      </trkpt>
      <trkpt lat="46.56669" lon="-1.82753">
        <ele>51</ele>
        <time>2018-05-04T13:44:06Z</time>
      </trkpt>
      <trkpt lat="46.56668" lon="-1.82745">
        <ele>52</ele>
        <time>2018-05-04T13:44:11Z</time>
      </trkpt>
      <trkpt lat="46.56669" lon="-1.82737">
        <ele>52</ele>
        <time>2018-05-04T13:44:17Z</time>
      </trkpt>
      <trkpt lat="46.56671" lon="-1.8273">
        <ele>52</ele>
        <time>2018-05-04T13:44:21Z</time>
      </trkpt>
      <trkpt lat="46.56672" lon="-1.82721">
        <ele>52</ele>
        <time>2018-05-04T13:44:27Z</time>
      </trkpt>
      <trkpt lat="46.56673" lon="-1.82714">
        <ele>52</ele>
        <time>2018-05-04T13:44:32Z</time>
      </trkpt>
      <trkpt lat="46.56672" lon="-1.82707">
        <ele>52</ele>
        <time>2018-05-04T13:44:36Z</time>
      </trkpt>
      <trkpt lat="46.56672" lon="-1.827">
        <ele>52</ele>
        <time>2018-05-04T13:44:39Z</time>
      </trkpt>
      <trkpt lat="46.56672" lon="-1.82694">
        <ele>52</ele>
        <time>2018-05-04T13:44:43Z</time>
      </trkpt>
      <trkpt lat="46.56671" lon="-1.82687">
        <ele>52</ele>
        <time>2018-05-04T13:44:47Z</time>
      </trkpt>
      <trkpt lat="46.5667" lon="-1.82681">
        <ele>52</ele>
        <time>2018-05-04T13:44:50Z</time>
      </trkpt>
      <trkpt lat="46.5667" lon="-1.82673">
        <ele>52</ele>
        <time>2018-05-04T13:44:55Z</time>
      </trkpt>
      <trkpt lat="46.56671" lon="-1.82665">
        <ele>53</ele>
        <time>2018-05-04T13:45:00Z</time>
      </trkpt>
      <trkpt lat="46.56673" lon="-1.82658">
        <ele>53</ele>
        <time>2018-05-04T13:45:05Z</time>
      </trkpt>
      <trkpt lat="46.56675" lon="-1.82652">
        <ele>53</ele>
        <time>2018-05-04T13:45:09Z</time>
      </trkpt>
      <trkpt lat="46.56677" lon="-1.82645">
        <ele>52</ele>
        <time>2018-05-04T13:45:13Z</time>
      </trkpt>
      <trkpt lat="46.56681" lon="-1.8264">
        <ele>53</ele>
        <time>2018-05-04T13:45:18Z</time>
      </trkpt>
      <trkpt lat="46.56683" lon="-1.82633">
        <ele>53</ele>
        <time>2018-05-04T13:45:24Z</time>
      </trkpt>
      <trkpt lat="46.56685" lon="-1.82626">
        <ele>52</ele>
        <time>2018-05-04T13:45:29Z</time>
      </trkpt>
      <trkpt lat="46.56686" lon="-1.82619">
        <ele>53</ele>
        <time>2018-05-04T13:45:33Z</time>
      </trkpt>
      <trkpt lat="46.56688" lon="-1.82612">
        <ele>53</ele>
        <time>2018-05-04T13:45:37Z</time>
      </trkpt>
      <trkpt lat="46.56689" lon="-1.82606">
        <ele>53</ele>
        <time>2018-05-04T13:45:43Z</time>
      </trkpt>
      <trkpt lat="46.5669" lon="-1.826">
        <ele>53</ele>
        <time>2018-05-04T13:45:46Z</time>
      </trkpt>
      <trkpt lat="46.56693" lon="-1.82594">
        <ele>52</ele>
        <time>2018-05-04T13:45:50Z</time>
      </trkpt>
      <trkpt lat="46.56693" lon="-1.82587">
        <ele>52</ele>
        <time>2018-05-04T13:45:54Z</time>
      </trkpt>
      <trkpt lat="46.56694" lon="-1.82581">
        <ele>52</ele>
        <time>2018-05-04T13:45:58Z</time>
      </trkpt>
      <trkpt lat="46.56696" lon="-1.82574">
        <ele>52</ele>
        <time>2018-05-04T13:46:03Z</time>
      </trkpt>
      <trkpt lat="46.56696" lon="-1.8257">
        <ele>53</ele>
        <time>2018-05-04T13:46:05Z</time>
      </trkpt>
      <trkpt lat="46.56697" lon="-1.82567">
        <ele>52</ele>
        <time>2018-05-04T13:46:08Z</time>
      </trkpt>
      <trkpt lat="46.56697" lon="-1.82558">
        <ele>51</ele>
        <time>2018-05-04T13:46:14Z</time>
      </trkpt>
      <trkpt lat="46.56699" lon="-1.8255">
        <ele>51</ele>
        <time>2018-05-04T13:46:18Z</time>
      </trkpt>
      <trkpt lat="46.56698" lon="-1.82543">
        <ele>51</ele>
        <time>2018-05-04T13:46:22Z</time>
      </trkpt>
      <trkpt lat="46.56697" lon="-1.82539">
        <ele>52</ele>
        <time>2018-05-04T13:46:24Z</time>
      </trkpt>
      <trkpt lat="46.56696" lon="-1.82533">
        <ele>52</ele>
        <time>2018-05-04T13:46:28Z</time>
      </trkpt>
      <trkpt lat="46.56694" lon="-1.82526">
        <ele>52</ele>
        <time>2018-05-04T13:46:33Z</time>
      </trkpt>
      <trkpt lat="46.56695" lon="-1.82518">
        <ele>53</ele>
        <time>2018-05-04T13:46:37Z</time>
      </trkpt>
      <trkpt lat="46.56697" lon="-1.82511">
        <ele>52</ele>
        <time>2018-05-04T13:46:41Z</time>
      </trkpt>
      <trkpt lat="46.56699" lon="-1.82505">
        <ele>52</ele>
        <time>2018-05-04T13:46:45Z</time>
      </trkpt>
      <trkpt lat="46.567" lon="-1.82497">
        <ele>51</ele>
        <time>2018-05-04T13:46:50Z</time>
      </trkpt>
      <trkpt lat="46.567" lon="-1.82489">
        <ele>52</ele>
        <time>2018-05-04T13:46:56Z</time>
      </trkpt>
      <trkpt lat="46.56701" lon="-1.82485">
        <ele>53</ele>
        <time>2018-05-04T13:46:58Z</time>
      </trkpt>
      <trkpt lat="46.56701" lon="-1.82478">
        <ele>53</ele>
        <time>2018-05-04T13:47:02Z</time>
      </trkpt>
      <trkpt lat="46.56702" lon="-1.8247">
        <ele>53</ele>
        <time>2018-05-04T13:47:06Z</time>
      </trkpt>
      <trkpt lat="46.56702" lon="-1.82461">
        <ele>53</ele>
        <time>2018-05-04T13:47:11Z</time>
      </trkpt>
      <trkpt lat="46.56701" lon="-1.82453">
        <ele>54</ele>
        <time>2018-05-04T13:47:16Z</time>
      </trkpt>
      <trkpt lat="46.567" lon="-1.82446">
        <ele>53</ele>
        <time>2018-05-04T13:47:21Z</time>
      </trkpt>
      <trkpt lat="46.56701" lon="-1.8244">
        <ele>53</ele>
        <time>2018-05-04T13:47:26Z</time>
      </trkpt>
      <trkpt lat="46.56702" lon="-1.82433">
        <ele>52</ele>
        <time>2018-05-04T13:47:30Z</time>
      </trkpt>
      <trkpt lat="46.56703" lon="-1.82425">
        <ele>53</ele>
        <time>2018-05-04T13:47:35Z</time>
      </trkpt>
      <trkpt lat="46.56703" lon="-1.82417">
        <ele>52</ele>
        <time>2018-05-04T13:47:39Z</time>
      </trkpt>
      <trkpt lat="46.56702" lon="-1.8241">
        <ele>53</ele>
        <time>2018-05-04T13:47:44Z</time>
      </trkpt>
      <trkpt lat="46.56702" lon="-1.82403">
        <ele>53</ele>
        <time>2018-05-04T13:47:49Z</time>
      </trkpt>
      <trkpt lat="46.56702" lon="-1.82396">
        <ele>53</ele>
        <time>2018-05-04T13:47:54Z</time>
      </trkpt>
      <trkpt lat="46.56702" lon="-1.82392">
        <ele>52</ele>
        <time>2018-05-04T13:47:57Z</time>
      </trkpt>
      <trkpt lat="46.567" lon="-1.82383">
        <ele>52</ele>
        <time>2018-05-04T13:48:03Z</time>
      </trkpt>
      <trkpt lat="46.56699" lon="-1.8238">
        <ele>52</ele>
        <time>2018-05-04T13:48:06Z</time>
      </trkpt>
      <trkpt lat="46.56698" lon="-1.82373">
        <ele>53</ele>
        <time>2018-05-04T13:48:11Z</time>
      </trkpt>
      <trkpt lat="46.56696" lon="-1.82366">
        <ele>53</ele>
        <time>2018-05-04T13:48:15Z</time>
      </trkpt>
      <trkpt lat="46.56695" lon="-1.82363">
        <ele>52</ele>
        <time>2018-05-04T13:48:17Z</time>
      </trkpt>
      <trkpt lat="46.56693" lon="-1.82357">
        <ele>51</ele>
        <time>2018-05-04T13:48:20Z</time>
      </trkpt>
      <trkpt lat="46.56692" lon="-1.82351">
        <ele>51</ele>
        <time>2018-05-04T13:48:23Z</time>
      </trkpt>
      <trkpt lat="46.56691" lon="-1.82348">
        <ele>52</ele>
        <time>2018-05-04T13:48:25Z</time>
      </trkpt>
      <trkpt lat="46.5669" lon="-1.82344">
        <ele>52</ele>
        <time>2018-05-04T13:48:29Z</time>
      </trkpt>
      <trkpt lat="46.56689" lon="-1.82335">
        <ele>52</ele>
        <time>2018-05-04T13:48:34Z</time>
      </trkpt>
      <trkpt lat="46.56689" lon="-1.82332">
        <ele>52</ele>
        <time>2018-05-04T13:48:36Z</time>
      </trkpt>
      <trkpt lat="46.56687" lon="-1.82325">
        <ele>52</ele>
        <time>2018-05-04T13:48:41Z</time>
      </trkpt>
      <trkpt lat="46.56687" lon="-1.82319">
        <ele>52</ele>
        <time>2018-05-04T13:48:46Z</time>
      </trkpt>
      <trkpt lat="46.56686" lon="-1.82309">
        <ele>50</ele>
        <time>2018-05-04T13:48:52Z</time>
      </trkpt>
      <trkpt lat="46.56686" lon="-1.82301">
        <ele>50</ele>
        <time>2018-05-04T13:48:57Z</time>
      </trkpt>
      <trkpt lat="46.56682" lon="-1.82292">
        <ele>50</ele>
        <time>2018-05-04T13:49:02Z</time>
      </trkpt>
      <trkpt lat="46.56679" lon="-1.82286">
        <ele>50</ele>
        <time>2018-05-04T13:49:06Z</time>
      </trkpt>
      <trkpt lat="46.56678" lon="-1.82282">
        <ele>50</ele>
        <time>2018-05-04T13:49:09Z</time>
      </trkpt>
      <trkpt lat="46.56676" lon="-1.82278">
        <ele>49</ele>
        <time>2018-05-04T13:49:12Z</time>
      </trkpt>
      <trkpt lat="46.56676" lon="-1.82267">
        <ele>50</ele>
        <time>2018-05-04T13:49:18Z</time>
      </trkpt>
      <trkpt lat="46.56676" lon="-1.82258">
        <ele>49</ele>
        <time>2018-05-04T13:49:23Z</time>
      </trkpt>
      <trkpt lat="46.56676" lon="-1.82251">
        <ele>50</ele>
        <time>2018-05-04T13:49:27Z</time>
      </trkpt>
      <trkpt lat="46.56676" lon="-1.82246">
        <ele>50</ele>
        <time>2018-05-04T13:49:30Z</time>
      </trkpt>
      <trkpt lat="46.56674" lon="-1.82235">
        <ele>50</ele>
        <time>2018-05-04T13:49:36Z</time>
      </trkpt>
      <trkpt lat="46.56676" lon="-1.82227">
        <ele>50</ele>
        <time>2018-05-04T13:49:41Z</time>
      </trkpt>
      <trkpt lat="46.56676" lon="-1.82219">
        <ele>50</ele>
        <time>2018-05-04T13:49:46Z</time>
      </trkpt>
      <trkpt lat="46.56677" lon="-1.82214">
        <ele>50</ele>
        <time>2018-05-04T13:49:50Z</time>
      </trkpt>
      <trkpt lat="46.56679" lon="-1.82208">
        <ele>49</ele>
        <time>2018-05-04T13:49:54Z</time>
      </trkpt>
      <trkpt lat="46.56681" lon="-1.82201">
        <ele>49</ele>
        <time>2018-05-04T13:49:58Z</time>
      </trkpt>
      <trkpt lat="46.56681" lon="-1.82192">
        <ele>49</ele>
        <time>2018-05-04T13:50:05Z</time>
      </trkpt>
      <trkpt lat="46.56681" lon="-1.82185">
        <ele>49</ele>
        <time>2018-05-04T13:50:09Z</time>
      </trkpt>
      <trkpt lat="46.5668" lon="-1.82177">
        <ele>49</ele>
        <time>2018-05-04T13:50:13Z</time>
      </trkpt>
      <trkpt lat="46.56679" lon="-1.82173">
        <ele>49</ele>
        <time>2018-05-04T13:50:15Z</time>
      </trkpt>
      <trkpt lat="46.56678" lon="-1.82167">
        <ele>49</ele>
        <time>2018-05-04T13:50:18Z</time>
      </trkpt>
      <trkpt lat="46.56679" lon="-1.8216">
        <ele>49</ele>
        <time>2018-05-04T13:50:22Z</time>
      </trkpt>
      <trkpt lat="46.5668" lon="-1.82152">
        <ele>49</ele>
        <time>2018-05-04T13:50:27Z</time>
      </trkpt>
      <trkpt lat="46.56682" lon="-1.82146">
        <ele>49</ele>
        <time>2018-05-04T13:50:32Z</time>
      </trkpt>
      <trkpt lat="46.56686" lon="-1.8214">
        <ele>49</ele>
        <time>2018-05-04T13:50:37Z</time>
      </trkpt>
      <trkpt lat="46.56689" lon="-1.82133">
        <ele>50</ele>
        <time>2018-05-04T13:50:43Z</time>
      </trkpt>
      <trkpt lat="46.56692" lon="-1.82124">
        <ele>49</ele>
        <time>2018-05-04T13:50:49Z</time>
      </trkpt>
      <trkpt lat="46.56694" lon="-1.82118">
        <ele>49</ele>
        <time>2018-05-04T13:50:53Z</time>
      </trkpt>
      <trkpt lat="46.56696" lon="-1.82114">
        <ele>48</ele>
        <time>2018-05-04T13:50:57Z</time>
      </trkpt>
      <trkpt lat="46.567" lon="-1.82108">
        <ele>49</ele>
        <time>2018-05-04T13:51:02Z</time>
      </trkpt>
      <trkpt lat="46.56704" lon="-1.82102">
        <ele>48</ele>
        <time>2018-05-04T13:51:06Z</time>
      </trkpt>
      <trkpt lat="46.56703" lon="-1.82095">
        <ele>48</ele>
        <time>2018-05-04T13:51:11Z</time>
      </trkpt>
      <trkpt lat="46.56707" lon="-1.8209">
        <ele>48</ele>
        <time>2018-05-04T13:51:17Z</time>
      </trkpt>
      <trkpt lat="46.56711" lon="-1.82084">
        <ele>47</ele>
        <time>2018-05-04T13:51:23Z</time>
      </trkpt>
      <trkpt lat="46.56714" lon="-1.82077">
        <ele>47</ele>
        <time>2018-05-04T13:51:28Z</time>
      </trkpt>
      <trkpt lat="46.56719" lon="-1.8207">
        <ele>47</ele>
        <time>2018-05-04T13:51:33Z</time>
      </trkpt>
      <trkpt lat="46.56723" lon="-1.82063">
        <ele>46</ele>
        <time>2018-05-04T13:51:38Z</time>
      </trkpt>
      <trkpt lat="46.56724" lon="-1.8206">
        <ele>46</ele>
        <time>2018-05-04T13:51:40Z</time>
      </trkpt>
      <trkpt lat="46.56725" lon="-1.82051">
        <ele>46</ele>
        <time>2018-05-04T13:51:45Z</time>
      </trkpt>
      <trkpt lat="46.56728" lon="-1.82045">
        <ele>46</ele>
        <time>2018-05-04T13:51:49Z</time>
      </trkpt>
      <trkpt lat="46.5673" lon="-1.82039">
        <ele>46</ele>
        <time>2018-05-04T13:51:53Z</time>
      </trkpt>
      <trkpt lat="46.56732" lon="-1.82032">
        <ele>47</ele>
        <time>2018-05-04T13:51:57Z</time>
      </trkpt>
      <trkpt lat="46.56732" lon="-1.82025">
        <ele>46</ele>
        <time>2018-05-04T13:52:01Z</time>
      </trkpt>
      <trkpt lat="46.56735" lon="-1.82019">
        <ele>47</ele>
        <time>2018-05-04T13:52:04Z</time>
      </trkpt>
      <trkpt lat="46.56739" lon="-1.82016">
        <ele>47</ele>
        <time>2018-05-04T13:52:08Z</time>
      </trkpt>
      <trkpt lat="46.56742" lon="-1.82008">
        <ele>47</ele>
        <time>2018-05-04T13:52:13Z</time>
      </trkpt>
      <trkpt lat="46.56743" lon="-1.81999">
        <ele>46</ele>
        <time>2018-05-04T13:52:18Z</time>
      </trkpt>
      <trkpt lat="46.56742" lon="-1.81989">
        <ele>46</ele>
        <time>2018-05-04T13:52:26Z</time>
      </trkpt>
      <trkpt lat="46.56742" lon="-1.81984">
        <ele>46</ele>
        <time>2018-05-04T13:52:30Z</time>
      </trkpt>
      <trkpt lat="46.56739" lon="-1.81978">
        <ele>47</ele>
        <time>2018-05-04T13:52:34Z</time>
      </trkpt>
      <trkpt lat="46.5674" lon="-1.81971">
        <ele>47</ele>
        <time>2018-05-04T13:52:39Z</time>
      </trkpt>
      <trkpt lat="46.56741" lon="-1.81963">
        <ele>47</ele>
        <time>2018-05-04T13:52:46Z</time>
      </trkpt>
      <trkpt lat="46.56741" lon="-1.81963">
        <ele>47</ele>
        <time>2018-05-04T13:54:47Z</time>
      </trkpt>
      <trkpt lat="46.56757" lon="-1.81958">
        <ele>48</ele>
        <time>2018-05-04T13:55:10Z</time>
      </trkpt>
      <trkpt lat="46.56762" lon="-1.81961">
        <ele>47</ele>
        <time>2018-05-04T13:55:15Z</time>
      </trkpt>
      <trkpt lat="46.56766" lon="-1.81966">
        <ele>48</ele>
        <time>2018-05-04T13:55:26Z</time>
      </trkpt>
      <trkpt lat="46.5677" lon="-1.8197">
        <ele>47</ele>
        <time>2018-05-04T13:55:32Z</time>
      </trkpt>
      <trkpt lat="46.56774" lon="-1.81972">
        <ele>47</ele>
        <time>2018-05-04T13:55:35Z</time>
      </trkpt>
      <trkpt lat="46.56778" lon="-1.81977">
        <ele>47</ele>
        <time>2018-05-04T13:55:41Z</time>
      </trkpt>
      <trkpt lat="46.56784" lon="-1.81983">
        <ele>46</ele>
        <time>2018-05-04T13:55:47Z</time>
      </trkpt>
      <trkpt lat="46.56788" lon="-1.81986">
        <ele>46</ele>
        <time>2018-05-04T13:55:51Z</time>
      </trkpt>
      <trkpt lat="46.56794" lon="-1.81989">
        <ele>44</ele>
        <time>2018-05-04T13:55:55Z</time>
      </trkpt>
      <trkpt lat="46.56797" lon="-1.81994">
        <ele>44</ele>
        <time>2018-05-04T13:56:01Z</time>
      </trkpt>
      <trkpt lat="46.56802" lon="-1.81999">
        <ele>44</ele>
        <time>2018-05-04T13:56:06Z</time>
      </trkpt>
      <trkpt lat="46.56805" lon="-1.82003">
        <ele>43</ele>
        <time>2018-05-04T13:56:11Z</time>
      </trkpt>
      <trkpt lat="46.5681" lon="-1.82006">
        <ele>43</ele>
        <time>2018-05-04T13:56:17Z</time>
      </trkpt>
      <trkpt lat="46.56814" lon="-1.82009">
        <ele>43</ele>
        <time>2018-05-04T13:56:24Z</time>
      </trkpt>
      <trkpt lat="46.5682" lon="-1.82007">
        <ele>43</ele>
        <time>2018-05-04T13:56:32Z</time>
      </trkpt>
      <trkpt lat="46.56825" lon="-1.8201">
        <ele>43</ele>
        <time>2018-05-04T13:56:36Z</time>
      </trkpt>
      <trkpt lat="46.56831" lon="-1.82011">
        <ele>43</ele>
        <time>2018-05-04T13:56:40Z</time>
      </trkpt>
      <trkpt lat="46.56831" lon="-1.82011">
        <ele>43</ele>
        <time>2018-05-04T13:56:49Z</time>
      </trkpt>
      <trkpt lat="46.56831" lon="-1.82011">
        <ele>43</ele>
        <time>2018-05-04T13:56:50Z</time>
      </trkpt>
      <trkpt lat="46.56833" lon="-1.82005">
        <ele>43</ele>
        <time>2018-05-04T13:56:51Z</time>
      </trkpt>
      <trkpt lat="46.56835" lon="-1.82002">
        <ele>42</ele>
        <time>2018-05-04T13:56:53Z</time>
      </trkpt>
      <trkpt lat="46.56839" lon="-1.81996">
        <ele>41</ele>
        <time>2018-05-04T13:57:01Z</time>
      </trkpt>
      <trkpt lat="46.56841" lon="-1.81989">
        <ele>40</ele>
        <time>2018-05-04T13:57:08Z</time>
      </trkpt>
      <trkpt lat="46.56842" lon="-1.81984">
        <ele>39</ele>
        <time>2018-05-04T13:57:10Z</time>
      </trkpt>
      <trkpt lat="46.56843" lon="-1.81978">
        <ele>39</ele>
        <time>2018-05-04T13:57:14Z</time>
      </trkpt>
      <trkpt lat="46.56843" lon="-1.81971">
        <ele>39</ele>
        <time>2018-05-04T13:57:19Z</time>
      </trkpt>
      <trkpt lat="46.56843" lon="-1.81963">
        <ele>38</ele>
        <time>2018-05-04T13:57:23Z</time>
      </trkpt>
      <trkpt lat="46.56842" lon="-1.81957">
        <ele>37</ele>
        <time>2018-05-04T13:57:26Z</time>
      </trkpt>
      <trkpt lat="46.56842" lon="-1.81948">
        <ele>37</ele>
        <time>2018-05-04T13:57:31Z</time>
      </trkpt>
      <trkpt lat="46.56842" lon="-1.81938">
        <ele>37</ele>
        <time>2018-05-04T13:57:36Z</time>
      </trkpt>
      <trkpt lat="46.56841" lon="-1.81935">
        <ele>37</ele>
        <time>2018-05-04T13:57:38Z</time>
      </trkpt>
      <trkpt lat="46.56841" lon="-1.81931">
        <ele>37</ele>
        <time>2018-05-04T13:57:40Z</time>
      </trkpt>
      <trkpt lat="46.56842" lon="-1.81922">
        <ele>36</ele>
        <time>2018-05-04T13:57:46Z</time>
      </trkpt>
      <trkpt lat="46.56841" lon="-1.81915">
        <ele>37</ele>
        <time>2018-05-04T13:57:52Z</time>
      </trkpt>
      <trkpt lat="46.5684" lon="-1.81908">
        <ele>37</ele>
        <time>2018-05-04T13:57:57Z</time>
      </trkpt>
      <trkpt lat="46.56839" lon="-1.819">
        <ele>37</ele>
        <time>2018-05-04T13:58:02Z</time>
      </trkpt>
      <trkpt lat="46.56839" lon="-1.81891">
        <ele>37</ele>
        <time>2018-05-04T13:58:08Z</time>
      </trkpt>
      <trkpt lat="46.56838" lon="-1.81883">
        <ele>36</ele>
        <time>2018-05-04T13:58:14Z</time>
      </trkpt>
      <trkpt lat="46.56838" lon="-1.81879">
        <ele>36</ele>
        <time>2018-05-04T13:58:16Z</time>
      </trkpt>
      <trkpt lat="46.56837" lon="-1.81873">
        <ele>37</ele>
        <time>2018-05-04T13:58:20Z</time>
      </trkpt>
      <trkpt lat="46.56835" lon="-1.81866">
        <ele>37</ele>
        <time>2018-05-04T13:58:26Z</time>
      </trkpt>
      <trkpt lat="46.56832" lon="-1.8186">
        <ele>37</ele>
        <time>2018-05-04T13:58:29Z</time>
      </trkpt>
      <trkpt lat="46.5683" lon="-1.81853">
        <ele>37</ele>
        <time>2018-05-04T13:58:33Z</time>
      </trkpt>
      <trkpt lat="46.56829" lon="-1.81846">
        <ele>37</ele>
        <time>2018-05-04T13:58:39Z</time>
      </trkpt>
      <trkpt lat="46.56827" lon="-1.81839">
        <ele>37</ele>
        <time>2018-05-04T13:58:45Z</time>
      </trkpt>
      <trkpt lat="46.56826" lon="-1.81835">
        <ele>38</ele>
        <time>2018-05-04T13:58:48Z</time>
      </trkpt>
      <trkpt lat="46.56824" lon="-1.8183">
        <ele>39</ele>
        <time>2018-05-04T13:58:51Z</time>
      </trkpt>
      <trkpt lat="46.56821" lon="-1.81824">
        <ele>39</ele>
        <time>2018-05-04T13:58:56Z</time>
      </trkpt>
      <trkpt lat="46.56821" lon="-1.81824">
        <ele>39</ele>
        <time>2018-05-04T13:59:05Z</time>
      </trkpt>
      <trkpt lat="46.56821" lon="-1.81824">
        <ele>39</ele>
        <time>2018-05-04T13:59:06Z</time>
      </trkpt>
      <trkpt lat="46.56819" lon="-1.81812">
        <ele>38</ele>
        <time>2018-05-04T13:59:09Z</time>
      </trkpt>
      <trkpt lat="46.56819" lon="-1.81808">
        <ele>38</ele>
        <time>2018-05-04T13:59:11Z</time>
      </trkpt>
      <trkpt lat="46.56815" lon="-1.81803">
        <ele>38</ele>
        <time>2018-05-04T13:59:15Z</time>
      </trkpt>
      <trkpt lat="46.56813" lon="-1.818">
        <ele>37</ele>
        <time>2018-05-04T13:59:19Z</time>
      </trkpt>
      <trkpt lat="46.56811" lon="-1.81797">
        <ele>37</ele>
        <time>2018-05-04T13:59:21Z</time>
      </trkpt>
      <trkpt lat="46.56807" lon="-1.81791">
        <ele>38</ele>
        <time>2018-05-04T13:59:27Z</time>
      </trkpt>
      <trkpt lat="46.56805" lon="-1.81786">
        <ele>38</ele>
        <time>2018-05-04T13:59:31Z</time>
      </trkpt>
      <trkpt lat="46.568" lon="-1.81779">
        <ele>38</ele>
        <time>2018-05-04T13:59:36Z</time>
      </trkpt>
      <trkpt lat="46.56797" lon="-1.81775">
        <ele>40</ele>
        <time>2018-05-04T13:59:39Z</time>
      </trkpt>
      <trkpt lat="46.56794" lon="-1.8177">
        <ele>40</ele>
        <time>2018-05-04T13:59:42Z</time>
      </trkpt>
      <trkpt lat="46.5679" lon="-1.81765">
        <ele>39</ele>
        <time>2018-05-04T13:59:47Z</time>
      </trkpt>
      <trkpt lat="46.56788" lon="-1.81762">
        <ele>39</ele>
        <time>2018-05-04T13:59:49Z</time>
      </trkpt>
      <trkpt lat="46.56786" lon="-1.8176">
        <ele>39</ele>
        <time>2018-05-04T13:59:51Z</time>
      </trkpt>
      <trkpt lat="46.56783" lon="-1.81754">
        <ele>40</ele>
        <time>2018-05-04T13:59:56Z</time>
      </trkpt>
      <trkpt lat="46.56779" lon="-1.8175">
        <ele>40</ele>
        <time>2018-05-04T14:00:00Z</time>
      </trkpt>
      <trkpt lat="46.56775" lon="-1.81746">
        <ele>40</ele>
        <time>2018-05-04T14:00:03Z</time>
      </trkpt>
      <trkpt lat="46.56772" lon="-1.81742">
        <ele>40</ele>
        <time>2018-05-04T14:00:06Z</time>
      </trkpt>
      <trkpt lat="46.56768" lon="-1.81737">
        <ele>40</ele>
        <time>2018-05-04T14:00:11Z</time>
      </trkpt>
      <trkpt lat="46.56766" lon="-1.81732">
        <ele>40</ele>
        <time>2018-05-04T14:00:14Z</time>
      </trkpt>
      <trkpt lat="46.56764" lon="-1.81727">
        <ele>41</ele>
        <time>2018-05-04T14:00:17Z</time>
      </trkpt>
      <trkpt lat="46.56759" lon="-1.81722">
        <ele>41</ele>
        <time>2018-05-04T14:00:21Z</time>
      </trkpt>
      <trkpt lat="46.56756" lon="-1.81717">
        <ele>40</ele>
        <time>2018-05-04T14:00:25Z</time>
      </trkpt>
      <trkpt lat="46.56755" lon="-1.81714">
        <ele>40</ele>
        <time>2018-05-04T14:00:27Z</time>
      </trkpt>
      <trkpt lat="46.5675" lon="-1.81709">
        <ele>39</ele>
        <time>2018-05-04T14:00:32Z</time>
      </trkpt>
      <trkpt lat="46.56747" lon="-1.81704">
        <ele>40</ele>
        <time>2018-05-04T14:00:37Z</time>
      </trkpt>
      <trkpt lat="46.56745" lon="-1.81702">
        <ele>39</ele>
        <time>2018-05-04T14:00:39Z</time>
      </trkpt>
      <trkpt lat="46.56743" lon="-1.817">
        <ele>40</ele>
        <time>2018-05-04T14:00:42Z</time>
      </trkpt>
      <trkpt lat="46.56741" lon="-1.81697">
        <ele>39</ele>
        <time>2018-05-04T14:00:44Z</time>
      </trkpt>
      <trkpt lat="46.56738" lon="-1.81689">
        <ele>40</ele>
        <time>2018-05-04T14:00:53Z</time>
      </trkpt>
      <trkpt lat="46.56732" lon="-1.81685">
        <ele>40</ele>
        <time>2018-05-04T14:00:58Z</time>
      </trkpt>
      <trkpt lat="46.56728" lon="-1.81681">
        <ele>41</ele>
        <time>2018-05-04T14:01:02Z</time>
      </trkpt>
      <trkpt lat="46.56722" lon="-1.81675">
        <ele>41</ele>
        <time>2018-05-04T14:01:07Z</time>
      </trkpt>
      <trkpt lat="46.56718" lon="-1.81671">
        <ele>41</ele>
        <time>2018-05-04T14:01:10Z</time>
      </trkpt>
      <trkpt lat="46.56714" lon="-1.81666">
        <ele>41</ele>
        <time>2018-05-04T14:01:14Z</time>
      </trkpt>
      <trkpt lat="46.56711" lon="-1.8166">
        <ele>41</ele>
        <time>2018-05-04T14:01:19Z</time>
      </trkpt>
      <trkpt lat="46.56708" lon="-1.81653">
        <ele>41</ele>
        <time>2018-05-04T14:01:25Z</time>
      </trkpt>
      <trkpt lat="46.56703" lon="-1.81649">
        <ele>40</ele>
        <time>2018-05-04T14:01:30Z</time>
      </trkpt>
      <trkpt lat="46.567" lon="-1.81644">
        <ele>40</ele>
        <time>2018-05-04T14:01:34Z</time>
      </trkpt>
      <trkpt lat="46.56698" lon="-1.81642">
        <ele>41</ele>
        <time>2018-05-04T14:01:36Z</time>
      </trkpt>
      <trkpt lat="46.56696" lon="-1.81639">
        <ele>41</ele>
        <time>2018-05-04T14:01:39Z</time>
      </trkpt>
      <trkpt lat="46.56692" lon="-1.81635">
        <ele>41</ele>
        <time>2018-05-04T14:01:44Z</time>
      </trkpt>
      <trkpt lat="46.56688" lon="-1.81628">
        <ele>41</ele>
        <time>2018-05-04T14:01:51Z</time>
      </trkpt>
      <trkpt lat="46.56685" lon="-1.81624">
        <ele>40</ele>
        <time>2018-05-04T14:01:55Z</time>
      </trkpt>
      <trkpt lat="46.56682" lon="-1.81618">
        <ele>39</ele>
        <time>2018-05-04T14:01:59Z</time>
      </trkpt>
      <trkpt lat="46.56679" lon="-1.81613">
        <ele>39</ele>
        <time>2018-05-04T14:02:02Z</time>
      </trkpt>
      <trkpt lat="46.56676" lon="-1.81606">
        <ele>39</ele>
        <time>2018-05-04T14:02:06Z</time>
      </trkpt>
      <trkpt lat="46.56673" lon="-1.816">
        <ele>39</ele>
        <time>2018-05-04T14:02:10Z</time>
      </trkpt>
      <trkpt lat="46.5667" lon="-1.81596">
        <ele>39</ele>
        <time>2018-05-04T14:02:13Z</time>
      </trkpt>
      <trkpt lat="46.56667" lon="-1.8159">
        <ele>39</ele>
        <time>2018-05-04T14:02:17Z</time>
      </trkpt>
      <trkpt lat="46.56666" lon="-1.81586">
        <ele>39</ele>
        <time>2018-05-04T14:02:20Z</time>
      </trkpt>
      <trkpt lat="46.56663" lon="-1.8158">
        <ele>39</ele>
        <time>2018-05-04T14:02:23Z</time>
      </trkpt>
      <trkpt lat="46.56659" lon="-1.81575">
        <ele>39</ele>
        <time>2018-05-04T14:02:26Z</time>
      </trkpt>
      <trkpt lat="46.56656" lon="-1.81567">
        <ele>39</ele>
        <time>2018-05-04T14:02:30Z</time>
      </trkpt>
      <trkpt lat="46.56653" lon="-1.81562">
        <ele>40</ele>
        <time>2018-05-04T14:02:34Z</time>
      </trkpt>
      <trkpt lat="46.56651" lon="-1.81557">
        <ele>40</ele>
        <time>2018-05-04T14:02:38Z</time>
      </trkpt>
      <trkpt lat="46.56649" lon="-1.81552">
        <ele>40</ele>
        <time>2018-05-04T14:02:41Z</time>
      </trkpt>
      <trkpt lat="46.56647" lon="-1.81546">
        <ele>40</ele>
        <time>2018-05-04T14:02:45Z</time>
      </trkpt>
      <trkpt lat="46.56647" lon="-1.81538">
        <ele>39</ele>
        <time>2018-05-04T14:02:50Z</time>
      </trkpt>
      <trkpt lat="46.56646" lon="-1.81532">
        <ele>40</ele>
        <time>2018-05-04T14:02:54Z</time>
      </trkpt>
      <trkpt lat="46.56646" lon="-1.81525">
        <ele>40</ele>
        <time>2018-05-04T14:02:58Z</time>
      </trkpt>
      <trkpt lat="46.56644" lon="-1.81517">
        <ele>39</ele>
        <time>2018-05-04T14:03:03Z</time>
      </trkpt>
      <trkpt lat="46.56644" lon="-1.81512">
        <ele>39</ele>
        <time>2018-05-04T14:03:07Z</time>
      </trkpt>
      <trkpt lat="46.56641" lon="-1.81505">
        <ele>39</ele>
        <time>2018-05-04T14:03:11Z</time>
      </trkpt>
      <trkpt lat="46.56641" lon="-1.81499">
        <ele>39</ele>
        <time>2018-05-04T14:03:15Z</time>
      </trkpt>
      <trkpt lat="46.56639" lon="-1.81492">
        <ele>38</ele>
        <time>2018-05-04T14:03:19Z</time>
      </trkpt>
      <trkpt lat="46.56638" lon="-1.81485">
        <ele>38</ele>
        <time>2018-05-04T14:03:23Z</time>
      </trkpt>
      <trkpt lat="46.56637" lon="-1.81477">
        <ele>39</ele>
        <time>2018-05-04T14:03:28Z</time>
      </trkpt>
      <trkpt lat="46.56634" lon="-1.81468">
        <ele>39</ele>
        <time>2018-05-04T14:03:33Z</time>
      </trkpt>
      <trkpt lat="46.56632" lon="-1.81461">
        <ele>39</ele>
        <time>2018-05-04T14:03:37Z</time>
      </trkpt>
      <trkpt lat="46.56629" lon="-1.81453">
        <ele>39</ele>
        <time>2018-05-04T14:03:42Z</time>
      </trkpt>
      <trkpt lat="46.56628" lon="-1.8145">
        <ele>39</ele>
        <time>2018-05-04T14:03:44Z</time>
      </trkpt>
      <trkpt lat="46.56626" lon="-1.81445">
        <ele>39</ele>
        <time>2018-05-04T14:03:47Z</time>
      </trkpt>
      <trkpt lat="46.56621" lon="-1.8144">
        <ele>40</ele>
        <time>2018-05-04T14:03:51Z</time>
      </trkpt>
      <trkpt lat="46.56619" lon="-1.81432">
        <ele>39</ele>
        <time>2018-05-04T14:03:57Z</time>
      </trkpt>
      <trkpt lat="46.56615" lon="-1.81423">
        <ele>39</ele>
        <time>2018-05-04T14:04:03Z</time>
      </trkpt>
      <trkpt lat="46.56611" lon="-1.81416">
        <ele>38</ele>
        <time>2018-05-04T14:04:10Z</time>
      </trkpt>
      <trkpt lat="46.56609" lon="-1.81411">
        <ele>38</ele>
        <time>2018-05-04T14:04:13Z</time>
      </trkpt>
      <trkpt lat="46.56605" lon="-1.81404">
        <ele>38</ele>
        <time>2018-05-04T14:04:18Z</time>
      </trkpt>
      <trkpt lat="46.56603" lon="-1.81399">
        <ele>38</ele>
        <time>2018-05-04T14:04:22Z</time>
      </trkpt>
      <trkpt lat="46.566" lon="-1.81394">
        <ele>38</ele>
        <time>2018-05-04T14:04:26Z</time>
      </trkpt>
      <trkpt lat="46.56596" lon="-1.81386">
        <ele>39</ele>
        <time>2018-05-04T14:04:31Z</time>
      </trkpt>
      <trkpt lat="46.56592" lon="-1.8138">
        <ele>39</ele>
        <time>2018-05-04T14:04:35Z</time>
      </trkpt>
      <trkpt lat="46.56589" lon="-1.81374">
        <ele>40</ele>
        <time>2018-05-04T14:04:39Z</time>
      </trkpt>
      <trkpt lat="46.56586" lon="-1.81369">
        <ele>40</ele>
        <time>2018-05-04T14:04:43Z</time>
      </trkpt>
      <trkpt lat="46.56584" lon="-1.81365">
        <ele>40</ele>
        <time>2018-05-04T14:04:46Z</time>
      </trkpt>
      <trkpt lat="46.56581" lon="-1.81361">
        <ele>40</ele>
        <time>2018-05-04T14:04:52Z</time>
      </trkpt>
      <trkpt lat="46.56576" lon="-1.81354">
        <ele>40</ele>
        <time>2018-05-04T14:04:57Z</time>
      </trkpt>
      <trkpt lat="46.56573" lon="-1.81351">
        <ele>39</ele>
        <time>2018-05-04T14:05:00Z</time>
      </trkpt>
      <trkpt lat="46.5657" lon="-1.81346">
        <ele>38</ele>
        <time>2018-05-04T14:05:09Z</time>
      </trkpt>
      <trkpt lat="46.56568" lon="-1.81342">
        <ele>38</ele>
        <time>2018-05-04T14:05:14Z</time>
      </trkpt>
      <trkpt lat="46.56563" lon="-1.81338">
        <ele>38</ele>
        <time>2018-05-04T14:05:19Z</time>
      </trkpt>
      <trkpt lat="46.5656" lon="-1.81336">
        <ele>37</ele>
        <time>2018-05-04T14:05:23Z</time>
      </trkpt>
      <trkpt lat="46.56556" lon="-1.81333">
        <ele>37</ele>
        <time>2018-05-04T14:05:28Z</time>
      </trkpt>
      <trkpt lat="46.56551" lon="-1.8133">
        <ele>38</ele>
        <time>2018-05-04T14:05:32Z</time>
      </trkpt>
      <trkpt lat="46.56548" lon="-1.81328">
        <ele>38</ele>
        <time>2018-05-04T14:05:35Z</time>
      </trkpt>
      <trkpt lat="46.56542" lon="-1.81327">
        <ele>38</ele>
        <time>2018-05-04T14:05:38Z</time>
      </trkpt>
      <trkpt lat="46.56539" lon="-1.81327">
        <ele>37</ele>
        <time>2018-05-04T14:05:40Z</time>
      </trkpt>
      <trkpt lat="46.56536" lon="-1.81327">
        <ele>37</ele>
        <time>2018-05-04T14:05:42Z</time>
      </trkpt>
      <trkpt lat="46.56532" lon="-1.81322">
        <ele>38</ele>
        <time>2018-05-04T14:05:48Z</time>
      </trkpt>
      <trkpt lat="46.56525" lon="-1.81317">
        <ele>37</ele>
        <time>2018-05-04T14:05:54Z</time>
      </trkpt>
      <trkpt lat="46.56521" lon="-1.81313">
        <ele>38</ele>
        <time>2018-05-04T14:05:57Z</time>
      </trkpt>
      <trkpt lat="46.56517" lon="-1.81307">
        <ele>39</ele>
        <time>2018-05-04T14:06:01Z</time>
      </trkpt>
      <trkpt lat="46.56515" lon="-1.81304">
        <ele>40</ele>
        <time>2018-05-04T14:06:03Z</time>
      </trkpt>
      <trkpt lat="46.56511" lon="-1.813">
        <ele>40</ele>
        <time>2018-05-04T14:06:07Z</time>
      </trkpt>
      <trkpt lat="46.56508" lon="-1.81294">
        <ele>40</ele>
        <time>2018-05-04T14:06:11Z</time>
      </trkpt>
      <trkpt lat="46.56502" lon="-1.81288">
        <ele>41</ele>
        <time>2018-05-04T14:06:16Z</time>
      </trkpt>
      <trkpt lat="46.56499" lon="-1.81283">
        <ele>41</ele>
        <time>2018-05-04T14:06:20Z</time>
      </trkpt>
      <trkpt lat="46.56497" lon="-1.81276">
        <ele>41</ele>
        <time>2018-05-04T14:06:24Z</time>
      </trkpt>
      <trkpt lat="46.56493" lon="-1.81271">
        <ele>40</ele>
        <time>2018-05-04T14:06:28Z</time>
      </trkpt>
      <trkpt lat="46.5649" lon="-1.81264">
        <ele>40</ele>
        <time>2018-05-04T14:06:33Z</time>
      </trkpt>
      <trkpt lat="46.56489" lon="-1.81259">
        <ele>40</ele>
        <time>2018-05-04T14:06:36Z</time>
      </trkpt>
      <trkpt lat="46.56486" lon="-1.81254">
        <ele>41</ele>
        <time>2018-05-04T14:06:40Z</time>
      </trkpt>
      <trkpt lat="46.56484" lon="-1.81247">
        <ele>41</ele>
        <time>2018-05-04T14:06:46Z</time>
      </trkpt>
      <trkpt lat="46.56481" lon="-1.81242">
        <ele>42</ele>
        <time>2018-05-04T14:06:51Z</time>
      </trkpt>
      <trkpt lat="46.56477" lon="-1.81238">
        <ele>42</ele>
        <time>2018-05-04T14:06:55Z</time>
      </trkpt>
      <trkpt lat="46.56474" lon="-1.81236">
        <ele>42</ele>
        <time>2018-05-04T14:06:58Z</time>
      </trkpt>
      <trkpt lat="46.5647" lon="-1.81231">
        <ele>43</ele>
        <time>2018-05-04T14:07:02Z</time>
      </trkpt>
      <trkpt lat="46.56466" lon="-1.81226">
        <ele>44</ele>
        <time>2018-05-04T14:07:06Z</time>
      </trkpt>
      <trkpt lat="46.56461" lon="-1.81223">
        <ele>43</ele>
        <time>2018-05-04T14:07:11Z</time>
      </trkpt>
      <trkpt lat="46.56458" lon="-1.81217">
        <ele>43</ele>
        <time>2018-05-04T14:07:17Z</time>
      </trkpt>
      <trkpt lat="46.56459" lon="-1.81208">
        <ele>43</ele>
        <time>2018-05-04T14:07:22Z</time>
      </trkpt>
      <trkpt lat="46.56461" lon="-1.81201">
        <ele>44</ele>
        <time>2018-05-04T14:07:27Z</time>
      </trkpt>
      <trkpt lat="46.56465" lon="-1.81196">
        <ele>44</ele>
        <time>2018-05-04T14:07:32Z</time>
      </trkpt>
      <trkpt lat="46.5647" lon="-1.81193">
        <ele>44</ele>
        <time>2018-05-04T14:07:38Z</time>
      </trkpt>
      <trkpt lat="46.56474" lon="-1.81191">
        <ele>44</ele>
        <time>2018-05-04T14:07:41Z</time>
      </trkpt>
      <trkpt lat="46.56478" lon="-1.81189">
        <ele>44</ele>
        <time>2018-05-04T14:07:45Z</time>
      </trkpt>
      <trkpt lat="46.56483" lon="-1.81185">
        <ele>44</ele>
        <time>2018-05-04T14:07:51Z</time>
      </trkpt>
      <trkpt lat="46.56488" lon="-1.81182">
        <ele>45</ele>
        <time>2018-05-04T14:07:56Z</time>
      </trkpt>
      <trkpt lat="46.5649" lon="-1.81181">
        <ele>45</ele>
        <time>2018-05-04T14:07:58Z</time>
      </trkpt>
      <trkpt lat="46.56494" lon="-1.81178">
        <ele>45</ele>
        <time>2018-05-04T14:08:03Z</time>
      </trkpt>
      <trkpt lat="46.56499" lon="-1.81175">
        <ele>45</ele>
        <time>2018-05-04T14:08:08Z</time>
      </trkpt>
      <trkpt lat="46.56504" lon="-1.8117">
        <ele>45</ele>
        <time>2018-05-04T14:08:14Z</time>
      </trkpt>
      <trkpt lat="46.56506" lon="-1.81167">
        <ele>45</ele>
        <time>2018-05-04T14:08:17Z</time>
      </trkpt>
      <trkpt lat="46.56508" lon="-1.81165">
        <ele>45</ele>
        <time>2018-05-04T14:08:19Z</time>
      </trkpt>
      <trkpt lat="46.56512" lon="-1.81161">
        <ele>45</ele>
        <time>2018-05-04T14:08:24Z</time>
      </trkpt>
      <trkpt lat="46.56516" lon="-1.81157">
        <ele>45</ele>
        <time>2018-05-04T14:08:28Z</time>
      </trkpt>
      <trkpt lat="46.5652" lon="-1.81152">
        <ele>45</ele>
        <time>2018-05-04T14:08:33Z</time>
      </trkpt>
      <trkpt lat="46.56525" lon="-1.81148">
        <ele>45</ele>
        <time>2018-05-04T14:08:38Z</time>
      </trkpt>
      <trkpt lat="46.5653" lon="-1.81144">
        <ele>45</ele>
        <time>2018-05-04T14:08:44Z</time>
      </trkpt>
      <trkpt lat="46.56535" lon="-1.81138">
        <ele>45</ele>
        <time>2018-05-04T14:08:50Z</time>
      </trkpt>
      <trkpt lat="46.56537" lon="-1.81135">
        <ele>44</ele>
        <time>2018-05-04T14:08:53Z</time>
      </trkpt>
      <trkpt lat="46.56539" lon="-1.81132">
        <ele>44</ele>
        <time>2018-05-04T14:08:57Z</time>
      </trkpt>
      <trkpt lat="46.56543" lon="-1.81128">
        <ele>44</ele>
        <time>2018-05-04T14:09:01Z</time>
      </trkpt>
      <trkpt lat="46.56546" lon="-1.81122">
        <ele>45</ele>
        <time>2018-05-04T14:09:07Z</time>
      </trkpt>
      <trkpt lat="46.5655" lon="-1.81117">
        <ele>45</ele>
        <time>2018-05-04T14:09:12Z</time>
      </trkpt>
      <trkpt lat="46.56551" lon="-1.8111">
        <ele>45</ele>
        <time>2018-05-04T14:09:17Z</time>
      </trkpt>
      <trkpt lat="46.56552" lon="-1.81102">
        <ele>45</ele>
        <time>2018-05-04T14:09:22Z</time>
      </trkpt>
      <trkpt lat="46.56551" lon="-1.81095">
        <ele>45</ele>
        <time>2018-05-04T14:09:27Z</time>
      </trkpt>
      <trkpt lat="46.56553" lon="-1.81088">
        <ele>45</ele>
        <time>2018-05-04T14:09:32Z</time>
      </trkpt>
      <trkpt lat="46.56558" lon="-1.81085">
        <ele>45</ele>
        <time>2018-05-04T14:09:38Z</time>
      </trkpt>
      <trkpt lat="46.56561" lon="-1.81083">
        <ele>45</ele>
        <time>2018-05-04T14:09:41Z</time>
      </trkpt>
      <trkpt lat="46.56564" lon="-1.81081">
        <ele>45</ele>
        <time>2018-05-04T14:09:46Z</time>
      </trkpt>
      <trkpt lat="46.5657" lon="-1.8108">
        <ele>44</ele>
        <time>2018-05-04T14:09:52Z</time>
      </trkpt>
      <trkpt lat="46.56573" lon="-1.81079">
        <ele>44</ele>
        <time>2018-05-04T14:09:56Z</time>
      </trkpt>
      <trkpt lat="46.56578" lon="-1.81075">
        <ele>44</ele>
        <time>2018-05-04T14:10:01Z</time>
      </trkpt>
      <trkpt lat="46.56581" lon="-1.81074">
        <ele>44</ele>
        <time>2018-05-04T14:10:04Z</time>
      </trkpt>
      <trkpt lat="46.56585" lon="-1.8107">
        <ele>43</ele>
        <time>2018-05-04T14:10:09Z</time>
      </trkpt>
      <trkpt lat="46.56588" lon="-1.81065">
        <ele>44</ele>
        <time>2018-05-04T14:10:13Z</time>
      </trkpt>
      <trkpt lat="46.56592" lon="-1.81059">
        <ele>43</ele>
        <time>2018-05-04T14:10:19Z</time>
      </trkpt>
      <trkpt lat="46.56593" lon="-1.81056">
        <ele>43</ele>
        <time>2018-05-04T14:10:22Z</time>
      </trkpt>
      <trkpt lat="46.56596" lon="-1.81052">
        <ele>44</ele>
        <time>2018-05-04T14:10:26Z</time>
      </trkpt>
      <trkpt lat="46.56599" lon="-1.81045">
        <ele>43</ele>
        <time>2018-05-04T14:10:31Z</time>
      </trkpt>
      <trkpt lat="46.56602" lon="-1.8104">
        <ele>43</ele>
        <time>2018-05-04T14:10:35Z</time>
      </trkpt>
      <trkpt lat="46.56605" lon="-1.81036">
        <ele>43</ele>
        <time>2018-05-04T14:10:39Z</time>
      </trkpt>
      <trkpt lat="46.56608" lon="-1.81027">
        <ele>43</ele>
        <time>2018-05-04T14:10:45Z</time>
      </trkpt>
      <trkpt lat="46.5661" lon="-1.81022">
        <ele>43</ele>
        <time>2018-05-04T14:10:48Z</time>
      </trkpt>
      <trkpt lat="46.56613" lon="-1.81015">
        <ele>42</ele>
        <time>2018-05-04T14:10:53Z</time>
      </trkpt>
      <trkpt lat="46.56616" lon="-1.81009">
        <ele>43</ele>
        <time>2018-05-04T14:10:58Z</time>
      </trkpt>
      <trkpt lat="46.56618" lon="-1.81004">
        <ele>43</ele>
        <time>2018-05-04T14:11:03Z</time>
      </trkpt>
      <trkpt lat="46.56619" lon="-1.81001">
        <ele>43</ele>
        <time>2018-05-04T14:11:06Z</time>
      </trkpt>
      <trkpt lat="46.56621" lon="-1.80997">
        <ele>43</ele>
        <time>2018-05-04T14:11:09Z</time>
      </trkpt>
      <trkpt lat="46.56624" lon="-1.80992">
        <ele>43</ele>
        <time>2018-05-04T14:11:13Z</time>
      </trkpt>
      <trkpt lat="46.56627" lon="-1.80986">
        <ele>43</ele>
        <time>2018-05-04T14:11:18Z</time>
      </trkpt>
      <trkpt lat="46.56629" lon="-1.80982">
        <ele>43</ele>
        <time>2018-05-04T14:11:21Z</time>
      </trkpt>
      <trkpt lat="46.56631" lon="-1.80979">
        <ele>43</ele>
        <time>2018-05-04T14:11:23Z</time>
      </trkpt>
      <trkpt lat="46.56633" lon="-1.80976">
        <ele>43</ele>
        <time>2018-05-04T14:11:26Z</time>
      </trkpt>
      <trkpt lat="46.56636" lon="-1.80971">
        <ele>43</ele>
        <time>2018-05-04T14:11:31Z</time>
      </trkpt>
      <trkpt lat="46.56637" lon="-1.80969">
        <ele>44</ele>
        <time>2018-05-04T14:11:33Z</time>
      </trkpt>
      <trkpt lat="46.5664" lon="-1.80965">
        <ele>43</ele>
        <time>2018-05-04T14:11:37Z</time>
      </trkpt>
      <trkpt lat="46.56642" lon="-1.80962">
        <ele>43</ele>
        <time>2018-05-04T14:11:41Z</time>
      </trkpt>
      <trkpt lat="46.56645" lon="-1.80955">
        <ele>43</ele>
        <time>2018-05-04T14:11:47Z</time>
      </trkpt>
      <trkpt lat="46.56647" lon="-1.80952">
        <ele>42</ele>
        <time>2018-05-04T14:11:50Z</time>
      </trkpt>
      <trkpt lat="46.5665" lon="-1.80948">
        <ele>42</ele>
        <time>2018-05-04T14:11:54Z</time>
      </trkpt>
      <trkpt lat="46.56655" lon="-1.80944">
        <ele>42</ele>
        <time>2018-05-04T14:11:59Z</time>
      </trkpt>
      <trkpt lat="46.5666" lon="-1.80942">
        <ele>42</ele>
        <time>2018-05-04T14:12:04Z</time>
      </trkpt>
      <trkpt lat="46.56665" lon="-1.80941">
        <ele>42</ele>
        <time>2018-05-04T14:12:09Z</time>
      </trkpt>
      <trkpt lat="46.56669" lon="-1.80941">
        <ele>42</ele>
        <time>2018-05-04T14:12:13Z</time>
      </trkpt>
      <trkpt lat="46.56674" lon="-1.8094">
        <ele>42</ele>
        <time>2018-05-04T14:12:17Z</time>
      </trkpt>
      <trkpt lat="46.56678" lon="-1.80941">
        <ele>42</ele>
        <time>2018-05-04T14:12:22Z</time>
      </trkpt>
      <trkpt lat="46.56683" lon="-1.80943">
        <ele>42</ele>
        <time>2018-05-04T14:12:27Z</time>
      </trkpt>
      <trkpt lat="46.56687" lon="-1.80945">
        <ele>43</ele>
        <time>2018-05-04T14:12:31Z</time>
      </trkpt>
      <trkpt lat="46.56689" lon="-1.80947">
        <ele>43</ele>
        <time>2018-05-04T14:12:33Z</time>
      </trkpt>
      <trkpt lat="46.56693" lon="-1.80948">
        <ele>43</ele>
        <time>2018-05-04T14:12:36Z</time>
      </trkpt>
      <trkpt lat="46.56698" lon="-1.8095">
        <ele>44</ele>
        <time>2018-05-04T14:12:40Z</time>
      </trkpt>
      <trkpt lat="46.56703" lon="-1.80948">
        <ele>44</ele>
        <time>2018-05-04T14:12:45Z</time>
      </trkpt>
      <trkpt lat="46.56708" lon="-1.80944">
        <ele>45</ele>
        <time>2018-05-04T14:12:50Z</time>
      </trkpt>
      <trkpt lat="46.56711" lon="-1.80939">
        <ele>44</ele>
        <time>2018-05-04T14:12:55Z</time>
      </trkpt>
      <trkpt lat="46.56713" lon="-1.80936">
        <ele>44</ele>
        <time>2018-05-04T14:12:58Z</time>
      </trkpt>
      <trkpt lat="46.56715" lon="-1.80934">
        <ele>44</ele>
        <time>2018-05-04T14:13:00Z</time>
      </trkpt>
      <trkpt lat="46.56717" lon="-1.80928">
        <ele>43</ele>
        <time>2018-05-04T14:13:06Z</time>
      </trkpt>
      <trkpt lat="46.56722" lon="-1.80923">
        <ele>43</ele>
        <time>2018-05-04T14:13:12Z</time>
      </trkpt>
      <trkpt lat="46.56726" lon="-1.80918">
        <ele>44</ele>
        <time>2018-05-04T14:13:18Z</time>
      </trkpt>
      <trkpt lat="46.56729" lon="-1.80915">
        <ele>44</ele>
        <time>2018-05-04T14:13:21Z</time>
      </trkpt>
      <trkpt lat="46.56732" lon="-1.8091">
        <ele>44</ele>
        <time>2018-05-04T14:13:25Z</time>
      </trkpt>
      <trkpt lat="46.56735" lon="-1.80904">
        <ele>43</ele>
        <time>2018-05-04T14:13:30Z</time>
      </trkpt>
      <trkpt lat="46.5674" lon="-1.80898">
        <ele>42</ele>
        <time>2018-05-04T14:13:36Z</time>
      </trkpt>
      <trkpt lat="46.56743" lon="-1.80895">
        <ele>42</ele>
        <time>2018-05-04T14:13:39Z</time>
      </trkpt>
      <trkpt lat="46.56744" lon="-1.80893">
        <ele>42</ele>
        <time>2018-05-04T14:13:42Z</time>
      </trkpt>
      <trkpt lat="46.56748" lon="-1.80888">
        <ele>42</ele>
        <time>2018-05-04T14:13:46Z</time>
      </trkpt>
      <trkpt lat="46.56751" lon="-1.80882">
        <ele>42</ele>
        <time>2018-05-04T14:13:55Z</time>
      </trkpt>
      <trkpt lat="46.56755" lon="-1.80876">
        <ele>41</ele>
        <time>2018-05-04T14:14:10Z</time>
      </trkpt>
      <trkpt lat="46.56759" lon="-1.80871">
        <ele>42</ele>
        <time>2018-05-04T14:14:15Z</time>
      </trkpt>
      <trkpt lat="46.56763" lon="-1.80865">
        <ele>42</ele>
        <time>2018-05-04T14:14:20Z</time>
      </trkpt>
      <trkpt lat="46.56766" lon="-1.80861">
        <ele>42</ele>
        <time>2018-05-04T14:14:23Z</time>
      </trkpt>
      <trkpt lat="46.56768" lon="-1.80858">
        <ele>42</ele>
        <time>2018-05-04T14:14:26Z</time>
      </trkpt>
      <trkpt lat="46.56771" lon="-1.80853">
        <ele>42</ele>
        <time>2018-05-04T14:14:32Z</time>
      </trkpt>
      <trkpt lat="46.56773" lon="-1.8085">
        <ele>42</ele>
        <time>2018-05-04T14:14:34Z</time>
      </trkpt>
      <trkpt lat="46.56775" lon="-1.80847">
        <ele>41</ele>
        <time>2018-05-04T14:14:37Z</time>
      </trkpt>
      <trkpt lat="46.56778" lon="-1.80841">
        <ele>42</ele>
        <time>2018-05-04T14:14:42Z</time>
      </trkpt>
      <trkpt lat="46.56783" lon="-1.80836">
        <ele>43</ele>
        <time>2018-05-04T14:14:47Z</time>
      </trkpt>
      <trkpt lat="46.56784" lon="-1.80833">
        <ele>42</ele>
        <time>2018-05-04T14:14:50Z</time>
      </trkpt>
      <trkpt lat="46.56787" lon="-1.8083">
        <ele>42</ele>
        <time>2018-05-04T14:14:53Z</time>
      </trkpt>
      <trkpt lat="46.5679" lon="-1.80824">
        <ele>42</ele>
        <time>2018-05-04T14:14:58Z</time>
      </trkpt>
      <trkpt lat="46.56794" lon="-1.80819">
        <ele>42</ele>
        <time>2018-05-04T14:15:04Z</time>
      </trkpt>
      <trkpt lat="46.56796" lon="-1.80813">
        <ele>42</ele>
        <time>2018-05-04T14:15:11Z</time>
      </trkpt>
      <trkpt lat="46.56801" lon="-1.8081">
        <ele>42</ele>
        <time>2018-05-04T14:15:16Z</time>
      </trkpt>
      <trkpt lat="46.56806" lon="-1.80808">
        <ele>42</ele>
        <time>2018-05-04T14:15:20Z</time>
      </trkpt>
      <trkpt lat="46.5681" lon="-1.80812">
        <ele>43</ele>
        <time>2018-05-04T14:15:25Z</time>
      </trkpt>
      <trkpt lat="46.56812" lon="-1.80815">
        <ele>43</ele>
        <time>2018-05-04T14:15:27Z</time>
      </trkpt>
      <trkpt lat="46.56814" lon="-1.80818">
        <ele>43</ele>
        <time>2018-05-04T14:15:30Z</time>
      </trkpt>
      <trkpt lat="46.56817" lon="-1.80824">
        <ele>43</ele>
        <time>2018-05-04T14:15:34Z</time>
      </trkpt>
      <trkpt lat="46.5682" lon="-1.80828">
        <ele>43</ele>
        <time>2018-05-04T14:15:39Z</time>
      </trkpt>
      <trkpt lat="46.56823" lon="-1.80832">
        <ele>43</ele>
        <time>2018-05-04T14:15:43Z</time>
      </trkpt>
      <trkpt lat="46.56827" lon="-1.80837">
        <ele>44</ele>
        <time>2018-05-04T14:15:48Z</time>
      </trkpt>
      <trkpt lat="46.56831" lon="-1.80842">
        <ele>44</ele>
        <time>2018-05-04T14:15:52Z</time>
      </trkpt>
      <trkpt lat="46.56836" lon="-1.80847">
        <ele>45</ele>
        <time>2018-05-04T14:15:57Z</time>
      </trkpt>
      <trkpt lat="46.56839" lon="-1.80853">
        <ele>44</ele>
        <time>2018-05-04T14:16:02Z</time>
      </trkpt>
      <trkpt lat="46.56845" lon="-1.80859">
        <ele>44</ele>
        <time>2018-05-04T14:16:08Z</time>
      </trkpt>
      <trkpt lat="46.5685" lon="-1.80862">
        <ele>45</ele>
        <time>2018-05-04T14:16:12Z</time>
      </trkpt>
      <trkpt lat="46.56854" lon="-1.80866">
        <ele>45</ele>
        <time>2018-05-04T14:16:15Z</time>
      </trkpt>
      <trkpt lat="46.56857" lon="-1.8087">
        <ele>45</ele>
        <time>2018-05-04T14:16:20Z</time>
      </trkpt>
      <trkpt lat="46.5686" lon="-1.80876">
        <ele>45</ele>
        <time>2018-05-04T14:16:25Z</time>
      </trkpt>
      <trkpt lat="46.56862" lon="-1.80879">
        <ele>46</ele>
        <time>2018-05-04T14:16:28Z</time>
      </trkpt>
      <trkpt lat="46.56867" lon="-1.8088">
        <ele>47</ele>
        <time>2018-05-04T14:16:36Z</time>
      </trkpt>
      <trkpt lat="46.56868" lon="-1.8088">
        <ele>47</ele>
        <time>2018-05-04T14:16:46Z</time>
      </trkpt>
      <trkpt lat="46.56872" lon="-1.80882">
        <ele>45</ele>
        <time>2018-05-04T14:19:09Z</time>
      </trkpt>
      <trkpt lat="46.56875" lon="-1.80888">
        <ele>46</ele>
        <time>2018-05-04T14:19:17Z</time>
      </trkpt>
      <trkpt lat="46.56878" lon="-1.80893">
        <ele>46</ele>
        <time>2018-05-04T14:19:23Z</time>
      </trkpt>
      <trkpt lat="46.5688" lon="-1.80896">
        <ele>46</ele>
        <time>2018-05-04T14:19:26Z</time>
      </trkpt>
      <trkpt lat="46.56883" lon="-1.80899">
        <ele>46</ele>
        <time>2018-05-04T14:19:29Z</time>
      </trkpt>
      <trkpt lat="46.56884" lon="-1.80901">
        <ele>46</ele>
        <time>2018-05-04T14:19:32Z</time>
      </trkpt>
      <trkpt lat="46.56887" lon="-1.80904">
        <ele>46</ele>
        <time>2018-05-04T14:19:35Z</time>
      </trkpt>
      <trkpt lat="46.56889" lon="-1.80907">
        <ele>46</ele>
        <time>2018-05-04T14:19:38Z</time>
      </trkpt>
      <trkpt lat="46.56891" lon="-1.80912">
        <ele>46</ele>
        <time>2018-05-04T14:19:43Z</time>
      </trkpt>
      <trkpt lat="46.56894" lon="-1.80916">
        <ele>47</ele>
        <time>2018-05-04T14:19:46Z</time>
      </trkpt>
      <trkpt lat="46.56896" lon="-1.8092">
        <ele>47</ele>
        <time>2018-05-04T14:19:50Z</time>
      </trkpt>
      <trkpt lat="46.56898" lon="-1.80923">
        <ele>46</ele>
        <time>2018-05-04T14:19:53Z</time>
      </trkpt>
      <trkpt lat="46.56902" lon="-1.80927">
        <ele>46</ele>
        <time>2018-05-04T14:19:58Z</time>
      </trkpt>
      <trkpt lat="46.56908" lon="-1.80931">
        <ele>46</ele>
        <time>2018-05-04T14:20:03Z</time>
      </trkpt>
      <trkpt lat="46.5691" lon="-1.80934">
        <ele>47</ele>
        <time>2018-05-04T14:20:05Z</time>
      </trkpt>
      <trkpt lat="46.56913" lon="-1.80936">
        <ele>47</ele>
        <time>2018-05-04T14:20:08Z</time>
      </trkpt>
      <trkpt lat="46.56918" lon="-1.80942">
        <ele>47</ele>
        <time>2018-05-04T14:20:14Z</time>
      </trkpt>
      <trkpt lat="46.56921" lon="-1.80947">
        <ele>46</ele>
        <time>2018-05-04T14:20:20Z</time>
      </trkpt>
      <trkpt lat="46.56924" lon="-1.80951">
        <ele>47</ele>
        <time>2018-05-04T14:20:23Z</time>
      </trkpt>
      <trkpt lat="46.56928" lon="-1.80953">
        <ele>47</ele>
        <time>2018-05-04T14:20:28Z</time>
      </trkpt>
      <trkpt lat="46.56933" lon="-1.80952">
        <ele>47</ele>
        <time>2018-05-04T14:20:34Z</time>
      </trkpt>
      <trkpt lat="46.56938" lon="-1.80951">
        <ele>47</ele>
        <time>2018-05-04T14:20:39Z</time>
      </trkpt>
      <trkpt lat="46.56944" lon="-1.80948">
        <ele>47</ele>
        <time>2018-05-04T14:20:46Z</time>
      </trkpt>
      <trkpt lat="46.56948" lon="-1.80945">
        <ele>47</ele>
        <time>2018-05-04T14:20:52Z</time>
      </trkpt>
      <trkpt lat="46.56953" lon="-1.80943">
        <ele>48</ele>
        <time>2018-05-04T14:20:57Z</time>
      </trkpt>
      <trkpt lat="46.56955" lon="-1.80942">
        <ele>48</ele>
        <time>2018-05-04T14:20:59Z</time>
      </trkpt>
      <trkpt lat="46.56958" lon="-1.80941">
        <ele>47</ele>
        <time>2018-05-04T14:21:01Z</time>
      </trkpt>
      <trkpt lat="46.56963" lon="-1.80937">
        <ele>48</ele>
        <time>2018-05-04T14:21:06Z</time>
      </trkpt>
      <trkpt lat="46.56965" lon="-1.80936">
        <ele>48</ele>
        <time>2018-05-04T14:21:09Z</time>
      </trkpt>
      <trkpt lat="46.5697" lon="-1.80933">
        <ele>49</ele>
        <time>2018-05-04T14:21:14Z</time>
      </trkpt>
      <trkpt lat="46.56973" lon="-1.80932">
        <ele>49</ele>
        <time>2018-05-04T14:21:17Z</time>
      </trkpt>
      <trkpt lat="46.56977" lon="-1.8093">
        <ele>49</ele>
        <time>2018-05-04T14:21:22Z</time>
      </trkpt>
      <trkpt lat="46.56981" lon="-1.80929">
        <ele>49</ele>
        <time>2018-05-04T14:21:26Z</time>
      </trkpt>
      <trkpt lat="46.56983" lon="-1.80928">
        <ele>49</ele>
        <time>2018-05-04T14:21:28Z</time>
      </trkpt>
      <trkpt lat="46.56988" lon="-1.80925">
        <ele>49</ele>
        <time>2018-05-04T14:21:33Z</time>
      </trkpt>
      <trkpt lat="46.56991" lon="-1.80923">
        <ele>50</ele>
        <time>2018-05-04T14:21:36Z</time>
      </trkpt>
      <trkpt lat="46.56996" lon="-1.80919">
        <ele>49</ele>
        <time>2018-05-04T14:21:41Z</time>
      </trkpt>
      <trkpt lat="46.56998" lon="-1.80917">
        <ele>50</ele>
        <time>2018-05-04T14:21:44Z</time>
      </trkpt>
      <trkpt lat="46.57002" lon="-1.80915">
        <ele>50</ele>
        <time>2018-05-04T14:21:49Z</time>
      </trkpt>
      <trkpt lat="46.57005" lon="-1.80913">
        <ele>50</ele>
        <time>2018-05-04T14:21:52Z</time>
      </trkpt>
      <trkpt lat="46.57009" lon="-1.8091">
        <ele>50</ele>
        <time>2018-05-04T14:21:57Z</time>
      </trkpt>
      <trkpt lat="46.57015" lon="-1.80908">
        <ele>50</ele>
        <time>2018-05-04T14:22:02Z</time>
      </trkpt>
      <trkpt lat="46.57017" lon="-1.80906">
        <ele>50</ele>
        <time>2018-05-04T14:22:04Z</time>
      </trkpt>
      <trkpt lat="46.57022" lon="-1.80902">
        <ele>50</ele>
        <time>2018-05-04T14:22:09Z</time>
      </trkpt>
      <trkpt lat="46.57027" lon="-1.80899">
        <ele>50</ele>
        <time>2018-05-04T14:22:15Z</time>
      </trkpt>
      <trkpt lat="46.5703" lon="-1.80898">
        <ele>50</ele>
        <time>2018-05-04T14:22:19Z</time>
      </trkpt>
      <trkpt lat="46.57035" lon="-1.80896">
        <ele>51</ele>
        <time>2018-05-04T14:22:24Z</time>
      </trkpt>
      <trkpt lat="46.57039" lon="-1.80894">
        <ele>50</ele>
        <time>2018-05-04T14:22:27Z</time>
      </trkpt>
      <trkpt lat="46.57042" lon="-1.80894">
        <ele>50</ele>
        <time>2018-05-04T14:22:30Z</time>
      </trkpt>
      <trkpt lat="46.57048" lon="-1.8089">
        <ele>50</ele>
        <time>2018-05-04T14:22:36Z</time>
      </trkpt>
      <trkpt lat="46.57052" lon="-1.80886">
        <ele>50</ele>
        <time>2018-05-04T14:22:40Z</time>
      </trkpt>
      <trkpt lat="46.57056" lon="-1.80885">
        <ele>50</ele>
        <time>2018-05-04T14:22:45Z</time>
      </trkpt>
      <trkpt lat="46.5706" lon="-1.80882">
        <ele>50</ele>
        <time>2018-05-04T14:22:49Z</time>
      </trkpt>
      <trkpt lat="46.57065" lon="-1.80879">
        <ele>50</ele>
        <time>2018-05-04T14:22:55Z</time>
      </trkpt>
      <trkpt lat="46.57069" lon="-1.80875">
        <ele>51</ele>
        <time>2018-05-04T14:23:02Z</time>
      </trkpt>
      <trkpt lat="46.57074" lon="-1.80874">
        <ele>50</ele>
        <time>2018-05-04T14:23:07Z</time>
      </trkpt>
      <trkpt lat="46.57078" lon="-1.80873">
        <ele>48</ele>
        <time>2018-05-04T14:23:18Z</time>
      </trkpt>
      <trkpt lat="46.57081" lon="-1.80872">
        <ele>47</ele>
        <time>2018-05-04T14:23:23Z</time>
      </trkpt>
      <trkpt lat="46.57086" lon="-1.80874">
        <ele>47</ele>
        <time>2018-05-04T14:23:28Z</time>
      </trkpt>
      <trkpt lat="46.5709" lon="-1.8088">
        <ele>46</ele>
        <time>2018-05-04T14:23:33Z</time>
      </trkpt>
      <trkpt lat="46.57093" lon="-1.80886">
        <ele>46</ele>
        <time>2018-05-04T14:23:38Z</time>
      </trkpt>
      <trkpt lat="46.57094" lon="-1.80889">
        <ele>46</ele>
        <time>2018-05-04T14:23:40Z</time>
      </trkpt>
      <trkpt lat="46.57096" lon="-1.80893">
        <ele>46</ele>
        <time>2018-05-04T14:23:43Z</time>
      </trkpt>
      <trkpt lat="46.571" lon="-1.80898">
        <ele>46</ele>
        <time>2018-05-04T14:23:47Z</time>
      </trkpt>
      <trkpt lat="46.57104" lon="-1.80902">
        <ele>46</ele>
        <time>2018-05-04T14:23:52Z</time>
      </trkpt>
      <trkpt lat="46.57106" lon="-1.80908">
        <ele>46</ele>
        <time>2018-05-04T14:23:57Z</time>
      </trkpt>
      <trkpt lat="46.57108" lon="-1.80912">
        <ele>46</ele>
        <time>2018-05-04T14:24:00Z</time>
      </trkpt>
      <trkpt lat="46.5711" lon="-1.80919">
        <ele>46</ele>
        <time>2018-05-04T14:24:05Z</time>
      </trkpt>
      <trkpt lat="46.57111" lon="-1.80928">
        <ele>46</ele>
        <time>2018-05-04T14:24:10Z</time>
      </trkpt>
      <trkpt lat="46.57114" lon="-1.80936">
        <ele>46</ele>
        <time>2018-05-04T14:24:16Z</time>
      </trkpt>
      <trkpt lat="46.57115" lon="-1.8094">
        <ele>46</ele>
        <time>2018-05-04T14:24:18Z</time>
      </trkpt>
      <trkpt lat="46.57116" lon="-1.80942">
        <ele>46</ele>
        <time>2018-05-04T14:24:20Z</time>
      </trkpt>
      <trkpt lat="46.57118" lon="-1.80947">
        <ele>46</ele>
        <time>2018-05-04T14:24:23Z</time>
      </trkpt>
      <trkpt lat="46.57118" lon="-1.8095">
        <ele>47</ele>
        <time>2018-05-04T14:24:25Z</time>
      </trkpt>
      <trkpt lat="46.5712" lon="-1.80953">
        <ele>47</ele>
        <time>2018-05-04T14:24:27Z</time>
      </trkpt>
      <trkpt lat="46.57122" lon="-1.8096">
        <ele>47</ele>
        <time>2018-05-04T14:24:31Z</time>
      </trkpt>
      <trkpt lat="46.57123" lon="-1.80964">
        <ele>47</ele>
        <time>2018-05-04T14:24:34Z</time>
      </trkpt>
      <trkpt lat="46.57124" lon="-1.8097">
        <ele>47</ele>
        <time>2018-05-04T14:24:37Z</time>
      </trkpt>
      <trkpt lat="46.57124" lon="-1.80973">
        <ele>47</ele>
        <time>2018-05-04T14:24:42Z</time>
      </trkpt>
      <trkpt lat="46.57127" lon="-1.80979">
        <ele>47</ele>
        <time>2018-05-04T14:24:47Z</time>
      </trkpt>
      <trkpt lat="46.57128" lon="-1.80982">
        <ele>47</ele>
        <time>2018-05-04T14:24:53Z</time>
      </trkpt>
      <trkpt lat="46.57129" lon="-1.80987">
        <ele>47</ele>
        <time>2018-05-04T14:24:57Z</time>
      </trkpt>
      <trkpt lat="46.5713" lon="-1.8099">
        <ele>47</ele>
        <time>2018-05-04T14:24:59Z</time>
      </trkpt>
      <trkpt lat="46.57133" lon="-1.80997">
        <ele>47</ele>
        <time>2018-05-04T14:25:04Z</time>
      </trkpt>
      <trkpt lat="46.57134" lon="-1.81001">
        <ele>47</ele>
        <time>2018-05-04T14:25:07Z</time>
      </trkpt>
      <trkpt lat="46.57135" lon="-1.81004">
        <ele>47</ele>
        <time>2018-05-04T14:25:09Z</time>
      </trkpt>
      <trkpt lat="46.57136" lon="-1.81007">
        <ele>47</ele>
        <time>2018-05-04T14:25:11Z</time>
      </trkpt>
      <trkpt lat="46.57138" lon="-1.81012">
        <ele>47</ele>
        <time>2018-05-04T14:25:14Z</time>
      </trkpt>
      <trkpt lat="46.5714" lon="-1.81019">
        <ele>47</ele>
        <time>2018-05-04T14:25:18Z</time>
      </trkpt>
      <trkpt lat="46.57141" lon="-1.81025">
        <ele>47</ele>
        <time>2018-05-04T14:25:22Z</time>
      </trkpt>
      <trkpt lat="46.57142" lon="-1.81029">
        <ele>47</ele>
        <time>2018-05-04T14:25:25Z</time>
      </trkpt>
      <trkpt lat="46.57142" lon="-1.81038">
        <ele>47</ele>
        <time>2018-05-04T14:25:31Z</time>
      </trkpt>
      <trkpt lat="46.57137" lon="-1.8104">
        <ele>47</ele>
        <time>2018-05-04T14:25:38Z</time>
      </trkpt>
      <trkpt lat="46.57135" lon="-1.81041">
        <ele>47</ele>
        <time>2018-05-04T14:25:41Z</time>
      </trkpt>
      <trkpt lat="46.57129" lon="-1.81042">
        <ele>48</ele>
        <time>2018-05-04T14:25:47Z</time>
      </trkpt>
      <trkpt lat="46.57126" lon="-1.81043">
        <ele>48</ele>
        <time>2018-05-04T14:25:50Z</time>
      </trkpt>
      <trkpt lat="46.57123" lon="-1.81043">
        <ele>48</ele>
        <time>2018-05-04T14:25:53Z</time>
      </trkpt>
      <trkpt lat="46.57118" lon="-1.81049">
        <ele>47</ele>
        <time>2018-05-04T14:25:57Z</time>
      </trkpt>
      <trkpt lat="46.57118" lon="-1.81055">
        <ele>46</ele>
        <time>2018-05-04T14:26:01Z</time>
      </trkpt>
      <trkpt lat="46.5712" lon="-1.81063">
        <ele>47</ele>
        <time>2018-05-04T14:26:06Z</time>
      </trkpt>
      <trkpt lat="46.57122" lon="-1.8107">
        <ele>46</ele>
        <time>2018-05-04T14:26:10Z</time>
      </trkpt>
      <trkpt lat="46.57123" lon="-1.81073">
        <ele>47</ele>
        <time>2018-05-04T14:26:12Z</time>
      </trkpt>
      <trkpt lat="46.57124" lon="-1.81076">
        <ele>47</ele>
        <time>2018-05-04T14:26:14Z</time>
      </trkpt>
      <trkpt lat="46.57127" lon="-1.81082">
        <ele>47</ele>
        <time>2018-05-04T14:26:18Z</time>
      </trkpt>
      <trkpt lat="46.57128" lon="-1.81085">
        <ele>47</ele>
        <time>2018-05-04T14:26:20Z</time>
      </trkpt>
      <trkpt lat="46.57129" lon="-1.81089">
        <ele>47</ele>
        <time>2018-05-04T14:26:22Z</time>
      </trkpt>
      <trkpt lat="46.5713" lon="-1.81092">
        <ele>47</ele>
        <time>2018-05-04T14:26:24Z</time>
      </trkpt>
      <trkpt lat="46.57132" lon="-1.81098">
        <ele>46</ele>
        <time>2018-05-04T14:26:28Z</time>
      </trkpt>
      <trkpt lat="46.57134" lon="-1.81104">
        <ele>47</ele>
        <time>2018-05-04T14:26:33Z</time>
      </trkpt>
      <trkpt lat="46.57136" lon="-1.81109">
        <ele>47</ele>
        <time>2018-05-04T14:26:40Z</time>
      </trkpt>
      <trkpt lat="46.57139" lon="-1.81115">
        <ele>47</ele>
        <time>2018-05-04T14:26:44Z</time>
      </trkpt>
      <trkpt lat="46.5714" lon="-1.81119">
        <ele>47</ele>
        <time>2018-05-04T14:26:47Z</time>
      </trkpt>
      <trkpt lat="46.57144" lon="-1.81124">
        <ele>46</ele>
        <time>2018-05-04T14:26:51Z</time>
      </trkpt>
      <trkpt lat="46.57147" lon="-1.81131">
        <ele>46</ele>
        <time>2018-05-04T14:26:56Z</time>
      </trkpt>
      <trkpt lat="46.57151" lon="-1.81135">
        <ele>46</ele>
        <time>2018-05-04T14:27:00Z</time>
      </trkpt>
      <trkpt lat="46.57153" lon="-1.81138">
        <ele>47</ele>
        <time>2018-05-04T14:27:02Z</time>
      </trkpt>
      <trkpt lat="46.57157" lon="-1.81144">
        <ele>47</ele>
        <time>2018-05-04T14:27:07Z</time>
      </trkpt>
      <trkpt lat="46.5716" lon="-1.81148">
        <ele>46</ele>
        <time>2018-05-04T14:27:10Z</time>
      </trkpt>
      <trkpt lat="46.57162" lon="-1.81151">
        <ele>46</ele>
        <time>2018-05-04T14:27:12Z</time>
      </trkpt>
      <trkpt lat="46.57164" lon="-1.81154">
        <ele>46</ele>
        <time>2018-05-04T14:27:15Z</time>
      </trkpt>
      <trkpt lat="46.57166" lon="-1.81157">
        <ele>46</ele>
        <time>2018-05-04T14:27:17Z</time>
      </trkpt>
      <trkpt lat="46.57168" lon="-1.81159">
        <ele>46</ele>
        <time>2018-05-04T14:27:19Z</time>
      </trkpt>
      <trkpt lat="46.5717" lon="-1.81161">
        <ele>45</ele>
        <time>2018-05-04T14:27:21Z</time>
      </trkpt>
      <trkpt lat="46.57172" lon="-1.81164">
        <ele>45</ele>
        <time>2018-05-04T14:27:23Z</time>
      </trkpt>
      <trkpt lat="46.57174" lon="-1.81166">
        <ele>46</ele>
        <time>2018-05-04T14:27:25Z</time>
      </trkpt>
      <trkpt lat="46.57178" lon="-1.8117">
        <ele>46</ele>
        <time>2018-05-04T14:27:29Z</time>
      </trkpt>
      <trkpt lat="46.5718" lon="-1.81172">
        <ele>46</ele>
        <time>2018-05-04T14:27:31Z</time>
      </trkpt>
      <trkpt lat="46.57182" lon="-1.81174">
        <ele>46</ele>
        <time>2018-05-04T14:27:34Z</time>
      </trkpt>
      <trkpt lat="46.57187" lon="-1.81179">
        <ele>46</ele>
        <time>2018-05-04T14:27:39Z</time>
      </trkpt>
      <trkpt lat="46.57188" lon="-1.81181">
        <ele>47</ele>
        <time>2018-05-04T14:27:41Z</time>
      </trkpt>
      <trkpt lat="46.57191" lon="-1.81185">
        <ele>46</ele>
        <time>2018-05-04T14:27:45Z</time>
      </trkpt>
      <trkpt lat="46.57196" lon="-1.81189">
        <ele>47</ele>
        <time>2018-05-04T14:27:49Z</time>
      </trkpt>
      <trkpt lat="46.572" lon="-1.81194">
        <ele>47</ele>
        <time>2018-05-04T14:27:53Z</time>
      </trkpt>
      <trkpt lat="46.57203" lon="-1.81197">
        <ele>47</ele>
        <time>2018-05-04T14:27:56Z</time>
      </trkpt>
      <trkpt lat="46.57205" lon="-1.81199">
        <ele>47</ele>
        <time>2018-05-04T14:27:58Z</time>
      </trkpt>
      <trkpt lat="46.57209" lon="-1.81204">
        <ele>47</ele>
        <time>2018-05-04T14:28:03Z</time>
      </trkpt>
      <trkpt lat="46.57212" lon="-1.81211">
        <ele>47</ele>
        <time>2018-05-04T14:28:08Z</time>
      </trkpt>
      <trkpt lat="46.57216" lon="-1.81216">
        <ele>47</ele>
        <time>2018-05-04T14:28:12Z</time>
      </trkpt>
      <trkpt lat="46.57223" lon="-1.81221">
        <ele>47</ele>
        <time>2018-05-04T14:28:18Z</time>
      </trkpt>
      <trkpt lat="46.57227" lon="-1.81225">
        <ele>47</ele>
        <time>2018-05-04T14:28:22Z</time>
      </trkpt>
      <trkpt lat="46.57231" lon="-1.81229">
        <ele>46</ele>
        <time>2018-05-04T14:28:27Z</time>
      </trkpt>
      <trkpt lat="46.57235" lon="-1.81232">
        <ele>46</ele>
        <time>2018-05-04T14:28:31Z</time>
      </trkpt>
      <trkpt lat="46.57238" lon="-1.81236">
        <ele>47</ele>
        <time>2018-05-04T14:28:35Z</time>
      </trkpt>
      <trkpt lat="46.57242" lon="-1.8124">
        <ele>47</ele>
        <time>2018-05-04T14:28:39Z</time>
      </trkpt>
      <trkpt lat="46.57246" lon="-1.81243">
        <ele>46</ele>
        <time>2018-05-04T14:28:44Z</time>
      </trkpt>
      <trkpt lat="46.57248" lon="-1.8125">
        <ele>47</ele>
        <time>2018-05-04T14:28:49Z</time>
      </trkpt>
      <trkpt lat="46.57248" lon="-1.81257">
        <ele>48</ele>
        <time>2018-05-04T14:28:55Z</time>
      </trkpt>
      <trkpt lat="46.57247" lon="-1.81264">
        <ele>47</ele>
        <time>2018-05-04T14:29:00Z</time>
      </trkpt>
      <trkpt lat="46.57247" lon="-1.81264">
        <ele>47</ele>
        <time>2018-05-04T14:29:08Z</time>
      </trkpt>
      <trkpt lat="46.57247" lon="-1.81264">
        <ele>47</ele>
        <time>2018-05-04T14:29:09Z</time>
      </trkpt>
      <trkpt lat="46.57244" lon="-1.81272">
        <ele>46</ele>
        <time>2018-05-04T14:29:12Z</time>
      </trkpt>
      <trkpt lat="46.57241" lon="-1.81278">
        <ele>45</ele>
        <time>2018-05-04T14:29:17Z</time>
      </trkpt>
      <trkpt lat="46.57239" lon="-1.81282">
        <ele>45</ele>
        <time>2018-05-04T14:29:20Z</time>
      </trkpt>
      <trkpt lat="46.57237" lon="-1.81286">
        <ele>44</ele>
        <time>2018-05-04T14:29:23Z</time>
      </trkpt>
      <trkpt lat="46.57235" lon="-1.81292">
        <ele>44</ele>
        <time>2018-05-04T14:29:27Z</time>
      </trkpt>
      <trkpt lat="46.57234" lon="-1.81295">
        <ele>45</ele>
        <time>2018-05-04T14:29:29Z</time>
      </trkpt>
      <trkpt lat="46.57232" lon="-1.81298">
        <ele>44</ele>
        <time>2018-05-04T14:29:33Z</time>
      </trkpt>
      <trkpt lat="46.57229" lon="-1.81305">
        <ele>44</ele>
        <time>2018-05-04T14:29:38Z</time>
      </trkpt>
      <trkpt lat="46.57226" lon="-1.8131">
        <ele>45</ele>
        <time>2018-05-04T14:29:43Z</time>
      </trkpt>
      <trkpt lat="46.57223" lon="-1.81316">
        <ele>46</ele>
        <time>2018-05-04T14:29:49Z</time>
      </trkpt>
      <trkpt lat="46.57222" lon="-1.8132">
        <ele>46</ele>
        <time>2018-05-04T14:29:52Z</time>
      </trkpt>
      <trkpt lat="46.5722" lon="-1.81323">
        <ele>46</ele>
        <time>2018-05-04T14:29:56Z</time>
      </trkpt>
      <trkpt lat="46.57218" lon="-1.81329">
        <ele>45</ele>
        <time>2018-05-04T14:30:01Z</time>
      </trkpt>
      <trkpt lat="46.57217" lon="-1.81337">
        <ele>45</ele>
        <time>2018-05-04T14:30:08Z</time>
      </trkpt>
      <trkpt lat="46.5722" lon="-1.81343">
        <ele>44</ele>
        <time>2018-05-04T14:30:21Z</time>
      </trkpt>
      <trkpt lat="46.57222" lon="-1.81348">
        <ele>44</ele>
        <time>2018-05-04T14:31:17Z</time>
      </trkpt>
      <trkpt lat="46.57227" lon="-1.81347">
        <ele>44</ele>
        <time>2018-05-04T14:31:22Z</time>
      </trkpt>
      <trkpt lat="46.57233" lon="-1.81347">
        <ele>44</ele>
        <time>2018-05-04T14:31:28Z</time>
      </trkpt>
      <trkpt lat="46.57235" lon="-1.81347">
        <ele>44</ele>
        <time>2018-05-04T14:31:30Z</time>
      </trkpt>
      <trkpt lat="46.5724" lon="-1.81345">
        <ele>44</ele>
        <time>2018-05-04T14:31:36Z</time>
      </trkpt>
      <trkpt lat="46.57245" lon="-1.81344">
        <ele>45</ele>
        <time>2018-05-04T14:31:41Z</time>
      </trkpt>
      <trkpt lat="46.5725" lon="-1.81344">
        <ele>45</ele>
        <time>2018-05-04T14:31:47Z</time>
      </trkpt>
      <trkpt lat="46.57254" lon="-1.81342">
        <ele>45</ele>
        <time>2018-05-04T14:31:51Z</time>
      </trkpt>
      <trkpt lat="46.57257" lon="-1.81342">
        <ele>45</ele>
        <time>2018-05-04T14:31:53Z</time>
      </trkpt>
      <trkpt lat="46.57259" lon="-1.81341">
        <ele>44</ele>
        <time>2018-05-04T14:31:55Z</time>
      </trkpt>
      <trkpt lat="46.57263" lon="-1.8134">
        <ele>45</ele>
        <time>2018-05-04T14:31:59Z</time>
      </trkpt>
      <trkpt lat="46.57268" lon="-1.81339">
        <ele>45</ele>
        <time>2018-05-04T14:32:04Z</time>
      </trkpt>
      <trkpt lat="46.57272" lon="-1.81338">
        <ele>44</ele>
        <time>2018-05-04T14:32:07Z</time>
      </trkpt>
      <trkpt lat="46.57276" lon="-1.81338">
        <ele>44</ele>
        <time>2018-05-04T14:32:11Z</time>
      </trkpt>
      <trkpt lat="46.57279" lon="-1.81338">
        <ele>44</ele>
        <time>2018-05-04T14:32:14Z</time>
      </trkpt>
      <trkpt lat="46.57284" lon="-1.81338">
        <ele>44</ele>
        <time>2018-05-04T14:32:18Z</time>
      </trkpt>
      <trkpt lat="46.57286" lon="-1.81337">
        <ele>44</ele>
        <time>2018-05-04T14:32:20Z</time>
      </trkpt>
      <trkpt lat="46.57291" lon="-1.81337">
        <ele>44</ele>
        <time>2018-05-04T14:32:24Z</time>
      </trkpt>
      <trkpt lat="46.57296" lon="-1.81337">
        <ele>44</ele>
        <time>2018-05-04T14:32:29Z</time>
      </trkpt>
      <trkpt lat="46.57302" lon="-1.81337">
        <ele>44</ele>
        <time>2018-05-04T14:32:34Z</time>
      </trkpt>
      <trkpt lat="46.57307" lon="-1.81339">
        <ele>43</ele>
        <time>2018-05-04T14:32:39Z</time>
      </trkpt>
      <trkpt lat="46.5731" lon="-1.8134">
        <ele>44</ele>
        <time>2018-05-04T14:32:42Z</time>
      </trkpt>
      <trkpt lat="46.57315" lon="-1.8134">
        <ele>44</ele>
        <time>2018-05-04T14:32:45Z</time>
      </trkpt>
      <trkpt lat="46.57321" lon="-1.81341">
        <ele>44</ele>
        <time>2018-05-04T14:32:51Z</time>
      </trkpt>
      <trkpt lat="46.57325" lon="-1.8134">
        <ele>44</ele>
        <time>2018-05-04T14:32:56Z</time>
      </trkpt>
      <trkpt lat="46.5733" lon="-1.81338">
        <ele>45</ele>
        <time>2018-05-04T14:32:59Z</time>
      </trkpt>
      <trkpt lat="46.57332" lon="-1.81337">
        <ele>44</ele>
        <time>2018-05-04T14:33:02Z</time>
      </trkpt>
      <trkpt lat="46.57337" lon="-1.81333">
        <ele>44</ele>
        <time>2018-05-04T14:33:06Z</time>
      </trkpt>
      <trkpt lat="46.57342" lon="-1.8133">
        <ele>44</ele>
        <time>2018-05-04T14:33:12Z</time>
      </trkpt>
      <trkpt lat="46.57344" lon="-1.81329">
        <ele>44</ele>
        <time>2018-05-04T14:33:15Z</time>
      </trkpt>
      <trkpt lat="46.57347" lon="-1.81327">
        <ele>44</ele>
        <time>2018-05-04T14:33:17Z</time>
      </trkpt>
      <trkpt lat="46.5735" lon="-1.81325">
        <ele>44</ele>
        <time>2018-05-04T14:33:20Z</time>
      </trkpt>
      <trkpt lat="46.57355" lon="-1.81323">
        <ele>44</ele>
        <time>2018-05-04T14:33:23Z</time>
      </trkpt>
      <trkpt lat="46.57357" lon="-1.81322">
        <ele>44</ele>
        <time>2018-05-04T14:33:25Z</time>
      </trkpt>
      <trkpt lat="46.5736" lon="-1.81321">
        <ele>44</ele>
        <time>2018-05-04T14:33:28Z</time>
      </trkpt>
      <trkpt lat="46.57364" lon="-1.81317">
        <ele>44</ele>
        <time>2018-05-04T14:33:34Z</time>
      </trkpt>
      <trkpt lat="46.57367" lon="-1.81315">
        <ele>43</ele>
        <time>2018-05-04T14:33:37Z</time>
      </trkpt>
      <trkpt lat="46.5737" lon="-1.81313">
        <ele>43</ele>
        <time>2018-05-04T14:33:40Z</time>
      </trkpt>
      <trkpt lat="46.57374" lon="-1.8131">
        <ele>43</ele>
        <time>2018-05-04T14:33:45Z</time>
      </trkpt>
      <trkpt lat="46.57378" lon="-1.81307">
        <ele>43</ele>
        <time>2018-05-04T14:33:51Z</time>
      </trkpt>
      <trkpt lat="46.5738" lon="-1.81305">
        <ele>43</ele>
        <time>2018-05-04T14:33:54Z</time>
      </trkpt>
      <trkpt lat="46.57383" lon="-1.81303">
        <ele>43</ele>
        <time>2018-05-04T14:33:57Z</time>
      </trkpt>
      <trkpt lat="46.57386" lon="-1.81298">
        <ele>43</ele>
        <time>2018-05-04T14:34:01Z</time>
      </trkpt>
      <trkpt lat="46.57389" lon="-1.81295">
        <ele>43</ele>
        <time>2018-05-04T14:34:04Z</time>
      </trkpt>
      <trkpt lat="46.57391" lon="-1.81292">
        <ele>43</ele>
        <time>2018-05-04T14:34:07Z</time>
      </trkpt>
      <trkpt lat="46.57396" lon="-1.81287">
        <ele>43</ele>
        <time>2018-05-04T14:34:12Z</time>
      </trkpt>
      <trkpt lat="46.57399" lon="-1.81285">
        <ele>43</ele>
        <time>2018-05-04T14:34:15Z</time>
      </trkpt>
      <trkpt lat="46.57401" lon="-1.81283">
        <ele>43</ele>
        <time>2018-05-04T14:34:17Z</time>
      </trkpt>
      <trkpt lat="46.57404" lon="-1.81282">
        <ele>43</ele>
        <time>2018-05-04T14:34:19Z</time>
      </trkpt>
      <trkpt lat="46.57408" lon="-1.81278">
        <ele>43</ele>
        <time>2018-05-04T14:34:23Z</time>
      </trkpt>
      <trkpt lat="46.57413" lon="-1.81274">
        <ele>42</ele>
        <time>2018-05-04T14:34:28Z</time>
      </trkpt>
      <trkpt lat="46.57417" lon="-1.81272">
        <ele>42</ele>
        <time>2018-05-04T14:34:32Z</time>
      </trkpt>
      <trkpt lat="46.57419" lon="-1.81268">
        <ele>43</ele>
        <time>2018-05-04T14:34:42Z</time>
      </trkpt>
      <trkpt lat="46.57423" lon="-1.81264">
        <ele>44</ele>
        <time>2018-05-04T14:34:54Z</time>
      </trkpt>
      <trkpt lat="46.57425" lon="-1.81261">
        <ele>44</ele>
        <time>2018-05-04T14:34:57Z</time>
      </trkpt>
      <trkpt lat="46.57427" lon="-1.81258">
        <ele>43</ele>
        <time>2018-05-04T14:35:00Z</time>
      </trkpt>
      <trkpt lat="46.5743" lon="-1.81255">
        <ele>44</ele>
        <time>2018-05-04T14:35:03Z</time>
      </trkpt>
      <trkpt lat="46.57434" lon="-1.81251">
        <ele>44</ele>
        <time>2018-05-04T14:35:07Z</time>
      </trkpt>
      <trkpt lat="46.57436" lon="-1.81249">
        <ele>44</ele>
        <time>2018-05-04T14:35:10Z</time>
      </trkpt>
      <trkpt lat="46.57438" lon="-1.81246">
        <ele>44</ele>
        <time>2018-05-04T14:35:13Z</time>
      </trkpt>
      <trkpt lat="46.57442" lon="-1.81242">
        <ele>44</ele>
        <time>2018-05-04T14:35:17Z</time>
      </trkpt>
      <trkpt lat="46.57445" lon="-1.81239">
        <ele>43</ele>
        <time>2018-05-04T14:35:20Z</time>
      </trkpt>
      <trkpt lat="46.57448" lon="-1.81236">
        <ele>43</ele>
        <time>2018-05-04T14:35:24Z</time>
      </trkpt>
      <trkpt lat="46.57451" lon="-1.81231">
        <ele>42</ele>
        <time>2018-05-04T14:35:28Z</time>
      </trkpt>
      <trkpt lat="46.57456" lon="-1.81225">
        <ele>44</ele>
        <time>2018-05-04T14:35:34Z</time>
      </trkpt>
      <trkpt lat="46.57459" lon="-1.81222">
        <ele>44</ele>
        <time>2018-05-04T14:35:37Z</time>
      </trkpt>
      <trkpt lat="46.57462" lon="-1.81217">
        <ele>44</ele>
        <time>2018-05-04T14:35:42Z</time>
      </trkpt>
      <trkpt lat="46.57465" lon="-1.81213">
        <ele>43</ele>
        <time>2018-05-04T14:35:45Z</time>
      </trkpt>
      <trkpt lat="46.57469" lon="-1.81209">
        <ele>43</ele>
        <time>2018-05-04T14:35:50Z</time>
      </trkpt>
      <trkpt lat="46.57471" lon="-1.81206">
        <ele>43</ele>
        <time>2018-05-04T14:35:53Z</time>
      </trkpt>
      <trkpt lat="46.57475" lon="-1.81203">
        <ele>43</ele>
        <time>2018-05-04T14:35:57Z</time>
      </trkpt>
      <trkpt lat="46.57479" lon="-1.81199">
        <ele>43</ele>
        <time>2018-05-04T14:36:00Z</time>
      </trkpt>
      <trkpt lat="46.57481" lon="-1.81196">
        <ele>43</ele>
        <time>2018-05-04T14:36:02Z</time>
      </trkpt>
      <trkpt lat="46.57485" lon="-1.81192">
        <ele>43</ele>
        <time>2018-05-04T14:36:08Z</time>
      </trkpt>
      <trkpt lat="46.57488" lon="-1.81188">
        <ele>42</ele>
        <time>2018-05-04T14:36:12Z</time>
      </trkpt>
      <trkpt lat="46.57491" lon="-1.81184">
        <ele>42</ele>
        <time>2018-05-04T14:36:17Z</time>
      </trkpt>
      <trkpt lat="46.57492" lon="-1.81182">
        <ele>42</ele>
        <time>2018-05-04T14:36:20Z</time>
      </trkpt>
      <trkpt lat="46.57494" lon="-1.8118">
        <ele>43</ele>
        <time>2018-05-04T14:36:23Z</time>
      </trkpt>
      <trkpt lat="46.57497" lon="-1.81178">
        <ele>43</ele>
        <time>2018-05-04T14:36:31Z</time>
      </trkpt>
      <trkpt lat="46.575" lon="-1.81173">
        <ele>43</ele>
        <time>2018-05-04T14:36:44Z</time>
      </trkpt>
      <trkpt lat="46.57504" lon="-1.81168">
        <ele>44</ele>
        <time>2018-05-04T14:36:51Z</time>
      </trkpt>
      <trkpt lat="46.57506" lon="-1.81165">
        <ele>44</ele>
        <time>2018-05-04T14:36:54Z</time>
      </trkpt>
      <trkpt lat="46.5751" lon="-1.81161">
        <ele>43</ele>
        <time>2018-05-04T14:36:58Z</time>
      </trkpt>
      <trkpt lat="46.57513" lon="-1.81155">
        <ele>44</ele>
        <time>2018-05-04T14:37:03Z</time>
      </trkpt>
      <trkpt lat="46.57518" lon="-1.8115">
        <ele>44</ele>
        <time>2018-05-04T14:37:08Z</time>
      </trkpt>
      <trkpt lat="46.5752" lon="-1.81148">
        <ele>44</ele>
        <time>2018-05-04T14:37:12Z</time>
      </trkpt>
      <trkpt lat="46.57522" lon="-1.81146">
        <ele>44</ele>
        <time>2018-05-04T14:37:15Z</time>
      </trkpt>
      <trkpt lat="46.57524" lon="-1.81143">
        <ele>43</ele>
        <time>2018-05-04T14:37:19Z</time>
      </trkpt>
      <trkpt lat="46.57529" lon="-1.81138">
        <ele>42</ele>
        <time>2018-05-04T14:37:25Z</time>
      </trkpt>
      <trkpt lat="46.57531" lon="-1.81136">
        <ele>42</ele>
        <time>2018-05-04T14:37:27Z</time>
      </trkpt>
      <trkpt lat="46.57534" lon="-1.81133">
        <ele>42</ele>
        <time>2018-05-04T14:37:29Z</time>
      </trkpt>
      <trkpt lat="46.57536" lon="-1.81131">
        <ele>43</ele>
        <time>2018-05-04T14:37:31Z</time>
      </trkpt>
      <trkpt lat="46.57538" lon="-1.81128">
        <ele>43</ele>
        <time>2018-05-04T14:37:33Z</time>
      </trkpt>
      <trkpt lat="46.5754" lon="-1.81125">
        <ele>43</ele>
        <time>2018-05-04T14:37:36Z</time>
      </trkpt>
      <trkpt lat="46.57544" lon="-1.8112">
        <ele>42</ele>
        <time>2018-05-04T14:37:41Z</time>
      </trkpt>
      <trkpt lat="46.57546" lon="-1.81117">
        <ele>42</ele>
        <time>2018-05-04T14:37:44Z</time>
      </trkpt>
      <trkpt lat="46.57549" lon="-1.81112">
        <ele>42</ele>
        <time>2018-05-04T14:37:49Z</time>
      </trkpt>
      <trkpt lat="46.57551" lon="-1.81109">
        <ele>42</ele>
        <time>2018-05-04T14:37:51Z</time>
      </trkpt>
      <trkpt lat="46.57552" lon="-1.81107">
        <ele>43</ele>
        <time>2018-05-04T14:37:53Z</time>
      </trkpt>
      <trkpt lat="46.57555" lon="-1.811">
        <ele>42</ele>
        <time>2018-05-04T14:37:59Z</time>
      </trkpt>
      <trkpt lat="46.57556" lon="-1.81096">
        <ele>42</ele>
        <time>2018-05-04T14:38:02Z</time>
      </trkpt>
      <trkpt lat="46.57558" lon="-1.81089">
        <ele>42</ele>
        <time>2018-05-04T14:38:06Z</time>
      </trkpt>
      <trkpt lat="46.57559" lon="-1.81082">
        <ele>42</ele>
        <time>2018-05-04T14:38:11Z</time>
      </trkpt>
      <trkpt lat="46.57558" lon="-1.81074">
        <ele>42</ele>
        <time>2018-05-04T14:38:16Z</time>
      </trkpt>
      <trkpt lat="46.57559" lon="-1.81067">
        <ele>42</ele>
        <time>2018-05-04T14:38:20Z</time>
      </trkpt>
      <trkpt lat="46.5756" lon="-1.8106">
        <ele>42</ele>
        <time>2018-05-04T14:38:25Z</time>
      </trkpt>
      <trkpt lat="46.57562" lon="-1.81053">
        <ele>42</ele>
        <time>2018-05-04T14:38:29Z</time>
      </trkpt>
      <trkpt lat="46.57566" lon="-1.8105">
        <ele>43</ele>
        <time>2018-05-04T14:38:34Z</time>
      </trkpt>
      <trkpt lat="46.57571" lon="-1.81048">
        <ele>44</ele>
        <time>2018-05-04T14:38:40Z</time>
      </trkpt>
      <trkpt lat="46.57577" lon="-1.81049">
        <ele>43</ele>
        <time>2018-05-04T14:38:45Z</time>
      </trkpt>
      <trkpt lat="46.57581" lon="-1.81052">
        <ele>44</ele>
        <time>2018-05-04T14:38:50Z</time>
      </trkpt>
      <trkpt lat="46.57584" lon="-1.81058">
        <ele>44</ele>
        <time>2018-05-04T14:38:55Z</time>
      </trkpt>
      <trkpt lat="46.57586" lon="-1.81062">
        <ele>44</ele>
        <time>2018-05-04T14:38:58Z</time>
      </trkpt>
      <trkpt lat="46.57588" lon="-1.81068">
        <ele>45</ele>
        <time>2018-05-04T14:39:03Z</time>
      </trkpt>
      <trkpt lat="46.57594" lon="-1.81073">
        <ele>46</ele>
        <time>2018-05-04T14:39:09Z</time>
      </trkpt>
      <trkpt lat="46.57598" lon="-1.81073">
        <ele>46</ele>
        <time>2018-05-04T14:39:13Z</time>
      </trkpt>
      <trkpt lat="46.57603" lon="-1.81069">
        <ele>46</ele>
        <time>2018-05-04T14:39:17Z</time>
      </trkpt>
      <trkpt lat="46.57606" lon="-1.81067">
        <ele>45</ele>
        <time>2018-05-04T14:39:21Z</time>
      </trkpt>
      <trkpt lat="46.57608" lon="-1.81065">
        <ele>45</ele>
        <time>2018-05-04T14:39:23Z</time>
      </trkpt>
      <trkpt lat="46.5761" lon="-1.81063">
        <ele>45</ele>
        <time>2018-05-04T14:39:25Z</time>
      </trkpt>
      <trkpt lat="46.57612" lon="-1.81061">
        <ele>45</ele>
        <time>2018-05-04T14:39:28Z</time>
      </trkpt>
      <trkpt lat="46.57616" lon="-1.81057">
        <ele>45</ele>
        <time>2018-05-04T14:39:33Z</time>
      </trkpt>
      <trkpt lat="46.5762" lon="-1.81054">
        <ele>45</ele>
        <time>2018-05-04T14:39:37Z</time>
      </trkpt>
      <trkpt lat="46.57624" lon="-1.8105">
        <ele>45</ele>
        <time>2018-05-04T14:39:42Z</time>
      </trkpt>
      <trkpt lat="46.57626" lon="-1.81048">
        <ele>45</ele>
        <time>2018-05-04T14:39:44Z</time>
      </trkpt>
      <trkpt lat="46.5763" lon="-1.81046">
        <ele>45</ele>
        <time>2018-05-04T14:39:49Z</time>
      </trkpt>
      <trkpt lat="46.57634" lon="-1.81044">
        <ele>45</ele>
        <time>2018-05-04T14:39:53Z</time>
      </trkpt>
      <trkpt lat="46.57637" lon="-1.81043">
        <ele>45</ele>
        <time>2018-05-04T14:39:57Z</time>
      </trkpt>
      <trkpt lat="46.57643" lon="-1.81039">
        <ele>45</ele>
        <time>2018-05-04T14:40:02Z</time>
      </trkpt>
      <trkpt lat="46.57648" lon="-1.81036">
        <ele>45</ele>
        <time>2018-05-04T14:40:07Z</time>
      </trkpt>
      <trkpt lat="46.57651" lon="-1.81034">
        <ele>45</ele>
        <time>2018-05-04T14:40:09Z</time>
      </trkpt>
      <trkpt lat="46.57653" lon="-1.81033">
        <ele>45</ele>
        <time>2018-05-04T14:40:11Z</time>
      </trkpt>
      <trkpt lat="46.57656" lon="-1.81031">
        <ele>45</ele>
        <time>2018-05-04T14:40:14Z</time>
      </trkpt>
      <trkpt lat="46.57658" lon="-1.8103">
        <ele>45</ele>
        <time>2018-05-04T14:40:17Z</time>
      </trkpt>
      <trkpt lat="46.57663" lon="-1.81028">
        <ele>45</ele>
        <time>2018-05-04T14:40:22Z</time>
      </trkpt>
      <trkpt lat="46.57668" lon="-1.81027">
        <ele>45</ele>
        <time>2018-05-04T14:40:26Z</time>
      </trkpt>
      <trkpt lat="46.57671" lon="-1.81025">
        <ele>45</ele>
        <time>2018-05-04T14:40:29Z</time>
      </trkpt>
      <trkpt lat="46.57676" lon="-1.81022">
        <ele>45</ele>
        <time>2018-05-04T14:40:34Z</time>
      </trkpt>
      <trkpt lat="46.57678" lon="-1.8102">
        <ele>45</ele>
        <time>2018-05-04T14:40:37Z</time>
      </trkpt>
      <trkpt lat="46.57682" lon="-1.81014">
        <ele>44</ele>
        <time>2018-05-04T14:40:43Z</time>
      </trkpt>
      <trkpt lat="46.57685" lon="-1.81008">
        <ele>44</ele>
        <time>2018-05-04T14:40:47Z</time>
      </trkpt>
      <trkpt lat="46.57686" lon="-1.81005">
        <ele>44</ele>
        <time>2018-05-04T14:40:49Z</time>
      </trkpt>
      <trkpt lat="46.57688" lon="-1.80999">
        <ele>44</ele>
        <time>2018-05-04T14:40:53Z</time>
      </trkpt>
      <trkpt lat="46.5769" lon="-1.80993">
        <ele>43</ele>
        <time>2018-05-04T14:40:57Z</time>
      </trkpt>
      <trkpt lat="46.57692" lon="-1.80989">
        <ele>43</ele>
        <time>2018-05-04T14:41:00Z</time>
      </trkpt>
      <trkpt lat="46.57693" lon="-1.80986">
        <ele>43</ele>
        <time>2018-05-04T14:41:02Z</time>
      </trkpt>
      <trkpt lat="46.57698" lon="-1.80981">
        <ele>43</ele>
        <time>2018-05-04T14:41:10Z</time>
      </trkpt>
      <trkpt lat="46.57702" lon="-1.80978">
        <ele>43</ele>
        <time>2018-05-04T14:41:20Z</time>
      </trkpt>
      <trkpt lat="46.57708" lon="-1.80977">
        <ele>45</ele>
        <time>2018-05-04T14:41:56Z</time>
      </trkpt>
      <trkpt lat="46.57713" lon="-1.8098">
        <ele>44</ele>
        <time>2018-05-04T14:42:02Z</time>
      </trkpt>
      <trkpt lat="46.57715" lon="-1.80982">
        <ele>44</ele>
        <time>2018-05-04T14:42:05Z</time>
      </trkpt>
      <trkpt lat="46.57721" lon="-1.80987">
        <ele>44</ele>
        <time>2018-05-04T14:42:13Z</time>
      </trkpt>
      <trkpt lat="46.57727" lon="-1.8099">
        <ele>44</ele>
        <time>2018-05-04T14:42:18Z</time>
      </trkpt>
      <trkpt lat="46.57733" lon="-1.80989">
        <ele>43</ele>
        <time>2018-05-04T14:42:24Z</time>
      </trkpt>
      <trkpt lat="46.57738" lon="-1.80987">
        <ele>43</ele>
        <time>2018-05-04T14:42:29Z</time>
      </trkpt>
      <trkpt lat="46.57743" lon="-1.80986">
        <ele>43</ele>
        <time>2018-05-04T14:42:34Z</time>
      </trkpt>
      <trkpt lat="46.57746" lon="-1.80982">
        <ele>44</ele>
        <time>2018-05-04T14:42:38Z</time>
      </trkpt>
      <trkpt lat="46.57752" lon="-1.80978">
        <ele>44</ele>
        <time>2018-05-04T14:42:43Z</time>
      </trkpt>
      <trkpt lat="46.57754" lon="-1.80976">
        <ele>44</ele>
        <time>2018-05-04T14:42:45Z</time>
      </trkpt>
      <trkpt lat="46.57758" lon="-1.80972">
        <ele>44</ele>
        <time>2018-05-04T14:42:50Z</time>
      </trkpt>
      <trkpt lat="46.57759" lon="-1.8097">
        <ele>43</ele>
        <time>2018-05-04T14:42:53Z</time>
      </trkpt>
      <trkpt lat="46.57762" lon="-1.80967">
        <ele>43</ele>
        <time>2018-05-04T14:42:57Z</time>
      </trkpt>
      <trkpt lat="46.57765" lon="-1.80963">
        <ele>42</ele>
        <time>2018-05-04T14:43:01Z</time>
      </trkpt>
      <trkpt lat="46.5777" lon="-1.80961">
        <ele>42</ele>
        <time>2018-05-04T14:43:05Z</time>
      </trkpt>
      <trkpt lat="46.57775" lon="-1.80959">
        <ele>43</ele>
        <time>2018-05-04T14:43:09Z</time>
      </trkpt>
      <trkpt lat="46.57777" lon="-1.80958">
        <ele>44</ele>
        <time>2018-05-04T14:43:11Z</time>
      </trkpt>
      <trkpt lat="46.57782" lon="-1.80962">
        <ele>44</ele>
        <time>2018-05-04T14:43:16Z</time>
      </trkpt>
      <trkpt lat="46.57785" lon="-1.80967">
        <ele>44</ele>
        <time>2018-05-04T14:43:20Z</time>
      </trkpt>
      <trkpt lat="46.57787" lon="-1.8097">
        <ele>44</ele>
        <time>2018-05-04T14:43:22Z</time>
      </trkpt>
      <trkpt lat="46.57788" lon="-1.80973">
        <ele>45</ele>
        <time>2018-05-04T14:43:25Z</time>
      </trkpt>
      <trkpt lat="46.57793" lon="-1.80976">
        <ele>46</ele>
        <time>2018-05-04T14:43:30Z</time>
      </trkpt>
      <trkpt lat="46.57795" lon="-1.80978">
        <ele>46</ele>
        <time>2018-05-04T14:43:33Z</time>
      </trkpt>
      <trkpt lat="46.578" lon="-1.80981">
        <ele>45</ele>
        <time>2018-05-04T14:43:39Z</time>
      </trkpt>
      <trkpt lat="46.57805" lon="-1.80983">
        <ele>45</ele>
        <time>2018-05-04T14:43:44Z</time>
      </trkpt>
      <trkpt lat="46.57808" lon="-1.80984">
        <ele>44</ele>
        <time>2018-05-04T14:43:47Z</time>
      </trkpt>
      <trkpt lat="46.5781" lon="-1.80986">
        <ele>45</ele>
        <time>2018-05-04T14:43:50Z</time>
      </trkpt>
      <trkpt lat="46.57814" lon="-1.80987">
        <ele>44</ele>
        <time>2018-05-04T14:43:53Z</time>
      </trkpt>
      <trkpt lat="46.57818" lon="-1.80989">
        <ele>44</ele>
        <time>2018-05-04T14:43:57Z</time>
      </trkpt>
      <trkpt lat="46.57823" lon="-1.8099">
        <ele>44</ele>
        <time>2018-05-04T14:44:02Z</time>
      </trkpt>
      <trkpt lat="46.57828" lon="-1.80992">
        <ele>43</ele>
        <time>2018-05-04T14:44:07Z</time>
      </trkpt>
      <trkpt lat="46.57833" lon="-1.80994">
        <ele>43</ele>
        <time>2018-05-04T14:44:11Z</time>
      </trkpt>
      <trkpt lat="46.57835" lon="-1.80996">
        <ele>44</ele>
        <time>2018-05-04T14:44:14Z</time>
      </trkpt>
      <trkpt lat="46.5784" lon="-1.80998">
        <ele>44</ele>
        <time>2018-05-04T14:44:18Z</time>
      </trkpt>
      <trkpt lat="46.57843" lon="-1.80999">
        <ele>44</ele>
        <time>2018-05-04T14:44:21Z</time>
      </trkpt>
      <trkpt lat="46.57845" lon="-1.81001">
        <ele>44</ele>
        <time>2018-05-04T14:44:24Z</time>
      </trkpt>
      <trkpt lat="46.57849" lon="-1.81005">
        <ele>44</ele>
        <time>2018-05-04T14:44:28Z</time>
      </trkpt>
      <trkpt lat="46.57853" lon="-1.8101">
        <ele>44</ele>
        <time>2018-05-04T14:44:32Z</time>
      </trkpt>
      <trkpt lat="46.57857" lon="-1.81015">
        <ele>44</ele>
        <time>2018-05-04T14:44:36Z</time>
      </trkpt>
      <trkpt lat="46.5786" lon="-1.81018">
        <ele>44</ele>
        <time>2018-05-04T14:44:39Z</time>
      </trkpt>
      <trkpt lat="46.57864" lon="-1.81022">
        <ele>45</ele>
        <time>2018-05-04T14:44:43Z</time>
      </trkpt>
      <trkpt lat="46.57867" lon="-1.81028">
        <ele>44</ele>
        <time>2018-05-04T14:44:48Z</time>
      </trkpt>
      <trkpt lat="46.57871" lon="-1.81032">
        <ele>44</ele>
        <time>2018-05-04T14:44:52Z</time>
      </trkpt>
      <trkpt lat="46.57875" lon="-1.81036">
        <ele>45</ele>
        <time>2018-05-04T14:44:55Z</time>
      </trkpt>
      <trkpt lat="46.57878" lon="-1.81042">
        <ele>45</ele>
        <time>2018-05-04T14:45:00Z</time>
      </trkpt>
      <trkpt lat="46.57882" lon="-1.81045">
        <ele>45</ele>
        <time>2018-05-04T14:45:04Z</time>
      </trkpt>
      <trkpt lat="46.57886" lon="-1.81048">
        <ele>45</ele>
        <time>2018-05-04T14:45:08Z</time>
      </trkpt>
      <trkpt lat="46.5789" lon="-1.81054">
        <ele>45</ele>
        <time>2018-05-04T14:45:13Z</time>
      </trkpt>
      <trkpt lat="46.57893" lon="-1.81058">
        <ele>45</ele>
        <time>2018-05-04T14:45:16Z</time>
      </trkpt>
      <trkpt lat="46.57896" lon="-1.81063">
        <ele>44</ele>
        <time>2018-05-04T14:45:21Z</time>
      </trkpt>
      <trkpt lat="46.57899" lon="-1.81069">
        <ele>44</ele>
        <time>2018-05-04T14:45:26Z</time>
      </trkpt>
      <trkpt lat="46.57901" lon="-1.81076">
        <ele>44</ele>
        <time>2018-05-04T14:45:31Z</time>
      </trkpt>
      <trkpt lat="46.57902" lon="-1.81079">
        <ele>45</ele>
        <time>2018-05-04T14:45:33Z</time>
      </trkpt>
      <trkpt lat="46.57904" lon="-1.81083">
        <ele>44</ele>
        <time>2018-05-04T14:45:36Z</time>
      </trkpt>
      <trkpt lat="46.57904" lon="-1.81091">
        <ele>45</ele>
        <time>2018-05-04T14:45:41Z</time>
      </trkpt>
      <trkpt lat="46.57905" lon="-1.81098">
        <ele>45</ele>
        <time>2018-05-04T14:45:46Z</time>
      </trkpt>
      <trkpt lat="46.57906" lon="-1.81105">
        <ele>45</ele>
        <time>2018-05-04T14:45:51Z</time>
      </trkpt>
      <trkpt lat="46.57905" lon="-1.81112">
        <ele>45</ele>
        <time>2018-05-04T14:45:55Z</time>
      </trkpt>
      <trkpt lat="46.57905" lon="-1.81115">
        <ele>46</ele>
        <time>2018-05-04T14:45:57Z</time>
      </trkpt>
      <trkpt lat="46.57905" lon="-1.81123">
        <ele>47</ele>
        <time>2018-05-04T14:46:02Z</time>
      </trkpt>
      <trkpt lat="46.57905" lon="-1.81128">
        <ele>47</ele>
        <time>2018-05-04T14:46:05Z</time>
      </trkpt>
      <trkpt lat="46.57905" lon="-1.81135">
        <ele>47</ele>
        <time>2018-05-04T14:46:09Z</time>
      </trkpt>
      <trkpt lat="46.57905" lon="-1.81144">
        <ele>47</ele>
        <time>2018-05-04T14:46:15Z</time>
      </trkpt>
      <trkpt lat="46.57905" lon="-1.81149">
        <ele>47</ele>
        <time>2018-05-04T14:46:18Z</time>
      </trkpt>
      <trkpt lat="46.57905" lon="-1.81154">
        <ele>47</ele>
        <time>2018-05-04T14:46:21Z</time>
      </trkpt>
      <trkpt lat="46.57905" lon="-1.81161">
        <ele>47</ele>
        <time>2018-05-04T14:46:25Z</time>
      </trkpt>
      <trkpt lat="46.57905" lon="-1.81165">
        <ele>47</ele>
        <time>2018-05-04T14:46:27Z</time>
      </trkpt>
      <trkpt lat="46.57905" lon="-1.81171">
        <ele>47</ele>
        <time>2018-05-04T14:46:31Z</time>
      </trkpt>
      <trkpt lat="46.57905" lon="-1.81177">
        <ele>47</ele>
        <time>2018-05-04T14:46:34Z</time>
      </trkpt>
      <trkpt lat="46.57905" lon="-1.81182">
        <ele>47</ele>
        <time>2018-05-04T14:46:36Z</time>
      </trkpt>
      <trkpt lat="46.57906" lon="-1.8119">
        <ele>47</ele>
        <time>2018-05-04T14:46:41Z</time>
      </trkpt>
      <trkpt lat="46.57905" lon="-1.81198">
        <ele>47</ele>
        <time>2018-05-04T14:46:45Z</time>
      </trkpt>
      <trkpt lat="46.57904" lon="-1.81202">
        <ele>47</ele>
        <time>2018-05-04T14:46:47Z</time>
      </trkpt>
      <trkpt lat="46.579" lon="-1.81207">
        <ele>47</ele>
        <time>2018-05-04T14:46:52Z</time>
      </trkpt>
      <trkpt lat="46.57895" lon="-1.81207">
        <ele>47</ele>
        <time>2018-05-04T14:46:56Z</time>
      </trkpt>
      <trkpt lat="46.5789" lon="-1.81206">
        <ele>46</ele>
        <time>2018-05-04T14:47:01Z</time>
      </trkpt>
      <trkpt lat="46.57887" lon="-1.81204">
        <ele>46</ele>
        <time>2018-05-04T14:47:04Z</time>
      </trkpt>
      <trkpt lat="46.57884" lon="-1.81203">
        <ele>46</ele>
        <time>2018-05-04T14:47:08Z</time>
      </trkpt>
      <trkpt lat="46.57878" lon="-1.81202">
        <ele>46</ele>
        <time>2018-05-04T14:47:12Z</time>
      </trkpt>
      <trkpt lat="46.57874" lon="-1.81201">
        <ele>45</ele>
        <time>2018-05-04T14:47:16Z</time>
      </trkpt>
      <trkpt lat="46.57868" lon="-1.81201">
        <ele>46</ele>
        <time>2018-05-04T14:47:21Z</time>
      </trkpt>
      <trkpt lat="46.57866" lon="-1.81201">
        <ele>45</ele>
        <time>2018-05-04T14:47:24Z</time>
      </trkpt>
      <trkpt lat="46.57863" lon="-1.81201">
        <ele>45</ele>
        <time>2018-05-04T14:47:26Z</time>
      </trkpt>
      <trkpt lat="46.57858" lon="-1.81203">
        <ele>46</ele>
        <time>2018-05-04T14:47:32Z</time>
      </trkpt>
      <trkpt lat="46.57855" lon="-1.81208">
        <ele>47</ele>
        <time>2018-05-04T14:47:41Z</time>
      </trkpt>
      <trkpt lat="46.57851" lon="-1.81213">
        <ele>46</ele>
        <time>2018-05-04T14:47:46Z</time>
      </trkpt>
      <trkpt lat="46.57847" lon="-1.81217">
        <ele>46</ele>
        <time>2018-05-04T14:47:51Z</time>
      </trkpt>
      <trkpt lat="46.57844" lon="-1.81219">
        <ele>46</ele>
        <time>2018-05-04T14:47:54Z</time>
      </trkpt>
      <trkpt lat="46.5784" lon="-1.81223">
        <ele>46</ele>
        <time>2018-05-04T14:48:00Z</time>
      </trkpt>
      <trkpt lat="46.57836" lon="-1.81227">
        <ele>46</ele>
        <time>2018-05-04T14:48:04Z</time>
      </trkpt>
      <trkpt lat="46.57834" lon="-1.8123">
        <ele>46</ele>
        <time>2018-05-04T14:48:06Z</time>
      </trkpt>
      <trkpt lat="46.57832" lon="-1.81232">
        <ele>46</ele>
        <time>2018-05-04T14:48:08Z</time>
      </trkpt>
      <trkpt lat="46.5783" lon="-1.81234">
        <ele>46</ele>
        <time>2018-05-04T14:48:10Z</time>
      </trkpt>
      <trkpt lat="46.57827" lon="-1.81237">
        <ele>46</ele>
        <time>2018-05-04T14:48:13Z</time>
      </trkpt>
      <trkpt lat="46.57825" lon="-1.81239">
        <ele>46</ele>
        <time>2018-05-04T14:48:16Z</time>
      </trkpt>
      <trkpt lat="46.57823" lon="-1.81241">
        <ele>47</ele>
        <time>2018-05-04T14:48:18Z</time>
      </trkpt>
      <trkpt lat="46.5782" lon="-1.81244">
        <ele>47</ele>
        <time>2018-05-04T14:48:21Z</time>
      </trkpt>
      <trkpt lat="46.57817" lon="-1.81247">
        <ele>47</ele>
        <time>2018-05-04T14:48:24Z</time>
      </trkpt>
      <trkpt lat="46.57814" lon="-1.81251">
        <ele>47</ele>
        <time>2018-05-04T14:48:28Z</time>
      </trkpt>
      <trkpt lat="46.57812" lon="-1.81254">
        <ele>47</ele>
        <time>2018-05-04T14:48:30Z</time>
      </trkpt>
      <trkpt lat="46.5781" lon="-1.81256">
        <ele>47</ele>
        <time>2018-05-04T14:48:32Z</time>
      </trkpt>
      <trkpt lat="46.57808" lon="-1.81258">
        <ele>47</ele>
        <time>2018-05-04T14:48:34Z</time>
      </trkpt>
      <trkpt lat="46.57804" lon="-1.81263">
        <ele>47</ele>
        <time>2018-05-04T14:48:38Z</time>
      </trkpt>
      <trkpt lat="46.57803" lon="-1.81265">
        <ele>47</ele>
        <time>2018-05-04T14:48:40Z</time>
      </trkpt>
      <trkpt lat="46.57799" lon="-1.81269">
        <ele>47</ele>
        <time>2018-05-04T14:48:44Z</time>
      </trkpt>
      <trkpt lat="46.57797" lon="-1.8127">
        <ele>47</ele>
        <time>2018-05-04T14:48:46Z</time>
      </trkpt>
      <trkpt lat="46.57794" lon="-1.81273">
        <ele>47</ele>
        <time>2018-05-04T14:48:49Z</time>
      </trkpt>
      <trkpt lat="46.57791" lon="-1.81278">
        <ele>47</ele>
        <time>2018-05-04T14:48:53Z</time>
      </trkpt>
      <trkpt lat="46.57786" lon="-1.81282">
        <ele>47</ele>
        <time>2018-05-04T14:48:58Z</time>
      </trkpt>
      <trkpt lat="46.57781" lon="-1.81286">
        <ele>46</ele>
        <time>2018-05-04T14:49:04Z</time>
      </trkpt>
      <trkpt lat="46.57776" lon="-1.81291">
        <ele>46</ele>
        <time>2018-05-04T14:49:09Z</time>
      </trkpt>
      <trkpt lat="46.57772" lon="-1.81296">
        <ele>46</ele>
        <time>2018-05-04T14:49:14Z</time>
      </trkpt>
      <trkpt lat="46.5777" lon="-1.81299">
        <ele>46</ele>
        <time>2018-05-04T14:49:17Z</time>
      </trkpt>
      <trkpt lat="46.57768" lon="-1.81301">
        <ele>46</ele>
        <time>2018-05-04T14:49:19Z</time>
      </trkpt>
      <trkpt lat="46.57765" lon="-1.81304">
        <ele>46</ele>
        <time>2018-05-04T14:49:22Z</time>
      </trkpt>
      <trkpt lat="46.57763" lon="-1.81306">
        <ele>46</ele>
        <time>2018-05-04T14:49:24Z</time>
      </trkpt>
      <trkpt lat="46.57761" lon="-1.81308">
        <ele>46</ele>
        <time>2018-05-04T14:49:27Z</time>
      </trkpt>
      <trkpt lat="46.57757" lon="-1.81313">
        <ele>46</ele>
        <time>2018-05-04T14:49:32Z</time>
      </trkpt>
      <trkpt lat="46.57755" lon="-1.81315">
        <ele>46</ele>
        <time>2018-05-04T14:49:34Z</time>
      </trkpt>
      <trkpt lat="46.57751" lon="-1.8132">
        <ele>45</ele>
        <time>2018-05-04T14:49:38Z</time>
      </trkpt>
      <trkpt lat="46.57747" lon="-1.81326">
        <ele>46</ele>
        <time>2018-05-04T14:49:43Z</time>
      </trkpt>
      <trkpt lat="46.57742" lon="-1.8133">
        <ele>46</ele>
        <time>2018-05-04T14:49:48Z</time>
      </trkpt>
      <trkpt lat="46.5774" lon="-1.81332">
        <ele>47</ele>
        <time>2018-05-04T14:49:50Z</time>
      </trkpt>
      <trkpt lat="46.57736" lon="-1.81336">
        <ele>46</ele>
        <time>2018-05-04T14:49:55Z</time>
      </trkpt>
      <trkpt lat="46.57734" lon="-1.81338">
        <ele>45</ele>
        <time>2018-05-04T14:49:57Z</time>
      </trkpt>
      <trkpt lat="46.57731" lon="-1.8134">
        <ele>45</ele>
        <time>2018-05-04T14:50:00Z</time>
      </trkpt>
      <trkpt lat="46.57727" lon="-1.81344">
        <ele>45</ele>
        <time>2018-05-04T14:50:05Z</time>
      </trkpt>
      <trkpt lat="46.57723" lon="-1.81348">
        <ele>45</ele>
        <time>2018-05-04T14:50:09Z</time>
      </trkpt>
      <trkpt lat="46.57722" lon="-1.8135">
        <ele>45</ele>
        <time>2018-05-04T14:50:11Z</time>
      </trkpt>
      <trkpt lat="46.57718" lon="-1.81353">
        <ele>46</ele>
        <time>2018-05-04T14:50:15Z</time>
      </trkpt>
      <trkpt lat="46.57716" lon="-1.81356">
        <ele>46</ele>
        <time>2018-05-04T14:50:18Z</time>
      </trkpt>
      <trkpt lat="46.57714" lon="-1.81358">
        <ele>46</ele>
        <time>2018-05-04T14:50:20Z</time>
      </trkpt>
      <trkpt lat="46.57712" lon="-1.8136">
        <ele>46</ele>
        <time>2018-05-04T14:50:22Z</time>
      </trkpt>
      <trkpt lat="46.57708" lon="-1.81362">
        <ele>46</ele>
        <time>2018-05-04T14:50:26Z</time>
      </trkpt>
      <trkpt lat="46.57707" lon="-1.81364">
        <ele>45</ele>
        <time>2018-05-04T14:50:28Z</time>
      </trkpt>
      <trkpt lat="46.57704" lon="-1.81367">
        <ele>45</ele>
        <time>2018-05-04T14:50:31Z</time>
      </trkpt>
      <trkpt lat="46.57699" lon="-1.81369">
        <ele>44</ele>
        <time>2018-05-04T14:50:35Z</time>
      </trkpt>
      <trkpt lat="46.57695" lon="-1.81371">
        <ele>44</ele>
        <time>2018-05-04T14:50:40Z</time>
      </trkpt>
      <trkpt lat="46.57691" lon="-1.81376">
        <ele>44</ele>
        <time>2018-05-04T14:50:47Z</time>
      </trkpt>
      <trkpt lat="46.57688" lon="-1.81378">
        <ele>44</ele>
        <time>2018-05-04T14:50:52Z</time>
      </trkpt>
      <trkpt lat="46.57684" lon="-1.81383">
        <ele>45</ele>
        <time>2018-05-04T14:50:57Z</time>
      </trkpt>
      <trkpt lat="46.57682" lon="-1.81386">
        <ele>45</ele>
        <time>2018-05-04T14:50:59Z</time>
      </trkpt>
      <trkpt lat="46.5768" lon="-1.81387">
        <ele>45</ele>
        <time>2018-05-04T14:51:01Z</time>
      </trkpt>
      <trkpt lat="46.57678" lon="-1.81389">
        <ele>45</ele>
        <time>2018-05-04T14:51:04Z</time>
      </trkpt>
      <trkpt lat="46.57673" lon="-1.81392">
        <ele>44</ele>
        <time>2018-05-04T14:51:09Z</time>
      </trkpt>
      <trkpt lat="46.57669" lon="-1.81397">
        <ele>45</ele>
        <time>2018-05-04T14:51:14Z</time>
      </trkpt>
      <trkpt lat="46.57666" lon="-1.81404">
        <ele>46</ele>
        <time>2018-05-04T14:51:18Z</time>
      </trkpt>
      <trkpt lat="46.57665" lon="-1.81411">
        <ele>46</ele>
        <time>2018-05-04T14:51:22Z</time>
      </trkpt>
      <trkpt lat="46.57666" lon="-1.81418">
        <ele>46</ele>
        <time>2018-05-04T14:51:26Z</time>
      </trkpt>
      <trkpt lat="46.57667" lon="-1.81421">
        <ele>46</ele>
        <time>2018-05-04T14:51:29Z</time>
      </trkpt>
      <trkpt lat="46.5767" lon="-1.81427">
        <ele>45</ele>
        <time>2018-05-04T14:51:34Z</time>
      </trkpt>
      <trkpt lat="46.57672" lon="-1.81433">
        <ele>45</ele>
        <time>2018-05-04T14:51:38Z</time>
      </trkpt>
      <trkpt lat="46.57674" lon="-1.81436">
        <ele>45</ele>
        <time>2018-05-04T14:51:40Z</time>
      </trkpt>
      <trkpt lat="46.57676" lon="-1.81441">
        <ele>45</ele>
        <time>2018-05-04T14:51:44Z</time>
      </trkpt>
      <trkpt lat="46.57678" lon="-1.81448">
        <ele>44</ele>
        <time>2018-05-04T14:51:49Z</time>
      </trkpt>
      <trkpt lat="46.57679" lon="-1.81455">
        <ele>44</ele>
        <time>2018-05-04T14:51:54Z</time>
      </trkpt>
      <trkpt lat="46.57679" lon="-1.8146">
        <ele>45</ele>
        <time>2018-05-04T14:51:57Z</time>
      </trkpt>
      <trkpt lat="46.57681" lon="-1.81468">
        <ele>44</ele>
        <time>2018-05-04T14:52:03Z</time>
      </trkpt>
      <trkpt lat="46.57677" lon="-1.81474">
        <ele>44</ele>
        <time>2018-05-04T14:52:08Z</time>
      </trkpt>
      <trkpt lat="46.57673" lon="-1.81477">
        <ele>44</ele>
        <time>2018-05-04T14:52:12Z</time>
      </trkpt>
      <trkpt lat="46.57671" lon="-1.81479">
        <ele>44</ele>
        <time>2018-05-04T14:52:14Z</time>
      </trkpt>
      <trkpt lat="46.57669" lon="-1.81482">
        <ele>44</ele>
        <time>2018-05-04T14:52:16Z</time>
      </trkpt>
      <trkpt lat="46.57666" lon="-1.81484">
        <ele>44</ele>
        <time>2018-05-04T14:52:18Z</time>
      </trkpt>
      <trkpt lat="46.57664" lon="-1.81486">
        <ele>44</ele>
        <time>2018-05-04T14:52:20Z</time>
      </trkpt>
      <trkpt lat="46.57661" lon="-1.81491">
        <ele>44</ele>
        <time>2018-05-04T14:52:24Z</time>
      </trkpt>
      <trkpt lat="46.57657" lon="-1.81496">
        <ele>44</ele>
        <time>2018-05-04T14:52:28Z</time>
      </trkpt>
      <trkpt lat="46.57656" lon="-1.81498">
        <ele>44</ele>
        <time>2018-05-04T14:52:30Z</time>
      </trkpt>
      <trkpt lat="46.57651" lon="-1.81503">
        <ele>44</ele>
        <time>2018-05-04T14:52:34Z</time>
      </trkpt>
      <trkpt lat="46.57647" lon="-1.81507">
        <ele>43</ele>
        <time>2018-05-04T14:52:39Z</time>
      </trkpt>
      <trkpt lat="46.57642" lon="-1.81509">
        <ele>43</ele>
        <time>2018-05-04T14:52:44Z</time>
      </trkpt>
      <trkpt lat="46.57642" lon="-1.81509">
        <ele>43</ele>
        <time>2018-05-04T14:52:52Z</time>
      </trkpt>
      <trkpt lat="46.57642" lon="-1.81509">
        <ele>43</ele>
        <time>2018-05-04T14:52:54Z</time>
      </trkpt>
      <trkpt lat="46.57637" lon="-1.81512">
        <ele>41</ele>
        <time>2018-05-04T14:53:28Z</time>
      </trkpt>
      <trkpt lat="46.57632" lon="-1.81513">
        <ele>41</ele>
        <time>2018-05-04T14:53:33Z</time>
      </trkpt>
      <trkpt lat="46.5763" lon="-1.81514">
        <ele>41</ele>
        <time>2018-05-04T14:53:36Z</time>
      </trkpt>
      <trkpt lat="46.57625" lon="-1.81513">
        <ele>41</ele>
        <time>2018-05-04T14:53:41Z</time>
      </trkpt>
      <trkpt lat="46.5762" lon="-1.81514">
        <ele>42</ele>
        <time>2018-05-04T14:53:45Z</time>
      </trkpt>
      <trkpt lat="46.57616" lon="-1.81512">
        <ele>42</ele>
        <time>2018-05-04T14:53:50Z</time>
      </trkpt>
      <trkpt lat="46.5761" lon="-1.8151">
        <ele>41</ele>
        <time>2018-05-04T14:53:56Z</time>
      </trkpt>
      <trkpt lat="46.57605" lon="-1.81511">
        <ele>42</ele>
        <time>2018-05-04T14:54:00Z</time>
      </trkpt>
      <trkpt lat="46.57603" lon="-1.81511">
        <ele>42</ele>
        <time>2018-05-04T14:54:02Z</time>
      </trkpt>
      <trkpt lat="46.57598" lon="-1.81511">
        <ele>41</ele>
        <time>2018-05-04T14:54:07Z</time>
      </trkpt>
      <trkpt lat="46.57592" lon="-1.81512">
        <ele>42</ele>
        <time>2018-05-04T14:54:12Z</time>
      </trkpt>
      <trkpt lat="46.57587" lon="-1.8151">
        <ele>42</ele>
        <time>2018-05-04T14:54:17Z</time>
      </trkpt>
      <trkpt lat="46.57582" lon="-1.8151">
        <ele>43</ele>
        <time>2018-05-04T14:54:22Z</time>
      </trkpt>
      <trkpt lat="46.57578" lon="-1.81513">
        <ele>42</ele>
        <time>2018-05-04T14:54:26Z</time>
      </trkpt>
      <trkpt lat="46.57574" lon="-1.81517">
        <ele>42</ele>
        <time>2018-05-04T14:54:30Z</time>
      </trkpt>
      <trkpt lat="46.57569" lon="-1.81519">
        <ele>42</ele>
        <time>2018-05-04T14:54:35Z</time>
      </trkpt>
      <trkpt lat="46.57562" lon="-1.81518">
        <ele>40</ele>
        <time>2018-05-04T14:54:40Z</time>
      </trkpt>
      <trkpt lat="46.57559" lon="-1.81517">
        <ele>40</ele>
        <time>2018-05-04T14:54:43Z</time>
      </trkpt>
      <trkpt lat="46.57555" lon="-1.8152">
        <ele>40</ele>
        <time>2018-05-04T14:54:48Z</time>
      </trkpt>
      <trkpt lat="46.57551" lon="-1.81524">
        <ele>41</ele>
        <time>2018-05-04T14:54:52Z</time>
      </trkpt>
      <trkpt lat="46.57547" lon="-1.81529">
        <ele>42</ele>
        <time>2018-05-04T14:54:56Z</time>
      </trkpt>
      <trkpt lat="46.57546" lon="-1.81532">
        <ele>42</ele>
        <time>2018-05-04T14:54:58Z</time>
      </trkpt>
      <trkpt lat="46.57543" lon="-1.81536">
        <ele>42</ele>
        <time>2018-05-04T14:55:01Z</time>
      </trkpt>
      <trkpt lat="46.57541" lon="-1.81545">
        <ele>42</ele>
        <time>2018-05-04T14:55:06Z</time>
      </trkpt>
      <trkpt lat="46.5754" lon="-1.81553">
        <ele>42</ele>
        <time>2018-05-04T14:55:11Z</time>
      </trkpt>
      <trkpt lat="46.5754" lon="-1.81558">
        <ele>42</ele>
        <time>2018-05-04T14:55:14Z</time>
      </trkpt>
      <trkpt lat="46.57539" lon="-1.81561">
        <ele>42</ele>
        <time>2018-05-04T14:55:16Z</time>
      </trkpt>
      <trkpt lat="46.57538" lon="-1.81568">
        <ele>42</ele>
        <time>2018-05-04T14:55:20Z</time>
      </trkpt>
      <trkpt lat="46.57537" lon="-1.81575">
        <ele>42</ele>
        <time>2018-05-04T14:55:24Z</time>
      </trkpt>
      <trkpt lat="46.57536" lon="-1.81578">
        <ele>42</ele>
        <time>2018-05-04T14:55:27Z</time>
      </trkpt>
      <trkpt lat="46.57536" lon="-1.81583">
        <ele>43</ele>
        <time>2018-05-04T14:55:30Z</time>
      </trkpt>
      <trkpt lat="46.57536" lon="-1.8159">
        <ele>43</ele>
        <time>2018-05-04T14:55:34Z</time>
      </trkpt>
      <trkpt lat="46.57536" lon="-1.81598">
        <ele>44</ele>
        <time>2018-05-04T14:55:38Z</time>
      </trkpt>
      <trkpt lat="46.57536" lon="-1.81603">
        <ele>44</ele>
        <time>2018-05-04T14:55:41Z</time>
      </trkpt>
      <trkpt lat="46.57536" lon="-1.81611">
        <ele>44</ele>
        <time>2018-05-04T14:55:46Z</time>
      </trkpt>
      <trkpt lat="46.57535" lon="-1.81618">
        <ele>44</ele>
        <time>2018-05-04T14:55:50Z</time>
      </trkpt>
      <trkpt lat="46.57535" lon="-1.81621">
        <ele>44</ele>
        <time>2018-05-04T14:55:52Z</time>
      </trkpt>
      <trkpt lat="46.57533" lon="-1.81627">
        <ele>44</ele>
        <time>2018-05-04T14:55:56Z</time>
      </trkpt>
      <trkpt lat="46.57532" lon="-1.81634">
        <ele>44</ele>
        <time>2018-05-04T14:56:01Z</time>
      </trkpt>
      <trkpt lat="46.57532" lon="-1.81638">
        <ele>43</ele>
        <time>2018-05-04T14:56:06Z</time>
      </trkpt>
      <trkpt lat="46.57532" lon="-1.81638">
        <ele>43</ele>
        <time>2018-05-04T14:58:13Z</time>
      </trkpt>
      <trkpt lat="46.57532" lon="-1.81685">
        <ele>41</ele>
        <time>2018-05-04T14:59:17Z</time>
      </trkpt>
      <trkpt lat="46.57536" lon="-1.81689">
        <ele>40</ele>
        <time>2018-05-04T14:59:23Z</time>
      </trkpt>
      <trkpt lat="46.57539" lon="-1.81693">
        <ele>39</ele>
        <time>2018-05-04T14:59:30Z</time>
      </trkpt>
      <trkpt lat="46.57544" lon="-1.81697">
        <ele>40</ele>
        <time>2018-05-04T14:59:38Z</time>
      </trkpt>
      <trkpt lat="46.57548" lon="-1.817">
        <ele>37</ele>
        <time>2018-05-04T14:59:47Z</time>
      </trkpt>
      <trkpt lat="46.57554" lon="-1.817">
        <ele>37</ele>
        <time>2018-05-04T14:59:54Z</time>
      </trkpt>
      <trkpt lat="46.57559" lon="-1.81703">
        <ele>37</ele>
        <time>2018-05-04T15:00:01Z</time>
      </trkpt>
      <trkpt lat="46.57562" lon="-1.81704">
        <ele>37</ele>
        <time>2018-05-04T15:00:05Z</time>
      </trkpt>
      <trkpt lat="46.57566" lon="-1.81705">
        <ele>38</ele>
        <time>2018-05-04T15:00:10Z</time>
      </trkpt>
      <trkpt lat="46.57571" lon="-1.81704">
        <ele>38</ele>
        <time>2018-05-04T15:00:19Z</time>
      </trkpt>
      <trkpt lat="46.57577" lon="-1.81702">
        <ele>37</ele>
        <time>2018-05-04T15:00:23Z</time>
      </trkpt>
      <trkpt lat="46.57581" lon="-1.81701">
        <ele>36</ele>
        <time>2018-05-04T15:00:26Z</time>
      </trkpt>
      <trkpt lat="46.57587" lon="-1.81703">
        <ele>37</ele>
        <time>2018-05-04T15:00:35Z</time>
      </trkpt>
      <trkpt lat="46.5759" lon="-1.81703">
        <ele>38</ele>
        <time>2018-05-04T15:00:37Z</time>
      </trkpt>
      <trkpt lat="46.57595" lon="-1.81703">
        <ele>38</ele>
        <time>2018-05-04T15:00:40Z</time>
      </trkpt>
      <trkpt lat="46.576" lon="-1.81703">
        <ele>39</ele>
        <time>2018-05-04T15:00:43Z</time>
      </trkpt>
      <trkpt lat="46.57602" lon="-1.81703">
        <ele>39</ele>
        <time>2018-05-04T15:00:45Z</time>
      </trkpt>
      <trkpt lat="46.57607" lon="-1.81704">
        <ele>39</ele>
        <time>2018-05-04T15:00:49Z</time>
      </trkpt>
      <trkpt lat="46.57611" lon="-1.81705">
        <ele>40</ele>
        <time>2018-05-04T15:00:54Z</time>
      </trkpt>
      <trkpt lat="46.57615" lon="-1.81708">
        <ele>39</ele>
        <time>2018-05-04T15:00:59Z</time>
      </trkpt>
      <trkpt lat="46.57621" lon="-1.81711">
        <ele>39</ele>
        <time>2018-05-04T15:01:03Z</time>
      </trkpt>
      <trkpt lat="46.57627" lon="-1.81713">
        <ele>41</ele>
        <time>2018-05-04T15:01:07Z</time>
      </trkpt>
      <trkpt lat="46.57632" lon="-1.81713">
        <ele>41</ele>
        <time>2018-05-04T15:01:11Z</time>
      </trkpt>
      <trkpt lat="46.57637" lon="-1.81715">
        <ele>42</ele>
        <time>2018-05-04T15:01:16Z</time>
      </trkpt>
      <trkpt lat="46.5764" lon="-1.81716">
        <ele>42</ele>
        <time>2018-05-04T15:01:19Z</time>
      </trkpt>
      <trkpt lat="46.57644" lon="-1.81715">
        <ele>43</ele>
        <time>2018-05-04T15:01:24Z</time>
      </trkpt>
      <trkpt lat="46.57649" lon="-1.81715">
        <ele>44</ele>
        <time>2018-05-04T15:01:28Z</time>
      </trkpt>
      <trkpt lat="46.57656" lon="-1.81714">
        <ele>44</ele>
        <time>2018-05-04T15:01:34Z</time>
      </trkpt>
      <trkpt lat="46.57661" lon="-1.81718">
        <ele>44</ele>
        <time>2018-05-04T15:01:39Z</time>
      </trkpt>
      <trkpt lat="46.57663" lon="-1.8172">
        <ele>44</ele>
        <time>2018-05-04T15:01:41Z</time>
      </trkpt>
      <trkpt lat="46.57666" lon="-1.81725">
        <ele>44</ele>
        <time>2018-05-04T15:01:45Z</time>
      </trkpt>
      <trkpt lat="46.57668" lon="-1.81734">
        <ele>45</ele>
        <time>2018-05-04T15:01:50Z</time>
      </trkpt>
      <trkpt lat="46.57672" lon="-1.81739">
        <ele>44</ele>
        <time>2018-05-04T15:01:56Z</time>
      </trkpt>
      <trkpt lat="46.57676" lon="-1.81745">
        <ele>45</ele>
        <time>2018-05-04T15:02:01Z</time>
      </trkpt>
      <trkpt lat="46.57679" lon="-1.81753">
        <ele>44</ele>
        <time>2018-05-04T15:02:07Z</time>
      </trkpt>
      <trkpt lat="46.5768" lon="-1.8176">
        <ele>45</ele>
        <time>2018-05-04T15:02:12Z</time>
      </trkpt>
      <trkpt lat="46.57684" lon="-1.81767">
        <ele>45</ele>
        <time>2018-05-04T15:02:18Z</time>
      </trkpt>
      <trkpt lat="46.57685" lon="-1.81773">
        <ele>45</ele>
        <time>2018-05-04T15:02:22Z</time>
      </trkpt>
      <trkpt lat="46.57688" lon="-1.81781">
        <ele>44</ele>
        <time>2018-05-04T15:02:27Z</time>
      </trkpt>
      <trkpt lat="46.57689" lon="-1.81789">
        <ele>44</ele>
        <time>2018-05-04T15:02:33Z</time>
      </trkpt>
      <trkpt lat="46.57689" lon="-1.81797">
        <ele>43</ele>
        <time>2018-05-04T15:02:39Z</time>
      </trkpt>
      <trkpt lat="46.57689" lon="-1.81797">
        <ele>43</ele>
        <time>2018-05-04T15:02:46Z</time>
      </trkpt>
      <trkpt lat="46.57689" lon="-1.81797">
        <ele>43</ele>
        <time>2018-05-04T15:02:48Z</time>
      </trkpt>
      <trkpt lat="46.57691" lon="-1.81809">
        <ele>43</ele>
        <time>2018-05-04T15:03:45Z</time>
      </trkpt>
      <trkpt lat="46.57692" lon="-1.81815">
        <ele>42</ele>
        <time>2018-05-04T15:03:52Z</time>
      </trkpt>
      <trkpt lat="46.57692" lon="-1.81823">
        <ele>43</ele>
        <time>2018-05-04T15:03:57Z</time>
      </trkpt>
      <trkpt lat="46.57692" lon="-1.81826">
        <ele>43</ele>
        <time>2018-05-04T15:03:59Z</time>
      </trkpt>
      <trkpt lat="46.57693" lon="-1.81832">
        <ele>43</ele>
        <time>2018-05-04T15:04:04Z</time>
      </trkpt>
      <trkpt lat="46.57693" lon="-1.81836">
        <ele>43</ele>
        <time>2018-05-04T15:04:07Z</time>
      </trkpt>
      <trkpt lat="46.57694" lon="-1.81842">
        <ele>43</ele>
        <time>2018-05-04T15:04:10Z</time>
      </trkpt>
      <trkpt lat="46.57694" lon="-1.81848">
        <ele>43</ele>
        <time>2018-05-04T15:04:13Z</time>
      </trkpt>
      <trkpt lat="46.57693" lon="-1.81855">
        <ele>42</ele>
        <time>2018-05-04T15:04:17Z</time>
      </trkpt>
      <trkpt lat="46.57694" lon="-1.81863">
        <ele>41</ele>
        <time>2018-05-04T15:04:24Z</time>
      </trkpt>
      <trkpt lat="46.57694" lon="-1.81867">
        <ele>41</ele>
        <time>2018-05-04T15:04:26Z</time>
      </trkpt>
      <trkpt lat="46.57695" lon="-1.81873">
        <ele>41</ele>
        <time>2018-05-04T15:04:29Z</time>
      </trkpt>
      <trkpt lat="46.57695" lon="-1.8188">
        <ele>41</ele>
        <time>2018-05-04T15:04:33Z</time>
      </trkpt>
      <trkpt lat="46.57694" lon="-1.81886">
        <ele>41</ele>
        <time>2018-05-04T15:04:37Z</time>
      </trkpt>
      <trkpt lat="46.57693" lon="-1.8189">
        <ele>41</ele>
        <time>2018-05-04T15:04:39Z</time>
      </trkpt>
      <trkpt lat="46.57696" lon="-1.81899">
        <ele>40</ele>
        <time>2018-05-04T15:04:44Z</time>
      </trkpt>
      <trkpt lat="46.57697" lon="-1.81903">
        <ele>41</ele>
        <time>2018-05-04T15:04:46Z</time>
      </trkpt>
      <trkpt lat="46.57697" lon="-1.8191">
        <ele>41</ele>
        <time>2018-05-04T15:04:50Z</time>
      </trkpt>
      <trkpt lat="46.57698" lon="-1.81918">
        <ele>42</ele>
        <time>2018-05-04T15:04:56Z</time>
      </trkpt>
      <trkpt lat="46.57698" lon="-1.81925">
        <ele>41</ele>
        <time>2018-05-04T15:05:00Z</time>
      </trkpt>
      <trkpt lat="46.57698" lon="-1.81933">
        <ele>42</ele>
        <time>2018-05-04T15:05:04Z</time>
      </trkpt>
      <trkpt lat="46.577" lon="-1.8194">
        <ele>41</ele>
        <time>2018-05-04T15:05:09Z</time>
      </trkpt>
      <trkpt lat="46.57701" lon="-1.81945">
        <ele>41</ele>
        <time>2018-05-04T15:05:12Z</time>
      </trkpt>
      <trkpt lat="46.57701" lon="-1.81952">
        <ele>40</ele>
        <time>2018-05-04T15:05:17Z</time>
      </trkpt>
      <trkpt lat="46.57702" lon="-1.81961">
        <ele>40</ele>
        <time>2018-05-04T15:05:21Z</time>
      </trkpt>
      <trkpt lat="46.57704" lon="-1.81967">
        <ele>40</ele>
        <time>2018-05-04T15:05:25Z</time>
      </trkpt>
      <trkpt lat="46.57703" lon="-1.81975">
        <ele>41</ele>
        <time>2018-05-04T15:05:29Z</time>
      </trkpt>
      <trkpt lat="46.577" lon="-1.81982">
        <ele>42</ele>
        <time>2018-05-04T15:05:33Z</time>
      </trkpt>
      <trkpt lat="46.57697" lon="-1.81987">
        <ele>42</ele>
        <time>2018-05-04T15:05:36Z</time>
      </trkpt>
      <trkpt lat="46.57694" lon="-1.81991">
        <ele>41</ele>
        <time>2018-05-04T15:05:38Z</time>
      </trkpt>
      <trkpt lat="46.57692" lon="-1.81994">
        <ele>41</ele>
        <time>2018-05-04T15:05:40Z</time>
      </trkpt>
      <trkpt lat="46.57689" lon="-1.81998">
        <ele>41</ele>
        <time>2018-05-04T15:05:43Z</time>
      </trkpt>
      <trkpt lat="46.57687" lon="-1.82">
        <ele>42</ele>
        <time>2018-05-04T15:05:45Z</time>
      </trkpt>
      <trkpt lat="46.57684" lon="-1.82006">
        <ele>42</ele>
        <time>2018-05-04T15:05:48Z</time>
      </trkpt>
      <trkpt lat="46.57683" lon="-1.82013">
        <ele>41</ele>
        <time>2018-05-04T15:05:52Z</time>
      </trkpt>
      <trkpt lat="46.57681" lon="-1.8202">
        <ele>40</ele>
        <time>2018-05-04T15:05:56Z</time>
      </trkpt>
      <trkpt lat="46.57682" lon="-1.82028">
        <ele>40</ele>
        <time>2018-05-04T15:06:00Z</time>
      </trkpt>
      <trkpt lat="46.57682" lon="-1.82033">
        <ele>39</ele>
        <time>2018-05-04T15:06:03Z</time>
      </trkpt>
      <trkpt lat="46.57683" lon="-1.8204">
        <ele>40</ele>
        <time>2018-05-04T15:06:07Z</time>
      </trkpt>
      <trkpt lat="46.57684" lon="-1.82046">
        <ele>39</ele>
        <time>2018-05-04T15:06:12Z</time>
      </trkpt>
      <trkpt lat="46.57686" lon="-1.82052">
        <ele>39</ele>
        <time>2018-05-04T15:06:16Z</time>
      </trkpt>
      <trkpt lat="46.57687" lon="-1.82056">
        <ele>40</ele>
        <time>2018-05-04T15:06:18Z</time>
      </trkpt>
      <trkpt lat="46.57689" lon="-1.82063">
        <ele>40</ele>
        <time>2018-05-04T15:06:23Z</time>
      </trkpt>
      <trkpt lat="46.57689" lon="-1.8207">
        <ele>41</ele>
        <time>2018-05-04T15:06:27Z</time>
      </trkpt>
      <trkpt lat="46.57689" lon="-1.82073">
        <ele>41</ele>
        <time>2018-05-04T15:06:29Z</time>
      </trkpt>
      <trkpt lat="46.5769" lon="-1.8208">
        <ele>41</ele>
        <time>2018-05-04T15:06:33Z</time>
      </trkpt>
      <trkpt lat="46.57691" lon="-1.82086">
        <ele>41</ele>
        <time>2018-05-04T15:06:37Z</time>
      </trkpt>
      <trkpt lat="46.57693" lon="-1.82094">
        <ele>41</ele>
        <time>2018-05-04T15:06:42Z</time>
      </trkpt>
      <trkpt lat="46.57694" lon="-1.82098">
        <ele>41</ele>
        <time>2018-05-04T15:06:44Z</time>
      </trkpt>
      <trkpt lat="46.57694" lon="-1.82104">
        <ele>41</ele>
        <time>2018-05-04T15:06:48Z</time>
      </trkpt>
      <trkpt lat="46.57695" lon="-1.82108">
        <ele>41</ele>
        <time>2018-05-04T15:06:50Z</time>
      </trkpt>
      <trkpt lat="46.57696" lon="-1.82115">
        <ele>41</ele>
        <time>2018-05-04T15:06:54Z</time>
      </trkpt>
      <trkpt lat="46.57696" lon="-1.82119">
        <ele>42</ele>
        <time>2018-05-04T15:06:57Z</time>
      </trkpt>
      <trkpt lat="46.57698" lon="-1.82126">
        <ele>42</ele>
        <time>2018-05-04T15:07:02Z</time>
      </trkpt>
      <trkpt lat="46.57698" lon="-1.8213">
        <ele>43</ele>
        <time>2018-05-04T15:07:04Z</time>
      </trkpt>
      <trkpt lat="46.57699" lon="-1.82134">
        <ele>42</ele>
        <time>2018-05-04T15:07:07Z</time>
      </trkpt>
      <trkpt lat="46.577" lon="-1.82142">
        <ele>42</ele>
        <time>2018-05-04T15:07:11Z</time>
      </trkpt>
      <trkpt lat="46.57701" lon="-1.82147">
        <ele>42</ele>
        <time>2018-05-04T15:07:14Z</time>
      </trkpt>
      <trkpt lat="46.57702" lon="-1.82154">
        <ele>42</ele>
        <time>2018-05-04T15:07:18Z</time>
      </trkpt>
      <trkpt lat="46.57704" lon="-1.82161">
        <ele>42</ele>
        <time>2018-05-04T15:07:23Z</time>
      </trkpt>
      <trkpt lat="46.57706" lon="-1.82167">
        <ele>42</ele>
        <time>2018-05-04T15:07:28Z</time>
      </trkpt>
      <trkpt lat="46.57707" lon="-1.82171">
        <ele>43</ele>
        <time>2018-05-04T15:07:31Z</time>
      </trkpt>
      <trkpt lat="46.57708" lon="-1.82179">
        <ele>43</ele>
        <time>2018-05-04T15:07:38Z</time>
      </trkpt>
      <trkpt lat="46.57708" lon="-1.82184">
        <ele>42</ele>
        <time>2018-05-04T15:07:41Z</time>
      </trkpt>
      <trkpt lat="46.57711" lon="-1.82193">
        <ele>42</ele>
        <time>2018-05-04T15:07:46Z</time>
      </trkpt>
      <trkpt lat="46.57714" lon="-1.82201">
        <ele>42</ele>
        <time>2018-05-04T15:07:52Z</time>
      </trkpt>
      <trkpt lat="46.57715" lon="-1.82209">
        <ele>41</ele>
        <time>2018-05-04T15:07:57Z</time>
      </trkpt>
      <trkpt lat="46.57717" lon="-1.82215">
        <ele>40</ele>
        <time>2018-05-04T15:08:02Z</time>
      </trkpt>
      <trkpt lat="46.57718" lon="-1.82223">
        <ele>39</ele>
        <time>2018-05-04T15:08:07Z</time>
      </trkpt>
      <trkpt lat="46.57716" lon="-1.82229">
        <ele>39</ele>
        <time>2018-05-04T15:08:10Z</time>
      </trkpt>
      <trkpt lat="46.57715" lon="-1.82234">
        <ele>39</ele>
        <time>2018-05-04T15:08:13Z</time>
      </trkpt>
      <trkpt lat="46.57711" lon="-1.8224">
        <ele>39</ele>
        <time>2018-05-04T15:08:17Z</time>
      </trkpt>
      <trkpt lat="46.57709" lon="-1.82244">
        <ele>38</ele>
        <time>2018-05-04T15:08:19Z</time>
      </trkpt>
      <trkpt lat="46.57706" lon="-1.82249">
        <ele>36</ele>
        <time>2018-05-04T15:08:23Z</time>
      </trkpt>
      <trkpt lat="46.57702" lon="-1.82255">
        <ele>36</ele>
        <time>2018-05-04T15:08:27Z</time>
      </trkpt>
      <trkpt lat="46.57698" lon="-1.8226">
        <ele>37</ele>
        <time>2018-05-04T15:08:31Z</time>
      </trkpt>
      <trkpt lat="46.57693" lon="-1.82263">
        <ele>37</ele>
        <time>2018-05-04T15:08:36Z</time>
      </trkpt>
      <trkpt lat="46.57688" lon="-1.82263">
        <ele>38</ele>
        <time>2018-05-04T15:08:40Z</time>
      </trkpt>
      <trkpt lat="46.57683" lon="-1.82266">
        <ele>40</ele>
        <time>2018-05-04T15:08:45Z</time>
      </trkpt>
      <trkpt lat="46.57676" lon="-1.82266">
        <ele>39</ele>
        <time>2018-05-04T15:08:51Z</time>
      </trkpt>
      <trkpt lat="46.57673" lon="-1.82267">
        <ele>38</ele>
        <time>2018-05-04T15:08:54Z</time>
      </trkpt>
      <trkpt lat="46.5767" lon="-1.82267">
        <ele>38</ele>
        <time>2018-05-04T15:08:57Z</time>
      </trkpt>
      <trkpt lat="46.57666" lon="-1.82268">
        <ele>39</ele>
        <time>2018-05-04T15:09:01Z</time>
      </trkpt>
      <trkpt lat="46.57661" lon="-1.82267">
        <ele>38</ele>
        <time>2018-05-04T15:09:05Z</time>
      </trkpt>
      <trkpt lat="46.57654" lon="-1.82266">
        <ele>38</ele>
        <time>2018-05-04T15:09:10Z</time>
      </trkpt>
      <trkpt lat="46.5765" lon="-1.82268">
        <ele>38</ele>
        <time>2018-05-04T15:09:15Z</time>
      </trkpt>
      <trkpt lat="46.57646" lon="-1.82273">
        <ele>37</ele>
        <time>2018-05-04T15:09:21Z</time>
      </trkpt>
      <trkpt lat="46.57642" lon="-1.82278">
        <ele>36</ele>
        <time>2018-05-04T15:09:26Z</time>
      </trkpt>
      <trkpt lat="46.57638" lon="-1.82284">
        <ele>35</ele>
        <time>2018-05-04T15:09:30Z</time>
      </trkpt>
      <trkpt lat="46.57633" lon="-1.82288">
        <ele>34</ele>
        <time>2018-05-04T15:09:36Z</time>
      </trkpt>
      <trkpt lat="46.57633" lon="-1.82291">
        <ele>34</ele>
        <time>2018-05-04T15:09:45Z</time>
      </trkpt>
      <trkpt lat="46.57632" lon="-1.823">
        <ele>32</ele>
        <time>2018-05-04T15:09:51Z</time>
      </trkpt>
      <trkpt lat="46.57628" lon="-1.82306">
        <ele>31</ele>
        <time>2018-05-04T15:09:54Z</time>
      </trkpt>
      <trkpt lat="46.57626" lon="-1.82313">
        <ele>32</ele>
        <time>2018-05-04T15:09:57Z</time>
      </trkpt>
      <trkpt lat="46.57625" lon="-1.82319">
        <ele>31</ele>
        <time>2018-05-04T15:10:00Z</time>
      </trkpt>
      <trkpt lat="46.57622" lon="-1.82326">
        <ele>32</ele>
        <time>2018-05-04T15:10:04Z</time>
      </trkpt>
      <trkpt lat="46.57621" lon="-1.8233">
        <ele>32</ele>
        <time>2018-05-04T15:10:06Z</time>
      </trkpt>
      <trkpt lat="46.5762" lon="-1.82339">
        <ele>35</ele>
        <time>2018-05-04T15:10:10Z</time>
      </trkpt>
      <trkpt lat="46.5762" lon="-1.82343">
        <ele>37</ele>
        <time>2018-05-04T15:10:16Z</time>
      </trkpt>
    </trkseg>
  </trk>
</gpx>